     2              OBSERVATION DATA    GPS                 RINEX VERSION / TYPE
teqc 1998Mar9 19981223 02:17:35UTC                          PGM / RUN BY / DATE
                                                            COMMENT
Original Marker Name: TOMT                                  COMMENT
Campaign Name: HPGN 1998                                    COMMENT
4-Character Station Name: TOMT                              COMMENT
6-Character Antenna Code: TRMCMP                            COMMENT
Vertical Measurement Point: BPA                             COMMENT
Vertical Offset to Rinex Ref. Point: 0.0000                 COMMENT
Radial Measurement Point: RRP                               COMMENT
Radial Offset to Rinex Ref. Point: 0.0000                   COMMENT
Antenna Height from Field Measurement: 1.8000 m             COMMENT
Original XYZ: -2375798.9818 -4735697.0902 3539745.5134      COMMENT
New XYZ position is based on association with SCEC monument COMMENT
E1D0U2G2+0011. Position of that monument is believed to be  COMMENT
valid to within 1 m horizontally; vertical accuracy         COMMENT
should be no worse than 3-times this value.                 COMMENT
                                                            COMMENT
Revised Rinex header created by UCSD GPS archive for        COMMENT
GSAC on 30-May-1999 (1999:150) 19:09:14 GMT                 COMMENT
For assistance contact dagnew@ucsd.edu or hjohnson@ucsd.edu COMMENT
                                                            COMMENT
TOMTIT2                                                     MARKER NAME
unknown CALIF DEPT TRANSPORTATION                           OBSERVER / AGENCY
16422 TRIMBLE 4000 SSI NP 7.22; SP 3.06                     REC # / TYPE / VERS
66122 TR GEOD L1/L2 GP                                      ANT # / TYPE
 -2375799.0000 -4735701.0000  3539748.0000                  APPROX POSITION XYZ
        1.8000        0.0000        0.0000                  ANTENNA: DELTA H/E/N
     1     1     0                                          WAVELENGTH FACT L1/2
     7    C1    L1    L2    P1    P2    S1    S2            # / TYPES OF OBSERV
     0                                                      INTERVAL
  1998     6    18    19    38   15.000000                  TIME OF FIRST OBS
  1998     6    19     1     7   45.000000                  TIME OF LAST OBS
                                                            END OF HEADER
 98  6 18 19 38 15.0000000  0  8G17G 5G 6G13G26G10G24G30
  22643835.5704  -11649365.91257  -8934514.52056                  22643842.1804
        21.5004         20.0004
  22894736.5784   11743126.21856   9151017.50156                  22894744.3164
        16.7504         15.5004
  21236805.7344  -14120599.91858 -10959393.52857                  21236811.1254
        30.0004         26.7504
  24995216.5864      -3486.96055
         7.7504
  24607816.6644     -22284.72355
         8.5004
  21760084.9064   -1781126.76857  -1345109.93156                  21760090.7894
        27.7504         24.0004
  24135525.0554   14581382.46355   4184151.08355                  24135533.1684
        10.7504          8.5004
  21289950.1564   -1391126.18458  -1034771.33957                  21289955.4884
        32.0004         28.0004
 98  6 18 19 38 30.0000000  0  8G17G 5G 6G13G26G10G24G30
  22638107.6484  -11679466.84947  -8957969.77946                  22638114.2584
        22.0004         19.5004
  22904068.5634   11792164.43146   9189229.02846                  22904075.4804
        17.2504         15.5004
  21232028.8284  -14145703.17848 -10978954.50347                  21232034.2544
        30.2504         26.7504
  24993989.4304      -9936.62644
         6.7504
  24599865.2894     -64069.52445
         8.7504
  21765334.9064   -1753537.99147  -1323612.18846                  21765340.8134
        27.7504         24.0004
  24142720.0084   14619190.69245   4213612.05445                  24142727.0314
        10.0004          8.5004
  21295337.8674   -1362813.57048  -1012709.58347                  21295343.3754
        32.2504         28.0004
 98  6 18 19 38 45.0000000  0  8G17G 5G 6G13G26G10G24G30
  22632389.4534  -11709514.19247  -8981383.27146                  22632395.6294
        22.2504         19.2504
  22913409.5784   11841252.12246   9227479.10046                  22913416.7894
        17.0004         15.2504
  21227262.1724  -14170750.57848 -10998471.95047                  21227267.6564
        29.7504         26.7504
  24992785.1884     -16266.72144
         7.0004
  24591915.4614    -105843.46745
         8.7504
  21770610.3054   -1725816.54147  -1302011.06546                  21770616.3164
        27.7504         24.2504
  24149915.1644   14657002.78645   4243075.97745                  24149923.0084
        10.7504          8.7504
  21300750.5944   -1334371.20748   -990546.72347                  21300755.6454
        32.5004         28.0004
 98  6 18 19 39  0.0000000  0  8G17G 5G 6G13G26G10G24G30
  22626681.9224  -11739508.79347  -9004755.67346                  22626688.1564
        21.5004         19.7504
  22922759.4384   11890386.81146   9265765.81546                  22922766.1524
        17.0004         15.5004
  21222506.2424  -14195745.97848 -11017948.87847                  21222511.4454
        30.5004         27.0004
  24991602.1954     -22482.14145
         7.7504
  24583967.0234    -147612.54045
         8.0004
  21775910.4694   -1697963.82347  -1280307.66346                  21775916.4104
        27.2504         23.7504
  24157110.8984   14694815.42145   4272540.30145                  24157119.1524
        10.2504          8.2504
  21306187.0084   -1305802.05148   -968285.06447                  21306191.8714
        32.5004         28.2504
 98  6 18 19 39 15.0000000  0  8G17G 5G 6G13G26G10G24G30
  22620985.2504  -11769445.35347  -9028082.84346                  22620991.6844
        21.5004         19.2504
  22932119.4924   11939573.18446   9304092.80646                  22932126.5514
        16.7504         15.7504
  21217760.3594  -14220683.60648 -11037380.79147                  21217765.4694
        31.5004         27.2504
  24990440.8284     -28581.68344
         6.7504
  24576020.1414    -189374.50845
         8.2504
  21781236.7034   -1669974.02047  -1258497.43246                  21781242.6214
        27.0004         23.5004
  24164306.6024   14732628.47945   4302005.05545                  24164312.6954
        10.7504          8.2504
  21311648.4304   -1277102.85248   -945922.07047                  21311653.4574
        32.5004         28.0004
 98  6 18 19 39 30.0000000  0  8G17G 5G 6G13G26G10G24G30
  22615299.1954  -11799324.61547  -9051365.35346                  22615305.7114
        22.0004         19.2504
  22941489.3364   11988811.77846   9342460.47846                  22941497.0394
        16.5004         15.7504
  21213026.0554  -14245563.41448 -11056767.64747                  21213031.2584
        31.0004         27.5004
  24989301.5004     -34567.33244     -2165.81255                  24989304.5124
         6.2504          5.0004
  24568074.3134    -231132.31545    -15182.18955                  24568086.0944
         8.7504          8.0004
  21786589.0084   -1641847.36047  -1236580.55346                  21786595.0784
        26.7504         23.2504
  24171500.5004   14770437.81845   4331466.84845                  24171507.7584
        10.0004          8.2504
  21317133.7974   -1248277.33248   -923460.64547                  21317138.9414
        32.5004         27.7504
 98  6 18 19 39 45.0000000  0  8G17G 5G 6G13G26G10G24G30
  22609624.3754  -11829145.58347  -9074602.44046                  22609630.7974
        22.2504         19.0004
  22950868.8914   12038102.10846   9380868.45246                  22950876.1484
        17.0004         15.5004
  21208302.8594  -14270383.46048 -11076107.93847                  21208307.9224
        31.7504         27.5004
  24988183.9304     -40440.42443     -6742.20445                  24988194.1884
         5.5004          5.2504
  24560127.8134    -272890.40745    -47720.84545                  24560138.7624
         8.7504          8.2504
  21791966.2034   -1613589.32247  -1214561.31146                  21791972.2974
        26.7504         23.2504
  24178694.9454   14808241.22245   4360923.97845                  24178702.4964
        10.2504          8.5004
  21322642.5784   -1219327.93648   -900902.69247                  21322647.7234
        32.5004         28.0004
 98  6 18 19 40  0.0000000  0  8G17G 5G 6G13G26G10G24G30
  22603961.3204  -11858906.17647  -9097792.48546                  22603967.7074
        22.0004         19.2504
  22960258.3524   12087443.02746   9419315.86846                  22960265.1484
        17.5004         15.7504
  21203591.8364  -14295141.51248 -11095399.91847                  21203596.8524
        31.5004         27.5004
  24987087.9534     -46201.73143    -11231.41444                  24987098.4344
         5.7504          4.2504
  24552182.0634    -314648.38445    -80259.44945                  24552193.5514
         7.5004          7.2504
  21797367.8364   -1585204.09047  -1192442.94946                  21797373.7894
        26.5004         23.2504
  24185887.6484   14846039.14545   4390376.92345                  24185894.3284
        11.2504          8.5004
  21328175.0084   -1190255.40248   -878248.79147                  21328179.9304
        31.7504         28.0004
 98  6 18 19 40 15.0000000  0  8G17G 5G 6G13G26G10G24G30
  22598309.5474  -11888606.95447  -9120935.92346                  22598315.8874
        22.7504         19.2504
  22969657.7734   12136836.54246   9457804.26046                  22969664.7384
        17.0004         15.2504
  21198892.5394  -14319835.58148 -11114642.04847                  21198897.6254
        31.2504         27.5004
  24986013.7274     -51849.65344    -15632.31545                  24986014.8634
         7.2504          4.5004
  24544235.5554    -356404.47545   -112796.58545                  24544247.0314
         8.0004          7.2504
  21802792.9614   -1556694.57647  -1170227.75446                  21802798.9144
        27.0004         23.2504
  24193079.1564   14883834.86345   4419828.09245                  24193085.3324
        10.5004          9.2504
  21333730.8524   -1161058.44748   -855497.93647                  21333736.0084
        31.7504         27.7504
 98  6 18 19 40 30.0000000  0  8G17G 5G 6G13G26G10G24G30
  22592668.3984  -11918251.30447  -9144035.39846                  22592674.4104
        23.0004         19.7504
  22979066.9304   12186282.67246   9496333.64546                  22979073.9884
        16.5004         15.5004
  21194205.0234  -14344468.19048 -11133836.28547                  21194210.2974
        31.5004         27.7504
  24984960.9304     -57382.64645    -19943.78645                  24984966.1914
         8.0004          5.2504
  24536289.6564    -398160.25045   -145333.46745                  24536299.1644
         8.0004          7.7504
  21808241.5004   -1528062.52047  -1147917.06446                  21808247.4414
        27.0004         23.5004
  24200272.0004   14921628.06745   4449277.27445                  24200278.5044
        10.7504          9.7504
  21339310.4144   -1131738.80048   -832651.48047                  21339315.7234
        31.2504         27.5004
 98  6 18 19 40 45.0000000  0  8G17G 5G 6G13G26G10G24G30
  22587038.4844  -11947835.94947  -9167088.35446                  22587044.5204
        23.7504         19.5004
  22988486.7504   12235785.81546   9534907.45946                  22988494.5474
        16.0004         15.0004
  21189530.0784  -14369034.86448 -11152979.14147                  21189535.2934
        31.0004         27.2504
  24983930.6334     -62796.83345    -24162.61645                  24983936.0234
         8.2504          5.5004
  24528342.8984    -439912.69945   -177867.76145                  24528354.1054
         7.7504          8.0004
  21813714.4224   -1499303.23447  -1125507.24546                  21813720.2814
        27.7504         23.7504
  24207463.5004   14959420.76245   4478726.09245                  24207470.8404
        11.5004          9.5004
  21344913.3834   -1102294.29948   -809707.73247                  21344919.1254
        30.7504         27.2504
 98  6 18 19 41  0.0000000  0  8G17G 5G 6G13G26G10G24G30
  22581420.3204  -11977360.05647  -9190094.12146                  22581426.4494
        23.7504         20.0004
  22997918.7034   12285347.64946   9573526.99746                  22997926.3954
        15.5004         15.0004
  21184867.6884  -14393536.88948 -11172071.62447                  21184872.9844
        31.2504         27.2504
  24982923.6484     -68090.24044    -28287.35745                  24982932.5354
         7.0004          5.7504
  24520399.0784    -481663.51144   -210400.74345                  24520409.8524
         7.2504          7.5004
  21819210.9924   -1470417.78148  -1102999.10246                  21819216.8284
        28.0004         24.2504
  24214654.8914   14997209.11645   4508171.53545                  24214661.1024
        11.5004          9.7504
  21350539.5784   -1072728.74248   -786669.65447                  21350545.1684
        31.5004         27.5004
 98  6 18 19 41 15.0000000  0  8G17G 5G 6G13G26G10G24G30
  22575813.4454  -12006822.95547  -9213052.19546                  22575819.5164
        23.7504         20.2504
  23007360.1644   12334965.01246   9612189.82046                  23007367.9024
        16.0004         15.0004
  21180216.3834  -14417979.00148 -11191117.42147                  21180221.6564
        30.5004         27.2504
  24981938.3984     -73267.15444    -32321.20345                  24981943.3554
         6.7504          5.2504
  24512453.6884    -523415.13144   -242934.39945                  24512463.5354
         6.7504          7.2504
  21824730.8524   -1441411.08147  -1080396.49146                  21824736.6764
        27.2504         24.2504
  24221844.2034   15034988.62445   4537610.09645                  24221850.8714
        11.5004          9.7504
  21356187.7664   -1043046.46248   -763540.63147                  21356192.9344
        31.7504         27.7504
 98  6 18 19 41 30.0000000  0  8G17G 5G 6G13G26G10G24G30
  22570219.1804  -12036221.33147  -9235960.00146                  22570225.3794
        23.2504         19.7504
  23016813.6414   12384641.23746   9650898.48646                  23016821.1684
        16.2504         15.2504
  21175577.6954  -14442356.06248 -11210112.52647                  21175582.9454
        30.7504         27.0004
  24980976.7114     -78319.29244    -36257.98745                  24980979.7464
         7.2504          5.7504
  24504510.2504    -565160.07945   -275462.83845                  24504521.7734
         7.5004          8.0004
  21830273.7734   -1412282.24547  -1057698.70346                  21830279.8324
        27.0004         24.2504
  24229032.8134   15072764.90446   4567046.15845                  24229039.7664
        12.0004         10.2504
  21361859.4384   -1013242.33848   -740316.66547                  21361864.6054
        32.2504         27.7504
 98  6 18 19 41 45.0000000  0  8G17G 5G 6G13G26G10G24G30
  22564636.8984  -12065555.14747  -9258817.50046                  22564643.4264
        23.0004         19.5004
  23026277.9064   12434376.35046   9689653.07546                  23026285.1884
        16.7504         14.7504
  21170951.6644  -14466665.14448 -11229054.66247                  21170957.0904
        30.2504         27.0004
  24980039.9844     -83241.57545    -40093.43745                  24980050.5594
         7.5004          6.5004
  24496567.9144    -606893.64445   -307982.43545                  24496578.5474
         8.2504          8.0004
  21835839.9844   -1383031.76347  -1034906.13646                  21835846.0434
        26.2504         24.0004
  24236221.3914   15110541.56546   4596482.46445                  24236228.8364
        12.2504         10.0004
  21367554.5554    -983314.11348   -716995.99047                  21367559.8634
        31.7504         27.5004
 98  6 18 19 42  0.0000000  0  8G17G 5G 6G13G26G10G24G30
  22559065.5394  -12094832.09547  -9281630.67946                  22559072.1254
        22.2504         19.7504
  23035751.6254   12484160.82146   9728446.10046                  23035759.2584
        16.2504         14.7504
  21166337.5234  -14490912.74748 -11247948.88547                  21166342.8444
        31.2504         27.2504
  24979126.0784     -88040.47344    -43832.93945                  24979132.7464
         7.0004          5.0004
  24488628.0944    -648621.63445   -340497.65645                  24488637.8484
         8.0004          7.5004
  21841427.8284   -1353666.72547  -1012024.30346                  21841433.8984
        26.2504         23.7504
  24243408.5554   15148311.93445   4625913.89345                  24243414.8954
        11.7504          9.5004
  21373272.4064    -953267.43248   -693583.01747                  21373277.6914
        31.5004         27.5004
 98  6 18 19 42 15.0000000  0  8G17G 5G 6G13G26G10G24G30
  22553505.0554  -12124053.00447  -9304400.20146                  22553511.5124
        21.5004         19.5004
  23045234.9224   12533994.58546   9767277.54146                  23045242.1094
        16.2504         14.5004
  21161734.7114  -14515101.70648 -11266797.41747                  21161739.9384
        30.5004         27.2504
  24978236.9224     -92716.47344    -47476.51845                  24978236.9574
         6.7504          5.2504
  24480688.0164    -690342.84645   -373007.58945                  24480698.9534
         7.7504          7.5004
  21847038.2034   -1324184.50447   -989051.15346                  21847044.0984
        26.5004         23.2504
  24250595.4064   15186075.93346   4655340.35245                  24250602.7464
        12.7504          9.5004
  21379012.6564    -923101.44148   -670077.06647                  21379018.0124
        31.7504         27.5004
 98  6 18 19 42 30.0000000  0  8G17G 5G 6G13G26G10G24G30
  22547954.8834  -12153219.32247  -9327127.17446                  22547961.3754
        22.0004         19.5004
  23054726.1884   12583873.94546   9806144.51746                  23054733.7624
        16.0004         14.7504
  21157142.2894  -14539233.80848 -11285601.64347                  21157147.4924
        30.7504         27.2504
  24977370.1414     -97269.02844    -51023.95345                  24977372.4964
         7.0004          5.2504
  24472750.3834    -732057.31445   -405512.26745                  24472760.1844
         8.7504          8.0004
  21852671.0634   -1294583.83547   -965985.70546                  21852676.9574
        26.0004         22.7504
  24257779.2194   15223829.58246   4684758.77945                  24257786.6054
        13.0004         10.0004
  21384776.2814    -892813.79048   -646476.32347                  21384781.7544
        31.7504         27.5004
 98  6 18 19 42 45.0000000  0  8G17G 5G 6G13G26G10G24G30
  22542416.1644  -12182326.91947  -9349808.40046                  22542422.7624
        22.5004         19.5004
  23064226.2894   12633797.00046   9845045.52446                  23064233.3134
        16.0004         14.5004
  21152561.1954  -14563307.40148 -11304360.28147                  21152566.4104
        30.7504         27.2504
  24976527.4844    -101699.03844    -54475.88245                  24976534.6374
         7.0004          5.2504
  24464813.2974    -773764.08845   -438010.95345                  24464823.0274
         9.0004          8.7504
  21858326.7424   -1264863.46947   -942826.98946                  21858332.7304
        26.0004         22.7504
  24264960.4534   15261569.83445   4714166.69845                  24264967.1334
        10.7504          8.7504
  21390562.9384    -862403.13148   -622779.72747                  21390568.2704
        31.2504         27.2504
 98  6 18 19 43  0.0000000  0  8G17G 5G 6G13G26G10G24G30
  22536889.2344  -12211370.89847  -9372440.03846                  22536895.3754
        22.7504         19.5004
  23073735.6254   12683766.49446   9883982.73046                  23073743.1294
        15.7504         14.5004
  21147992.1884  -14587318.17348 -11323069.96947                  21147997.3094
        31.0004         27.2504
  24975707.1254    -106008.09745    -57833.58845                  24975716.6564
         7.7504          6.2504
  24456879.1174    -815459.37945   -470500.70245                  24456890.0784
         8.0004          8.0004
  21864005.1254   -1235023.78747   -919575.29646                  21864011.0314
        26.2504         22.7504
  24272140.5234   15299297.10845   4743564.49845                  24272146.2894
        11.0004          8.7504
  21396374.2114    -831865.60848   -598984.27247                  21396379.5204
        31.2504         27.0004
 98  6 18 19 43 15.0000000  0  8G17G 5G 6G13G26G10G24G30
  22531373.5314  -12240354.47947  -9395024.60846                  22531379.8364
        22.2504         20.0004
  23083253.1174   12733780.79046   9922954.83846                  23083261.1024
        15.7504         14.5004
  21143435.2664  -14611266.32648 -11341730.85947                  21143440.4344
        31.7504         27.5004
  24974910.0704    -110199.68045    -61099.70145                  24974914.5594
         8.0004          6.7504
  24448947.8134    -857142.03745   -502980.62745                  24448958.1524
         7.7504          8.2504
  21869705.7894   -1205067.25247   -896232.55646                  21869711.4384
        27.0004         23.0004
  24279316.9774   15337011.46745   4772952.34745                  24279322.7664
        11.0004          8.5004
  21402209.7814    -801199.48248   -575088.62047                  21402215.0904
        30.7504         26.7504
 98  6 18 19 43 30.0000000  0  8G17G 5G 6G13G26G10G24G30
  22525868.9534  -12269282.20447  -9417565.67046                  22525875.4104
        22.5004         20.2504
  23092778.0864   12783835.73846   9961958.61946                  23092785.6134
        15.2504         14.0004
  21138889.9384  -14635150.72748 -11360342.07147                  21138894.9304
        31.5004         27.5004
  24974134.1954    -114275.37945    -64275.51345                  24974137.4304
         7.7504          5.7504
  24441018.5394    -898811.13745   -535449.95045                  24441028.5744
         9.2504          8.0004
  21875427.5554   -1174997.65947   -872801.71346                  21875433.3554
        26.7504         23.0004
  24286490.5394   15374711.19945   4802328.69045                  24286499.1804
         9.7504          9.0004
  21408069.8984    -770405.26848   -551093.15447                  21408075.4184
        30.7504         26.2504
 98  6 18 19 43 45.0000000  0  8G17G 5G 6G13G26G10G24G30
  22520374.7114  -12298154.96347  -9440063.90946                  22520381.0984
        23.0004         20.5004
  23102311.2504   12833933.06346  10000995.42846                  23102318.8594
        14.7504         14.0004
  21134357.6484  -14658968.42548 -11378901.31247                  21134362.7114
        31.2504         27.5004
  24973381.8914    -118232.29945    -67358.79145                  24973389.9924
         9.0004          6.2504
  24433091.5704    -940465.10245   -567907.51145                  24433100.1994
        10.0004          8.5004
  21881171.6884   -1144812.22447   -849280.60446                  21881177.6644
        24.7504         22.5004
  24293662.4774   15412397.33645   4831694.42545                  24293671.3404
        11.2504          9.0004
  21413954.5084    -739480.91348   -526996.27347                  21413960.1094
        30.5004         26.7504
 98  6 18 19 44  0.0000000  0  8G17G 5G 6G13G26G10G24G30
  22514892.3594  -12326966.18247  -9462514.18246                  22514898.8984
        22.7504         20.2504
  23111853.5784   12884079.06946  10040070.18146                  23111861.5274
        15.0004         14.2504
  21129839.0234  -14682714.64948 -11397404.85347                  21129844.1454
        31.7504         27.5004
  24972650.9534    -122070.38745    -70349.56045                  24972658.0944
         8.5004          6.2504
  24425169.0634    -982100.65445   -600350.67745                  24425179.5314
        10.0004          8.5004
  21886939.4844   -1114502.65147   -825662.76546                  21886945.5784
        25.7504         22.7504
  24300832.2584   15450074.83445   4861053.51145                  24300839.9144
        11.5004          9.5004
  21419864.6724    -708423.51248   -502795.72447                  21419870.1454
        30.5004         26.5004
 98  6 18 19 44 15.0000000  0  8G17G 5G 6G13G26G10G24G30
  22509421.1884  -12355715.53747  -9484916.24046                  22509427.7974
        22.7504         20.5004
  23121404.9924   12934272.61946  10079181.96046                  23121412.8014
        15.0004         14.2504
  21125332.6804  -14706395.17048 -11415857.19747                  21125337.6844
        31.7504         27.5004
  24971941.6884    -125795.61445    -73252.31845                  24971947.5824
         7.7504          5.7504
  24417248.6954   -1023721.00545   -632782.04945                  24417259.1174
         9.5004          8.5004
  21892730.1414   -1084072.80547   -801951.21046                  21892736.1764
        26.0004         23.2504
  24308000.5474   15487741.61246   4890404.22345                  24308007.8754
        12.0004          9.5004
  21425799.0554    -677237.65448   -478495.08347                  21425804.4104
        31.2504         26.7504
 98  6 18 19 44 30.0000000  0  8G17G 5G 6G13G26G10G24G30
  22503962.0634  -12384403.49047  -9507270.47446                  22503968.8134
        22.7504         20.2504
  23130965.8594   12984515.12246  10118331.89346                  23130972.8364
        14.5004         14.2504
  21120839.1484  -14730009.02348 -11434257.59847                  21120844.2814
        31.5004         27.5004
  24971253.9304    -129408.70545    -76067.70345                  24971260.6334
         7.7504          7.0004
  24409332.0704   -1065323.58545   -665199.59845                  24409340.6054
         9.2504          8.2504
  21898543.5784   -1053523.27547   -778146.39446                  21898549.5784
        26.0004         23.2504
  24315166.3524   15525400.34145   4919748.64145                  24315172.8914
        11.7504          9.7504
  21431758.2424    -645923.17048   -454094.21447                  21431763.5274
        31.2504         26.7504
 98  6 18 19 44 45.0000000  0  8G17G 5G 6G13G26G10G24G30
  22498514.8364  -12413026.94447  -9529574.43546                  22498521.6214
        22.0004         20.0004
  23140537.3444   13034812.39946  10157524.49746                  23140544.4844
        14.7504         14.5004
  21116358.9224  -14753551.97648 -11452602.74847                  21116363.9264
        31.7504         27.5004
  24970588.1484    -132906.10545    -78792.90845                  24970591.1604
         8.2504          7.0004
  24401418.8984   -1106904.97845   -697600.60445                  24401427.4924
         9.7504          9.0004
  21904380.2814   -1022851.39247   -754246.23846                  21904386.2814
        26.5004         23.2504
  24322332.0944   15563054.85946   4949089.80245                  24322340.1844
        13.2504          9.7504
  21437741.8594    -614478.51848   -429591.90647                  21437747.1684
        31.2504         26.5004
 98  6 18 19 45  0.0000000  0  8G17G 5G 6G13G26G10G24G30
  22493079.3674  -12441591.12247  -9551832.20546                  22493086.0004
        22.0004         20.2504
  23150118.7344   13085162.94046  10196758.61546                  23150126.6024
        15.2504         14.0004
  21111891.3204  -14777029.15948 -11470896.64747                  21111896.4534
        30.7504         27.5004
  24969944.2734    -136290.65445    -81430.18345                  24969949.4774
         8.2504          6.5004
  24393509.4924   -1148469.15945   -729988.19245                  24393516.8674
         9.7504          8.5004
  21910239.4144    -992061.48947   -730254.11746                  21910245.4614
        26.0004         23.5004
  24329496.4694   15600704.47346   4978427.13145                  24329503.6564
        12.7504          9.7504
  21443749.2504    -582909.79748   -404992.92747                  21443754.6884
        30.7504         26.7504
 98  6 18 19 45 15.0000000  0  8G17G 5G 6G13G26G10G24G30
  22487654.8054  -12470097.90947  -9574045.25346                  22487661.4384
        21.0004         20.0004
  23159710.3984   13135565.87546  10236033.55746                  23159717.9384
        14.5004         14.0004
  21107436.2734  -14800440.78848 -11489139.47147                  21107441.4884
        31.7504         27.5004
  24969322.5474    -139560.16045    -83977.89245                  24969326.6484
         8.7504          6.7504
  24385603.0634   -1190016.74245   -762362.83645                  24385612.3834
         9.7504          8.5004
  21916121.1334    -961152.93647   -706169.54746                  21916127.0394
        26.0004         23.5004
  24336660.5864   15638354.10746   5007764.51745                  24336667.1724
        12.5004          8.7504
  21449780.1564    -551217.03548   -380297.29047                  21449785.5474
        31.0004         26.7504
 98  6 18 19 45 30.0000000  0  8G17G 5G 6G13G26G10G24G30
  22482241.5394  -12498544.41247  -9596211.32846                  22482248.2774
        20.7504         20.2504
  23169312.0474   13186022.13846  10275350.05446                  23169319.9494
        14.7504         14.0004
  21102993.4144  -14823786.66448 -11507331.05247                  21102998.8984
        30.2504         27.5004
  24968723.1724    -142707.92345    -86430.68045                  24968729.5594
         9.7504          6.2504
  24377699.9774   -1231546.66145   -794723.75745                  24377710.1054
         9.5004          8.2504
  21922025.5554    -930124.47947   -681991.54546                  21922031.5204
        26.2504         23.2504
  24343826.1884   15676007.96446   5037105.11745                  24343833.2584
        13.0004          9.2504
  21455834.3984    -519400.98648   -355505.58847                  21455839.6604
        30.7504         27.0004
 98  6 18 19 45 45.0000000  0  8G17G 5G 6G13G26G10G24G30
  22476839.9224  -12526930.01747  -9618329.96146                  22476846.5784
        21.0004         20.5004
  23178923.1024   13236528.73046  10314705.77146                  23178930.8634
        15.0004         14.0004
  21098562.9224  -14847070.55048 -11525474.33647                  21098568.2774
        29.7504         27.0004
  24968147.7424    -145734.83945    -88789.25745                  24968152.2304
        10.0004          6.7504
  24369799.1024   -1273064.94545   -827075.58645                  24369809.5474
         8.7504          9.0004
  21927952.2194    -898979.44047   -657722.69146                  21927958.2544
        26.2504         23.0004
  24350991.7814   15713664.21745   5066447.63845                  24350998.6134
        11.5004          9.5004
  21461911.8134    -487465.14948   -330620.54147                  21461917.0864
        30.7504         27.0004
 98  6 18 19 46  0.0000000  0  8G17G 5G 6G13G26G10G24G30
  22471449.5474  -12555255.88647  -9640402.03746                  22471456.4534
        21.2504         20.2504
  23188543.7814   13287085.54746  10354100.63446                  23188551.5784
        15.0004         14.0004
  21094143.3134  -14870295.28748 -11543571.52547                  21094148.7274
        30.5004         27.0004
  24967593.9304    -148643.32745    -91055.57245                  24967600.3054
        10.5004          6.5004
  24361900.6954   -1314574.28345   -859420.46745                  24361912.0904
         8.2504          8.5004
  21933901.3594    -867717.30047   -633362.59246                  21933907.3954
        26.5004         23.0004
  24358158.0394   15751322.86545   5095792.02945                  24358165.5204
        11.2504          8.5004
  21468011.2424    -455412.20548   -305644.24447                  21468016.7974
        30.5004         26.5004
 98  6 18 19 46 15.0000000  0  8G17G 5G 6G13G26G10G24G30
  22466070.4844  -12583523.64647  -9662428.84046                  22466077.5664
        21.7504         20.7504
  23198174.4454   13337693.07346  10393535.00146                  23198182.6884
        15.0004         14.5004
  21089735.3134  -14893459.95748 -11561621.91247                  21089740.7624
        29.7504         27.0004
  24967063.1954    -151431.68545    -93228.34945                  24967068.3524
        10.5004          8.0004
  24354003.3204   -1356073.38045   -891757.35245                  24354013.5554
         8.2504          8.7504
  21939872.6024    -836338.75947   -608911.79746                  21939878.5664
        27.0004         23.2504
  24365325.3914   15788983.08045   5125137.63945                  24365333.2704
        11.7504          8.5004
  21474133.2974    -423241.01848   -280575.80947                  21474139.0394
        30.5004         26.5004
 98  6 18 19 46 30.0000000  0  8G17G 5G 6G13G26G10G24G30
  22460701.2344  -12611738.81947  -9684414.67246                  22460708.4344
        21.7504         20.7504
  23207813.6334   13388347.66946  10433006.02546                  23207821.5474
        15.2504         14.0004
  21085338.2034  -14916565.91448 -11579626.54747                  21085343.5124
        29.7504         27.0004
  24966556.1254    -154099.63245    -95307.25545                  24966561.9384
        11.2504          7.7504
  24346107.7894   -1397562.54645   -924086.45345                  24346116.0664
         8.0004          7.2504
  21945865.3674    -804846.13747   -584372.09846                  21945871.0634
        27.2504         23.2504
  24372490.6414   15826641.19745   5154481.61345                  24372498.8834
         9.5004          8.2504
  21480277.4774    -390952.42748   -255415.88947                  21480283.1134
        30.2504         26.2504
 98  6 18 19 46 45.0000000  0  8G17G 5G 6G13G26G10G24G30
  22455341.3754  -12639904.44647  -9706361.89146                  22455348.3984
        21.5004         20.5004
  23217461.6024   13439047.82446  10472512.58046                  23217468.7304
        15.0004         14.0004
  21080953.1804  -14939609.49048 -11597582.57747                  21080958.4064
        30.0004         26.7504
  24966071.7194    -156643.83445    -97289.67345                  24966078.2114
        11.0004          7.7504
  24338214.3364   -1439041.45145   -956407.62045                  24338223.1174
         8.2504          7.5004
  21951880.2584    -773237.13147   -559741.70646                  21951886.2234
        27.7504         23.0004
  24379656.0164   15864293.88945   5183821.27545                  24379662.7664
         9.2504          7.7504
  21486444.1024    -358546.42448   -230164.48547                  21486449.7154
        30.5004         26.5004
 98  6 18 19 47  0.0000000  0  8G17G 5G 6G13G26G10G24G30
  22449992.4774  -12668014.91447  -9728266.13246                  22449999.4064
        21.7504         20.5004
  23227119.2504   13489796.99646  10512057.31246                  23227126.4384
        14.7504         13.7504
  21076580.4224  -14962588.35148 -11615488.18047                  21076585.7544
        30.0004         27.0004
  24965612.0704    -159059.58545    -99172.08845                  24965618.8794
        11.5004          8.7504
  24330323.6334   -1480506.25945   -988717.78145                  24330333.6684
         7.7504          7.7504
  21957918.1884    -741508.65647   -535018.23046                  21957924.1524
        27.0004         22.7504
  24386819.8054   15901944.17045   5213159.16545                  24386825.8404
         9.5004          7.0004
  21492633.3834    -326021.22448   -204820.20247                  21492638.9734
        30.5004         26.2504
 98  6 18 19 47 15.0000000  0  8G17G 5G 6G13G26G10G24G30
  22444653.5944  -12696068.92047  -9750126.38346                  22444660.4264
        22.0004         20.2504
  23236784.9454   13540591.85046  10551637.64946                  23236792.8364
        14.7504         13.7504
  21072220.4844  -14985500.26348 -11633341.61147                  21072225.9694
        29.5004         26.7504
  24965176.8594    -161345.51045   -100953.32145                  24965183.1054
        10.2504          7.5004
  24322435.7034   -1521956.41245  -1021016.54645                  24322446.7234
         8.0004          8.0004
  21963978.8054    -709660.37247   -510201.39346                  21963984.7344
        27.2504         22.7504
  24393984.5084   15939591.53645   5242494.71945                  24393992.9494
        10.5004          7.2504
  21498845.9924    -293375.08948   -179381.67847                  21498851.3714
        30.5004         26.5004
 98  6 18 19 47 30.0000000  0  8G17G 5G 6G13G26G10G24G30
  22439326.4694  -12724062.83147  -9771939.79446                  22439333.3754
        22.2504         20.2504
  23246460.0704   13591434.45846  10591255.20146                  23246468.1024
        14.7504         14.0004
  21067873.8524  -15008343.00448 -11651141.15047                  21067879.3134
        30.7504         26.7504
  24964766.4384    -163502.33545   -102633.97545                  24964770.9494
         9.5004          8.0004
  24314552.6254   -1563389.89145  -1053302.27945                  24314562.4964
         8.7504          8.0004
  21970061.9384    -677692.66847   -485291.50246                  21970067.6214
        27.0004         22.5004
  24401147.4844   15977234.26145   5271826.67945                  24401154.8364
         9.7504          7.2504
  21505081.2504    -260608.57248   -153849.35047                  21505086.6054
        30.7504         26.2504
 98  6 18 19 47 45.0000000  0  8G17G 5G 6G13G26G10G24G30
  22434010.6564  -12751998.79947  -9793708.06046                  22434017.1954
        22.2504         19.7504
  23256143.4694   13642322.52046  10630908.16246                  23256151.3484
        15.0004         13.5004
  21063539.6724  -15031118.98248 -11668888.66247                  21063544.9454
        30.2504         27.0004
  24964380.0554    -165532.42445   -104215.87845                  24964386.8284
         9.2504          7.7504
  24306670.2664   -1604807.61245  -1085575.78945                  24306680.6524
         9.2504          8.0004
  21976167.1884    -645607.63947   -460290.18946                  21976173.0594
        26.7504         22.7504
  24408307.8204   16014865.95845   5301150.10345                  24408316.2504
         8.0004          7.2504
  21511339.0864    -227723.54748   -128224.67647                  21511344.5354
        31.2504         26.2504
 98  6 18 19 48  0.0000000  0  8G17G 5G 6G13G26G10G24G30
  22428705.2894  -12779878.11247  -9815432.18546                  22428711.8524
        22.5004         20.5004
  23265835.9924   13693257.04246  10670597.33746                  23265843.2274
        15.2504         13.5004
  21059218.7734  -15053825.22648 -11686581.84147                  21059223.8594
        30.7504         27.0004
  24964016.9774    -167438.06945   -105700.79145                  24964020.8094
         8.7504          7.7504
  24298792.4924   -1646206.91445  -1117834.88445                  24298802.0354
         9.5004          8.7504
  21982295.8364    -613402.90047   -435195.60046                  21982301.5434
        27.7504         22.7504
  24415467.4614   16052486.23945   5330464.45045                  24415476.6174
         9.0004          5.2504
  21517619.9304    -194717.78248   -102505.92947                  21517625.1914
        31.7504         26.5004
 98  6 18 19 48 15.0000000  0  8G17G 5G 6G13G26G10G24G30
  22423410.5004  -12807702.77847  -9837113.72046                  22423416.7814
        23.0004         20.5004
  23275537.4224   13744236.88146  10710321.80146                  23275544.8914
        15.0004         13.5004
  21054911.1334  -15076462.30148 -11704221.12047                  21054916.1724
        31.2504         27.0004
  24963678.8444    -169218.70345   -107088.28345                  24963684.6214
         9.0004          7.7504
  24290919.0634   -1687583.46845  -1150076.28445                  24290927.8674
        10.0004          9.2504
  21988446.7274    -581080.72947   -410009.50146                  21988452.3284
        27.0004         22.7504
  24422624.3524   16090093.51145   5359768.88945                  24422629.3444
         9.2504          5.2504
  21523923.8754    -161591.29448    -76693.10447                  21523928.9844
        32.5004         27.0004
 98  6 18 19 48 30.0000000  0  8G17G 5G 6G13G26G10G24G30
  22418126.8364  -12835469.86347  -9858750.37946                  22418133.0234
        23.5004         20.7504
  23285246.9924   13795259.48846  10750079.61446                  23285254.4734
        15.2504         13.2504
  21050616.4224  -15099031.43248 -11721807.45647                  21050621.3554
        31.5004         27.0004
  24963363.3594    -170873.32245   -108377.58545                  24963370.1094
        10.2504          8.2504
  24283049.6094   -1728935.59445  -1182298.60745                  24283059.0354
         9.5004          9.2504
  21994619.3754    -548642.67247   -384733.10146                  21994625.1994
        27.0004         22.5004
  24429777.9384   16127688.34745   5389063.53245                  24429784.3834
         8.5004          5.2504
  21530250.5314    -128344.58448    -50786.60247                  21530255.5824
        32.0004         26.7504
 98  6 18 19 48 45.0000000  0  8G17G 5G 6G13G26G10G24G30
  22412854.1414  -12863176.72247  -9880340.11046                  22412860.2464
        23.5004         20.7504
  23294963.6564   13846321.75246  10789868.31446                  23294971.0434
        14.7504         13.0004
  21046334.1174  -15121534.20448 -11739342.08147                  21046339.1334
        31.0004         27.2504
  24963073.4304    -172400.37045   -109567.51545                  24963079.2194
        10.5004          7.5004
  24275185.1334   -1770264.57045  -1214502.92945                  24275194.9344
         9.5004          9.0004
  22000813.9064    -516090.39747   -359367.70446                  22000819.7894
        26.7504         22.5004
  24436930.8204   16165272.39845   5418349.74345                  24436939.0164
         8.7504          5.5004
  21536599.7974     -94979.56948    -24787.90947                  21536605.0354
        31.5004         26.5004
 98  6 18 19 49  0.0000000  0  8G17G 5G 6G13G26G10G24G30
  22407593.7584  -12890820.26647  -9901880.51446                  22407600.2384
        23.0004         21.0004
  23304687.6484   13897421.39846  10829686.16546                  23304695.3634
        14.7504         13.0004
  21042063.9614  -15143973.57348 -11756827.30847                  21042068.8954
        31.5004         27.2504
  24962807.0474    -173801.09945   -110658.92845                  24962814.1764
        10.5004          7.0004
  24267324.1884   -1811573.47945  -1246691.57645                  24267332.8404
         9.7504          9.5004
  22007029.4924    -483427.02847   -333915.74746                  22007035.3054
        27.0004         22.5004
  24444080.5234   16202847.59845   5447629.11045                  24444084.7074
         9.5004          5.5004
  21542971.0944     -61497.13048      1302.27747                  21542976.4844
        31.2504         26.5004
 98  6 18 19 49 15.0000000  0  8G17G 5G 6G13G26G10G24G30
  22402345.1334  -12918401.38247  -9923372.26946                  22402351.9184
        22.5004         20.7504
  23314418.2894   13948556.46646  10869531.59146                  23314426.8364
        14.5004         13.0004
  21037805.3444  -15166353.98848 -11774266.59047                  21037810.0434
        31.0004         27.2504
  24962563.1254    -175078.98945   -111654.75745                  24962566.3244
         9.2504          6.5004
  24259465.8444   -1852865.90345  -1278867.39945                  24259475.7854
        10.0004          8.7504
  22013265.5864    -450656.92647   -308380.60346                  22013271.3754
        27.2504         22.7504
  24451229.2974   16240414.17345   5476901.76345                  24451236.5434
         9.2504          7.0004
  21549364.3524     -27899.76148     27482.02147                  21549369.7894
        31.2504         26.5004
 98  6 18 19 49 30.0000000  0  8G17G 5G 6G13G26G10G24G30
  22397109.0554  -12945917.08747  -9944813.06346                  22397115.1604
        23.0004         20.5004
  23324156.8524   13999732.26746  10909408.77746                  23324165.1294
        14.5004         13.2504
  21033558.9224  -15188668.30848 -11791654.37047                  21033563.8324
        30.7504         27.0004
  24962344.7034    -176230.14645   -112551.71145                  24962350.2584
         9.0004          6.7504
  24251612.2584   -1894137.22645  -1311026.80245                  24251621.9534
        10.0004          8.7504
  22019523.0084    -417772.98147   -282756.75646                  22019528.6454
        27.2504         22.5004
  24458377.0164   16277975.41245   5506170.23545                  24458384.9064
         9.0004          6.7504
  21555780.7034       5817.34648     53755.06947                  21555785.8014
        31.2504         26.5004
 98  6 18 19 49 45.0000000  0  8G17G 5G 6G13G26G10G24G30
  22391885.2664  -12973369.30847  -9966204.37546                  22391891.2544
        23.7504         20.7504
  23333903.1414   14050950.10046  10949318.70346                  23333910.3524
        14.2504         13.0004
  21029325.5554  -15210915.41048 -11808989.76547                  21029330.3714
        31.2504         27.0004
  24962149.7504    -177254.39345   -113349.77545                  24962155.5394
         8.2504          7.0004
  24243762.7114   -1935386.36645  -1343168.88645                  24243772.8634
        10.0004          9.2504
  22025802.3754    -384775.18847   -257044.19746                  22025808.2234
        27.0004         22.5004
  24465523.3204   16315532.77645   5535435.66745                  24465531.2814
         8.2504          6.2504
  21562219.1334      39651.66148     80119.44347                  21562224.2424
        31.5004         26.5004
 98  6 18 19 50  0.0000000  0  9G17G 5G 6G13G26G10G23G24G30
  22386672.6414  -13000763.09047  -9987550.15346                  22386678.8634
        24.2504         20.7504
  23343656.6804   14102204.53346  10989257.14646                  23343663.5234
        14.0004         12.5004
  21025104.0314  -15233098.76248 -11826275.50047                  21025109.0124
        30.2504         27.2504
  24961978.4064    -178154.18345   -114050.92445                  24961984.7584
         8.5004          7.2504
  24235917.8754   -1976615.49345  -1375295.37545                  24235927.6294
        10.0004          8.7504
  22032102.5084    -351667.60047   -231246.08146                  22032108.5204
        26.2504         22.5004
  24753025.5864
         2.63355         7.7504
  24472669.3754   16353084.27645   5564696.55645                  24472675.1994
         8.2504          6.5004
  21568679.4224      73600.62748    106573.15947                  21568684.9414
        30.5004         26.2504
 98  6 18 19 50 15.0000000  0  9G17G 5G 6G13G26G10G23G24G30
  22381470.5554  -13028097.79047 -10008849.89346                  22381476.7304
        24.2504         20.7504
  23353417.3204   14153496.93346  11029225.16946                  23353423.4494
        14.5004         12.7504
  21020895.4534  -15255215.64648 -11843509.43047                  21020900.6454
        31.7504         27.2504
  24961830.6644    -178928.41445   -114654.16545                  24961837.6994
         8.7504          7.0004
  24228075.6334   -2017823.73345  -1407405.65545                  24228085.7274
        10.5004          9.7504
  22038423.5314    -318450.76347   -205362.83846                  22038429.4734
        26.7504         22.2504
  24742948.4454     -52948.40945
                         8.0004
  24479813.9694   16390631.43545   5593954.06945                  24479820.3914
         8.2504          6.5004
  21575161.3364     107663.26748    133115.44947                  21575166.8204
        30.7504         26.5004
 98  6 18 19 50 30.0000000  0  9G17G 5G 6G13G26G10G23G24G30
  22376280.3754  -13055373.75047 -10030103.86246                  22376286.6334
        23.7504         20.7504
  23363184.7974   14204824.77346  11069220.80546                  23363191.1954
        13.7504         12.7504
  21016699.0234  -15277267.78048 -11860692.91047                  21016704.0744
        30.5004         27.5004
  24961707.2344    -179577.86645   -115160.26545                  24961713.5744
         8.2504          7.0004
  24220236.8364   -2059014.87445  -1439502.57645                  24220245.5474
        10.2504          9.5004
  22044764.9774    -285125.23147   -179394.90046                  22044770.9184
        26.2504         22.0004
  24732878.0634    -105869.95045
                         8.0004
  24486958.0474   16428171.21145   5623205.80345                  24486966.7114
         8.2504          7.5004
  21581664.4694     141836.85048    159744.19147                  21581669.6844
        31.7504         26.2504
 98  6 18 19 50 45.0000000  0  9G17G 5G 6G13G26G10G23G24G30
  22371101.4064  -13082588.57747 -10051310.20146                  22371107.5704
        23.7504         20.7504
  23372959.6334   14256191.47446  11109246.75446                  23372966.7274
        13.5004         12.7504
  21012516.2274  -15299249.76448 -11877821.72547                  21012521.4064
        31.2504         27.5004
  24961607.8594    -180100.89945   -115567.85245                  24961613.1334
         7.5004          7.2504
  24212401.4064   -2100187.46445  -1471585.01745                  24212410.7274
         9.2504          8.5004
  22051128.0474    -251686.28447   -153338.58446                  22051133.7304
        26.2504         22.0004
  24722813.5004    -158758.90245
                         7.7504
  24494100.0784   16465705.40645   5652453.21145                  24494108.4734
         8.5004          8.0004
  21588188.8204     176122.43348    186460.20847                  21588193.8134
        31.7504         26.2504
 98  6 18 19 51  0.0000000  0  9G17G 5G 6G13G26G10G23G24G30
  22365933.5554  -13109745.78547 -10072471.62046                  22365939.9064
        22.7504         20.7504
  23382742.3364   14307597.50646  11149303.32646                  23382749.8984
        14.0004         12.7504
  21008346.8204  -15321159.76248 -11894894.44547                  21008351.7774
        31.7504         27.7504
  24961531.2974    -180501.20945   -115879.76445                  24961537.4844
         8.5004          7.2504
  24204570.2894   -2141342.88845  -1503654.10145                  24204581.4264
         8.7504          8.2504
  22057512.9064    -218134.07647   -127194.01746                  22057518.7544
        26.0004         21.7504
  24712753.7034    -211621.10545     -8233.75455                  24712763.8914
         8.5004          8.0004
  24501241.7734   16503231.19345   5681694.03145                  24501250.4264
         8.2504          7.5004
  21594734.1414     210518.81348    213262.55347                  21594739.2974
        31.2504         26.2504
 98  6 18 19 51 15.0000000  0  9G17G 5G 6G13G26G10G23G24G30
  22360776.8914  -13136844.27147 -10093587.29146                  22360782.8554
        22.7504         20.7504
  23392532.9144   14359048.35446  11189394.80946                  23392541.1564
        13.7504         12.7504
  21004192.3984  -15342992.15748 -11911906.69847                  21004197.3094
        31.7504         27.7504
  24961478.9454    -180778.03045   -116095.48545                  24961484.5824
         9.2504          7.2504
  24196743.2034   -2182474.66445  -1535704.79845                  24196752.4414
         9.0004          8.2504
  22063920.2034    -184464.41547   -100957.92346                  22063926.0634
        26.2504         22.0004
  24702699.6564    -264455.83845    -49403.60245                  24702710.2544
         8.2504          8.0004
  24508381.7894   16540749.97245   5710929.42645                  24508386.9224
         9.5004          7.5004
  21601300.8444     245026.96948    240152.00847                  21601306.4104
        30.7504         26.0004
 98  6 18 19 51 30.0000000  0  9G17G 5G 6G13G26G10G23G24G30
  22355630.8984  -13163886.81847 -10114659.37446                  22355636.9804
        23.7504         21.0004
  23402332.4064   14410545.48546  11229522.36946                  23402340.4144
        14.0004         12.7504
  21000053.3134  -15364742.22848 -11928854.80047                  21000058.2464
        31.7504         27.5004
  24961450.3134    -180930.28645   -116214.07945                  24961456.0664
        10.5004          7.2504
  24188920.8284   -2223578.90945  -1567733.96545                  24188929.9964
         9.7504          8.2504
  22070350.0554    -150676.08047    -74629.35546                  22070355.7734
        25.7504         21.7504
  24692651.1804    -317263.58845    -90552.42845                  24692659.9734
         8.7504          8.0004
  24515519.0784   16578259.87345   5740157.89545                  24515526.4304
         9.7504          8.0004
  21607889.1724     279648.34648    267129.67947                  21607894.7384
        30.5004         26.0004
 98  6 18 19 51 45.0000000  0  9G17G 5G 6G13G26G10G23G24G30
  22350495.5314  -13190874.09047 -10135688.39146                  22350501.3914
        24.5004         21.0004
  23412140.5864   14462086.32246  11269683.99646                  23412148.5004
        14.5004         13.2504
  20995929.5314  -15386411.69848 -11945740.09847                  20995934.7584
        31.5004         27.7504
  24961444.5864    -180959.69245   -116236.99145                  24961452.0314
         9.2504          7.7504
  24181104.1254   -2264654.02645  -1599740.46845                  24181112.6954
         9.0004          8.7504
  22076801.2034    -116774.24047    -48212.34746                  22076807.0044
        25.2504         21.7504
  24682606.7114    -370046.80145   -131682.17045                  24682615.9144
         8.7504          8.5004
  24522655.0474   16615758.55145   5769377.60645                  24522663.9804
         8.7504          8.0004
  21614498.3834     314380.26948    294193.49447                  21614503.7734
        30.5004         26.2504
 98  6 18 19 52  0.0000000  0  9G17G 5G 6G13G26G10G23G24G30
  22345371.0394  -13217802.86947 -10156671.83546                  22345376.9924
        24.5004         21.2504
  23421955.8364   14513667.11146  11309876.73446                  23421963.7734
        14.2504         12.5004
  20991820.9694  -15408002.65048 -11962564.21947                  20991826.2194
        30.5004         27.5004
  24961462.0084    -180864.07345   -116162.48245                  24961469.5474
         9.0004          7.0004
  24173294.8754   -2305697.58445  -1631722.37845                  24173303.1764
         9.0004          8.2504
  22083273.3364     -82761.98547    -21709.29546                  22083279.3364
        25.2504         21.5004
  24672567.5474    -422804.26145   -172791.80045                  24672577.3244
         8.7504          8.2504
  24529789.1174   16653246.45445   5798588.92445                  24529795.4694
         8.7504          7.5004
  21621128.7504     349222.88348    321343.55947                  21621134.0824
        30.7504         26.2504
 98  6 18 19 52 15.0000000  0  9G17G 5G 6G13G26G10G23G24G30
  22340257.6954  -13244671.30747 -10177608.24446                  22340263.7544
        23.7504         21.0004
  23431779.3834   14565288.35746  11350101.02046                  23431787.4964
        14.2504         12.7504
  20987727.2194  -15429515.04948 -11979327.12747                  20987732.6214
        30.5004         27.5004
  24961504.4304    -180643.89345   -115990.96545                  24961510.3484
         9.2504          5.7504
  24165490.7194   -2346706.69645  -1663677.48445                  24165501.6914
         9.5004          9.0004
  22089767.4844     -48637.23247      4881.41746                  22089773.4264
        25.5004         22.2504
  24662533.1884    -475535.03845   -213880.63045                  24662542.3094
         9.7504          9.0004
  24536920.4694   16690725.29645   5827793.12045                  24536928.7814
         9.2504          7.7504
  21627780.7344     384178.99548    348582.06447                  21627786.1254
        30.5004         26.2504
 98  6 18 19 52 30.0000000  0  9G17G 5G 6G13G26G10G23G24G30
  22335155.6724  -13271483.18847 -10198500.58246                  22335161.7074
        23.5004         20.7504
  23441609.2504   14616946.46346  11390354.00146                  23441617.2814
        14.7504         12.7504
  20983647.3524  -15450954.59448 -11996033.26447                  20983652.7304
        30.5004         27.2504
  24961569.3054    -180302.97545   -115725.32845                  24961574.3204
         9.7504          7.2504
  24157692.6254   -2387684.30245  -1695607.99045                  24157701.8164
         9.2504          9.2504
  22096282.0474     -14402.75647     31557.61946                  22096288.0704
        26.0004         22.2504
  24652503.4384    -528241.28945   -254950.36145                  24652513.0274
         9.0004          8.7504
  24544050.9614   16728191.97745   5856987.90645                  24544060.0004
        11.0004          7.7504
  21634453.3674     419243.99048    375905.42447                  21634458.9574
        30.7504         26.0004
 98  6 18 19 52 45.0000000  0  9G17G 5G 6G13G26G10G23G24G30
  22330064.6724  -13298236.77047 -10219347.50146                  22330070.6954
        24.2504         20.7504
  23451446.6024   14668640.89446  11430635.29646                  23451453.7424
        14.5004         12.5004
  20979581.0314  -15472324.12548 -12012684.84547                  20979586.2704
        30.5004         27.2504
  24961657.5394    -179840.39745   -115364.86045                  24961662.5314
        11.0004          7.0004
  24149901.3674   -2428627.76545  -1727511.89145                  24149910.0314
         9.2504          8.7504
  22102817.0944      19940.49647     58318.58846                  22102823.1054
        26.0004         22.2504
  24642478.5394    -580919.52445   -295998.25145                  24642488.2814
         8.0004          8.5004
  24551179.6174   16765650.71445   5886176.50645                  24551186.9924
        11.7504          8.2504
  21641147.0394     454418.91848    403314.43147                  21641152.4774
        31.2504         26.2504
 98  6 18 19 53  0.0000000  0  9G17G 5G 6G13G26G10G23G24G30
  22324984.4844  -13324933.23047 -10240149.91346                  22324990.7894
        23.5004         21.0004
  23461290.2894   14720369.07446  11470942.87446                  23461297.7344
        15.2504         12.5004
  20975527.7034  -15493624.58848 -12029282.60647                  20975532.8134
        31.7504         27.5004
  24961768.3204    -179256.51645   -114909.91945                  24961771.9654
        11.0004          7.2504
  24142116.4534   -2469536.97345  -1759389.12845                  24142124.9884
         9.5004          8.2504
  22109372.0784      54387.65447     85160.52146                  22109378.0204
        25.5004         22.0004
  24632459.6644    -633571.01945   -337025.27945                  24632469.8164
         8.2504          8.0004
  24558305.8754   16803101.40545   5915358.85945                  24558313.2624
        11.7504          8.7504
  21647861.3984     489702.77248    430808.31647                  21647866.6374
        31.5004         26.5004
 98  6 18 19 53 15.0000000  0  9G17G 5G 6G13G26G10G23G24G30
  22319915.1334  -13351572.13547 -10260907.48846                  22319921.3914
        23.5004         21.2504
  23471140.3134   14772130.41746  11511276.32346                  23471147.8754
        14.5004         12.5004
  20971487.5084  -15514856.25548 -12045826.76447                  20971492.5354
        30.7504         27.5004
  24961903.2034    -178549.20445   -114358.77645                  24961909.6484
        11.7504          7.5004
  24134337.8594   -2510412.83145  -1791240.39045                  24134345.7504
         9.2504          8.7504
  22115946.6484      88937.06247    112082.12546                  22115952.7664
        25.2504         22.2504
  24622445.0944    -686194.61645   -378030.62145                  24622455.2234
         8.0004          8.0004
  24565431.2974   16840547.32045   5944537.44945                  24565437.2274
        11.0004          8.0004
  21654596.6254     525097.90248    458388.91647                  21654601.7114
        30.7504         26.2504
 98  6 18 19 53 30.0000000  0  9G17G 5G 6G13G26G10G23G24G30
  22314856.2814  -13378156.41847 -10281622.49046                  22314862.5274
        24.2504         21.5004
  23480995.9144   14823921.28146  11551632.76146                  23481003.5354
        14.0004         12.5004
  20967459.4694  -15536024.10748 -12062321.18847                  20967464.5204
        31.7504         27.7504
  24962061.2344    -177717.25945   -113710.51045                  24962066.1804
        10.7504          7.5004
  24126565.2194   -2551258.50145  -1823068.05245                  24126575.7464
         9.2504          8.5004
  22122539.7504     123582.89647    139078.87446                  22122545.8554
        25.0004         22.2504
  24612436.9774    -738791.03745   -419014.77545                  24612445.3714
         8.2504          7.7504
  24572555.7734   16877985.58245   5973710.09845                  24572563.5824
        11.2504          9.0004
  21661352.9454     560602.16148    486054.54347                  21661358.2774
        30.2504         26.2504
 98  6 18 19 53 45.0000000  0  9G17G 5G 6G13G26G10G23G24G30
  22309807.6334  -13404686.01247 -10302294.87046                  22309813.8444
        24.0004         21.2504
  23490856.1724   14875737.53546  11592008.99546                  23490864.3204
        13.7504         12.7504
  20963442.5474  -15557132.87148 -12078769.57547                  20963447.6684
        31.7504         27.7504
  24962243.6334    -176760.72245   -112965.18445                  24962250.0664
        11.0004          8.2504
  24118798.0084   -2592077.45045  -1854874.94145                  24118808.5004
         9.2504          8.5004
  22129150.1884     158322.25347    166148.49146                  22129156.1994
        25.5004         22.0004
  24602432.5554    -791360.81645   -459978.14645                  24602443.8444
         8.7504          8.7504
  24579678.5704   16915415.96845   6002876.57045                  24579686.9064
        11.5004          9.2504
  21668129.8204     596214.17048    513804.13947                  21668135.3054
        30.7504         26.2504
 98  6 18 19 54  0.0000000  0  9G17G 5G 6G13G26G10G23G24G30
  22304768.8984  -13431165.13147 -10322927.92446                  22304775.1684
        23.5004         21.2504
  23500720.2814   14927573.80546  11632400.81146                  23500728.5474
        13.7504         12.2504
  20959435.6334  -15578190.04848 -12095177.76347                  20959440.6844
        31.5004         27.7504
  24962448.8594    -175683.50045   -112125.80845                  24962454.3554
        11.2504          8.2504
  24111034.1484   -2632876.86045  -1886666.63345                  24111043.4454
        10.0004          9.5004
  22135778.0394     193152.01847    193288.56146                  22135783.9104
        25.2504         21.7504
  24592433.9614    -843905.82445   -500922.22045                  24592443.7974
         8.5004          7.7504
  24586798.9224   16952834.44845   6032033.78545                  24586806.9884
        10.7504          8.2504
  21674926.0474     631929.22748    541634.03747                  21674931.3094
        30.7504         26.2504
 98  6 18 19 54 15.0000000  0  9G17G 5G 6G13G26G10G23G24G30
  22299740.9774  -13457589.50547 -10343518.32446                  22299747.2344
        23.2504         21.5004
  23510589.5394   14979437.66246  11672814.14445                  23510598.2504
        14.0004         11.7504
  20955439.9064  -15599187.60148 -12111539.48947                  20955445.0744
        31.7504         28.0004
  24962677.6564    -174478.25245   -111186.59145                  24962683.3524
        10.5004          8.2504
  24103274.2344   -2673652.78945  -1918439.97345                  24103284.9964
        11.0004         10.0004
  22142425.2584     228082.67047    220507.24846                  22142431.2704
        25.5004         22.2504
  24582441.4694    -896416.53545   -541839.62645                  24582450.7424
         9.2504          8.7504
  24593919.0944   16990249.32345   6061188.23845                  24593928.4734
        10.2504          8.2504
  21681744.0164     667757.22248    569551.93547                  21681749.5234
        30.5004         26.2504
 98  6 18 19 54 30.0000000  0  9G17G 5G 6G13G26G10G23G24G30
  22294722.7814  -13483958.83347 -10364065.84546                  22294729.3674
        23.0004         21.2504
  23520465.0474   15031333.44246  11713252.32145                  23520472.5164
        13.5004         11.7504
  20951455.8284  -15620122.91148 -12127852.72247                  20951460.8094
        31.2504         27.5004
  24962931.7344    -173143.64745   -110146.69945                  24962938.2274
         9.5004          7.7504
  24095519.0004   -2714406.94445  -1950196.36245                  24095528.1564
        11.0004          9.5004
  22149091.9454     263115.48147    247805.52746                  22149098.0044
        25.5004         22.2504
  24572455.1564    -948893.84545   -582730.95945                  24572464.4884
         8.7504          8.0004
  24601038.4144   17027661.67945   6090340.69545                  24601045.9064
         9.7504          8.2504
  21688583.5004     703699.08348    597558.56147                  21688588.9734
        30.5004         26.0004
 98  6 18 19 54 45.0000000  0  9G17G 5G 6G13G26G10G23G24G30
  22289715.6334  -13510271.98647 -10384569.60046                  22289721.5634
        23.2504         21.5004
  23530346.5634   15083262.35746  11753716.33846                  23530354.0084
        13.2504         12.0004
  20947484.6564  -15640991.96048 -12144114.30947                  20947489.7894
        30.7504         27.5004
  24963211.6024    -171676.02545   -109003.08445                  24963218.5554
         9.2504          7.7504
  24087767.8594   -2755140.30045  -1981936.55645                  24087778.6914
        10.7504         10.0004
  22155777.8134     298249.62347    275182.77246                  22155783.7894
        26.2504         22.2504
  24562474.9304   -1001337.86645   -623596.36745                  24562486.4534
         8.2504          8.0004
  24608156.6024   17065071.65745   6119491.34045                  24608162.3324
         9.7504          7.7504
  21695444.7114     739755.36848    625654.34647                  21695450.1844
        30.0004         26.0004
 98  6 18 19 55  0.0000000  0  9G17G 5G 6G13G26G10G23G24G30
  22284718.5084  -13536531.75647 -10405031.74346                  22284724.6844
        24.5004         21.7504
  23540234.5004   15135221.78746  11794204.10045                  23540242.0164
        13.2504         11.5004
  20943526.8134  -15661790.38348 -12160320.87147                  20943532.0394
        30.7504         27.5004
  24963515.8594    -170076.11245   -107756.44445                  24963523.8794
         9.5004          8.2504
  24080019.4694   -2795854.36445  -2013661.73345                  24080029.2934
         9.7504         10.0004
  22162482.6644     333484.11047    302638.21246                  22162488.5474
        25.5004         21.7504
  24552501.6024   -1053751.12445   -664437.75045                  24552511.6254
         8.2504          8.2504
  24615274.7344   17102474.66045   6148636.53045                  24615283.0594
        10.0004          8.2504
  21702327.3524     775923.78848    653837.50447                  21702332.8834
        30.0004         26.0004
 98  6 18 19 55 15.0000000  0  9G17G 5G 6G13G26G10G23G24G30
  22279731.5704  -13562740.45347 -10425454.07346                  22279737.5944
        24.7504         21.7504
  23550128.4144   15187212.57846  11834716.36345                  23550135.2464
        13.2504         11.7504
  20939582.9064  -15682515.52848 -12176470.32947                  20939588.2504
        30.2504         27.2504
  24963844.0164    -168347.23445   -106409.26445                  24963850.8874
         7.7504          6.5004
  24072276.1254   -2836551.63645  -2045373.79945                  24072286.1724
        10.7504         10.2504
  22169206.9924     368821.21647    330173.61546                  22169213.0984
        25.0004         21.5004
  24542532.6254   -1106134.27545   -705255.71745                  24542543.7504
         7.5004          7.7504
  24622390.7734   17139868.37745   6177774.41745                  24622397.1374
        10.0004          8.5004
  21709231.1884     812203.31848    682107.24747                  21709236.9654
        29.5004         25.7504
 98  6 18 19 55 30.0000000  0  9G17G 5G 6G13G26G10G23G24G30
  22274755.0314  -13588890.43947 -10445830.65946                  22274760.9144
        24.7504         22.0004
  23560028.8834   15239240.55646  11875257.58246                  23560036.1764
        12.7504         12.0004
  20935653.7814  -15703162.84648 -12192559.14747                  20935658.9964
        30.2504         27.2504
  24964198.0944    -166485.45345   -104958.49845                  24964203.6484
         7.7504          7.5004
  24064535.5234   -2877223.89545  -2077066.40145                  24064546.0164
        11.0004         10.2504
  22175952.8524     404269.89847    357795.94646                  22175958.8634
        24.2504         21.5004
  24532573.1884   -1158476.92445   -746042.14145                  24532580.6804
         7.7504          7.7504
  24629505.0164   17177258.09545   6206909.24945                  24629511.7074
         8.7504          7.2504
  21716156.9694     848597.98448    710466.70047                  21716162.6884
        29.7504         25.7504
 98  6 18 19 55 45.0000000  0  9G17G 5G 6G13G26G10G23G24G30
  22269790.0554  -13614981.57447 -10466161.38446                  22269796.0554
        24.2504         21.7504
  23569936.3284   15291305.00946  11915827.20645                  23569944.9224
        12.5004         11.7504
  20931739.4924  -15723732.36848 -12208587.34347                  20931744.6844
        30.0004         27.0004
  24964577.0004    -164494.64845   -103407.15745                  24964585.2424
         7.7504          7.0004
  24056801.3364   -2917869.38545  -2108738.11545                  24056809.5434
        10.7504          9.7504
  22182719.5394     439830.39447    385505.41246                  22182725.5394
        24.2504         21.2504
  24522620.6884   -1210777.43545   -786795.69345                  24522628.7544
         8.2504          7.2504
  24636619.4144   17214640.82345   6236038.59145                  24636627.5514
         9.7504          7.2504
  21723104.1954     885105.72148    738914.26647                  21723110.0554
        30.2504         25.7504
 98  6 18 19 56  0.0000000  0  9G17G 5G 6G13G26G10G23G24G30
  22264836.9534  -13641010.67347 -10486443.78346                  22264843.0944
        24.5004         22.0004
  23579851.4224   15343408.18346  11956427.00546                  23579858.9734
        13.0004         12.2504
  20927841.2974  -15744218.83048 -12224550.81747                  20927846.4414
        30.2504         27.0004
  24964980.9384    -162376.17845   -101756.45745                  24964985.5434
         8.2504          5.7504
  24049071.8444   -2958485.81245  -2140387.18145                  24049080.7194
        10.5004         10.2504
  22189508.7584     475507.23547    413305.53846                  22189514.9694
        23.5004         20.7504
  24512676.1414   -1263035.55845   -827516.18145                  24512683.4804
         9.0004          7.7504
  24643733.1024   17252018.95645   6265164.40345                  24643739.6764
        10.5004          7.5004
  21730073.2974     921728.57848    767451.53347                  21730078.9454
        30.2504         26.0004
 98  6 18 19 56 15.0000000  0  9G17G 5G 6G13G26G10G23G24G30
  22259894.7584  -13666979.79447 -10506679.43246                  22259900.9574
        23.7504         22.0004
  23589773.7504   15395549.74046  11997056.71146                  23589782.8364
        13.5004         12.0004
  20923959.0234  -15764619.68148 -12240447.57747                  20923964.0744
        31.0004         27.2504
  24965407.0314    -160132.62245   -100008.16545                  24965414.4534
         8.0004          6.0004
  24041348.5704   -2999071.81245  -2172012.55145                  24041357.6334
        10.5004          9.7504
  22196320.1094     511300.65047    441196.49246                  22196326.0984
        23.0004         20.7504
  24502739.0084   -1315255.87045   -868207.27445                  24502747.6374
         9.7504          8.2504
  24650844.4774   17289389.86645   6294284.58045                  24650852.7424
         8.7504          6.7504
  21737063.7424     958463.13648    796075.84647                  21737069.3094
        30.2504         25.7504
 98  6 18 19 56 30.0000000  0  9G17G 5G 6G13G26G10G23G24G30
  22254964.5864  -13692888.80847 -10526868.25046                  22254970.7734
        23.5004         22.2504
  23599703.1414   15447728.45446  12037715.38045                  23599712.2734
        13.2504         11.7504
  20920093.7194  -15784932.00448 -12256275.36547                  20920098.5704
        31.0004         27.5004
  24965857.8674    -157765.74245    -98163.80045                  24965864.9964
         8.7504          5.7504
  24033631.9694   -3039624.04345  -2203611.65345                  24033640.9264
        10.5004          9.5004
  22203153.1094     547207.53047    469175.86046                  22203159.0634
        24.0004         21.0004
  24492807.1954   -1367443.75045   -908873.07945                  24492815.8134
         9.5004          8.5004
  24657952.4924   17326754.75444   6323400.02145                  24657960.4414
         6.7504          7.0004
  21744074.3984     995305.25648    824783.96547                  21744080.0474
        30.0004         25.7504
 98  6 18 19 56 45.0000000  0  9G17G 5G 6G13G26G10G23G24G30
  22250045.3914  -13718739.39347 -10547011.54046                  22250051.4734
        23.5004         22.0004
  23609638.6884   15499939.91546  12078399.54745                  23609647.2814
        12.7504         11.5004
  20916244.8204  -15805159.02648 -12272036.66847                  20916249.8244
        31.2504         27.5004
  24966331.2194    -155280.60045    -96227.38045                  24966339.4144
         9.0004          6.7504
  24025921.1954   -3080143.73645  -2235185.35545                  24025930.8914
        11.2504         10.2504
  22210006.3834     583223.34647    497240.12646                  22210012.5594
        24.5004         21.2504
  24482881.6644   -1419602.48245   -949516.12645                  24482892.0514
         9.2504          9.0004
  24665062.2734   17364107.55245   6352506.03245                  24665069.7544
         8.2504          6.7504
  21751104.6484    1032249.82348    853571.91347                  21751110.4264
        29.7504         25.7504
 98  6 18 19 57  0.0000000  0  9G17G 5G 6G13G26G10G23G24G30
  22245137.6564  -13744530.65647 -10567108.59846                  22245144.1134
        23.5004         21.7504
  23619579.6094   15552182.71745  12119108.14345                  23619587.0084
        11.5004         11.5004
  20912412.0944  -15825299.61348 -12287730.63547                  20912417.1564
        31.5004         27.7504
  24966826.0234    -152677.83645    -94199.23645                  24966833.5044
        10.5004          6.7504
  24018217.4534   -3120628.87945  -2266732.13045                  24018226.6804
        10.7504          9.7504
  22216881.3674     619350.37747    525391.04846                  22216887.2154
        25.5004         21.2504
  24472962.1094   -1471727.41045   -990132.86245                  24472970.9844
         9.2504          8.5004
  24672167.6414   17401449.41045   6381603.51645                  24672174.9454
         9.0004          7.5004
  21758154.6954    1069297.79148    882440.43646                  21758160.1094
        30.0004         25.5004
 98  6 18 19 57 15.0000000  0  9G17G 5G 6G13G26G10G23G24G30
  22240241.8914  -13770257.20047 -10587155.23346                  22240248.3484
        23.5004         22.0004
  23629528.3134   15604461.08445  12159844.44845                  23629535.9804
        11.7504         11.7504
  20908595.5004  -15845355.94548 -12303358.93347                  20908600.5044
        31.5004         27.5004
  24967343.5944    -149959.46945    -92081.04845                  24967348.2934
        11.0004          7.2504
  24010519.9384   -3161076.60645  -2298249.75645                  24010529.1884
        10.7504          9.5004
  22223777.6174     655591.07747    553630.53846                  22223783.6294
        26.5004         21.5004
  24463050.2424   -1523815.36645  -1030720.81345                  24463060.6414
         9.2504          8.0004
  24679272.3134   17438781.57745   6410693.49245                  24679282.4884
         9.2504          7.5004
  21765225.0234    1106451.86748    911391.64346                  21765230.1564
        29.7504         25.5004
 98  6 18 19 57 30.0000000  0  9G17G 5G 6G13G26G10G23G24G30
  22235357.7344  -13795923.02647 -10607154.55846                  22235364.4964
        24.2504         22.2504
  23639482.3984   15656769.61845  12200604.27045                  23639490.6174
        11.7504         11.5004
  20904793.1254  -15865337.11548 -12318928.67247                  20904798.2934
        31.0004         27.5004
  24967881.9924    -147130.46045    -89876.62545                  24967887.4184
        11.0004          7.5004
  24002829.2664   -3201491.32945  -2329741.68645                  24002837.1804
        11.0004          9.7504
  22230693.6804     691936.33347    581951.51146                  22230699.6094
        26.2504         21.2504
  24453144.8284   -1575871.97445  -1071284.31045                  24453153.7854
        10.2504          8.0004
  24686373.2274   17476101.49945
         8.5004
  21772314.5314    1143707.92048    940422.30846                  21772319.9924
        29.2504         25.5004
 98  6 18 19 57 45.0000000  0  9G17G 5G 6G13G26G10G23G24G30
  22230485.5784  -13821526.00547 -10627104.91246                  22230491.7774
        23.7504         22.0004
  23649442.6334   15709107.63746  12241387.04245                  23649452.2114
        12.5004         11.7504
  20901005.4774  -15885241.15948 -12334438.31047                  20901010.7384
        30.0004         27.5004
  24968442.3054    -144185.31545    -87581.71645                  24968447.6254
        11.7504          7.7504
  23995145.1254   -3241869.82145  -2361205.34945                  23995153.2974
        10.5004         10.0004
  22237629.4454     728383.13047    610351.60446                  22237635.5044
        26.7504         21.5004
  24443244.4224   -1627896.84745  -1111823.11645                  24443254.1884
         9.5004          9.0004
  24693473.4844   17513409.64145
         9.5004
  21779424.1954    1181069.07948    969534.87346                  21779429.7974
        29.5004         25.5004
 98  6 18 19 58  0.0000000  0  9G17G 5G 6G13G26G10G23G24G30
  22225625.3284  -13847067.58347 -10647007.43246                  22225631.3754
        24.2504         22.0004
  23659407.7734   15761476.76946  12282194.07946                  23659414.9844
        12.7504         12.0004
  20897232.5004  -15905068.04248 -12349887.82347                  20897237.8554
        30.5004         27.5004
  24969025.7194    -141121.27745    -85194.17045                  24969030.7344
        11.0004          8.0004
  23987468.6804   -3282213.05345  -2392641.58145                  23987476.4774
        10.7504          9.7504
  22244584.5084     764931.06247    638830.50946                  22244590.4734
        26.2504         21.5004
  24433349.2584   -1679894.36845  -1152340.53545                  24433359.7624
         9.0004          9.0004
  24700570.2974   17550706.61945
         8.7504
  21786554.0314    1218536.34248    998730.12446                  21786559.4574
        29.7504         25.5004
 98  6 18 19 58 15.0000000  0  9G17G 5G 6G13G26G10G23G24G30
  22220776.7734  -13872547.07947 -10666861.56546                  22220782.9024
        24.2504         22.0004
  23669378.9614   15813876.84046  12323025.22945                  23669386.6054
        13.0004         11.7504
  20893473.7894  -15924819.02848 -12365278.19847                  20893479.1684
        29.5004         27.0004
  24969631.6254    -137935.77445    -82712.02745                  24969637.8014
        10.5004          7.0004
  23979797.2734   -3322522.33645  -2424051.31145                  23979806.6764
        10.5004          9.7504
  22251558.0944     801578.75447    667387.14446                  22251564.1884
        26.2504         21.7504
  24423460.1954   -1731864.16945  -1192836.41145                  24423468.9774
         9.0004          8.7504
  24707665.3444   17587992.01845     19365.24855                  24707674.9574
         9.5004          8.2504
  21793703.8204    1256108.26048   1028006.91346                  21793709.4344
        29.5004         25.2504
 98  6 18 19 58 30.0000000  0  9G17G 5G 6G13G26G10G23G24G30
  22215939.7344  -13897966.06647 -10686668.54146                  22215945.7814
        24.7504         22.0004
  23679356.4384   15866304.81146  12363878.11846                  23679364.1174
        13.5004         12.2504
  20889729.3754  -15944496.45948 -12380611.25247                  20889734.9774
        30.5004         26.7504
  24970261.1484    -134627.89345    -80134.45445                  24970268.4414
         9.7504          7.2504
  23972133.6484   -3362797.53445  -2455434.50645                  23972142.6764
        10.5004          9.5004
  22258549.9924     838320.79347    696017.29346                  22258555.8754
        26.2504         21.5004
  24413576.4774   -1783802.57645  -1233307.82845                  24413585.3984
         9.2504          8.5004
  24714759.0394   17625264.36245     48408.59145                  24714766.8954
        10.7504          9.5004
  21800873.2274    1293783.63948   1057364.32346                  21800878.9344
        29.5004         25.0004
 98  6 18 19 58 45.0000000  0  9G17G 5G 6G13G26G10G23G24G30
  22211114.4844  -13923323.74147 -10706427.74546                  22211120.5784
        24.7504         22.2504
  23689337.8674   15918760.08946  12404752.27146                  23689346.5784
        13.2504         12.2504
  20885998.3754  -15964103.71348 -12395889.62747                  20886003.7774
        30.0004         27.0004
  24970913.4224    -131196.35845    -77460.54345                  24970921.1604
         8.7504          7.0004
  23964474.8674   -3403039.52345  -2486791.80245                  23964484.1414
        10.5004          9.5004
  22265559.7034     875157.87347    724721.50346                  22265565.5044
        25.2504         21.2504
  24403698.6564   -1835704.80945  -1273751.05045                  24403708.1644
         9.0004          8.7504
  24721848.0784   17662523.51945     77441.67645                  24721854.9614
         9.2504          8.5004
  21808062.7894    1331565.23048   1086804.48646                  21808068.4384
        29.0004         25.0004
 98  6 18 19 59  0.0000000  0  9G17G 5G 6G13G26G10G23G24G30
  22206300.9224  -13948617.55847 -10726137.18546                  22206307.2154
        24.2504         22.5004
  23699325.7894   15971246.30946  12445650.55146                  23699334.3364
        13.0004         12.2504
  20882280.8754  -15983638.72248 -12411111.70847                  20882286.5704
        29.7504         26.7504
  24971591.8834    -127635.34445    -74685.78045                  24971598.9654
         8.0004          6.2504
  23956823.8754   -3443247.90945  -2518122.97645                  23956832.5864
        10.5004          9.5004
  22272588.3834     912094.00547    753502.89146                  22272594.3714
        24.5004         20.2504
  24393831.3594   -1887563.14645  -1314160.05145                  24393839.9304
         9.0004          8.7504
  24728936.6174   17699772.25745    106466.65045                  24728945.3754
         9.2504          9.0004
  21815273.0704    1369455.60248   1116329.42546                  21815278.6374
        28.7504         25.0004
 98  6 18 19 59 15.0000000  0  9G17G 5G 6G13G26G10G23G24G30
  22201498.6484  -13973853.73447 -10745801.72546                  22201505.1764
        23.7504         22.2504
  23709318.3364   16023758.57946  12486569.11946                  23709327.4104
        12.5004         12.2504
  20878576.4064  -16003107.31448 -12426282.03647                  20878581.6564
        30.5004         26.7504
  24972294.0554    -123947.23645    -71811.87245                  24972300.7464
         7.5004          6.0004
  23949178.6484   -3483425.89845  -2549430.41345                  23949187.5944
        10.7504         10.2504
  22279635.0234     949125.19347    782358.34546                  22279640.9654
        23.5004         20.2504
  24383969.7664   -1939383.98745  -1354539.84145                  24383980.4804
         9.0004          8.7504
  24736022.4224   17737007.98545    135481.46445                  24736033.0204
         9.5004          7.7504
  21822503.2344    1407450.89948   1145936.12346                  21822509.1294
        28.0004         24.7504
 98  6 18 19 59 30.0000000  0  9G17G 5G 6G13G26G10G23G24G30
  22196706.7504  -13999035.73247 -10765424.03546                  22196713.2894
        24.7504         22.2504
  23719316.2424   16076295.05146  12527506.55945                  23719324.3324
        12.7504         11.5004
  20874884.0864  -16022510.51648 -12441401.41647                  20874889.3594
        29.7504         26.7504
  24973019.4454    -120131.21144    -68838.38845                  24973024.8134
         7.2504          5.2504
  23941538.2504   -3523573.45345  -2580714.17445                  23941546.0004
        10.7504          9.7504
  22286699.1884     986246.71047    811284.18746                  22286705.2464
        23.2504         20.0004
  24374115.6884   -1991169.19245  -1394891.85945                  24374125.9924
         9.0004          9.2504
  24743105.7974   17774230.63445    164486.09645                  24743113.8524
        10.7504          8.5004
  21829753.1954    1445548.77848   1175622.76146                  21829759.1134
        28.2504         24.7504
 98  6 18 19 59 45.0000000  0  9G17G 5G 6G13G26G10G23G24G30
  22191924.7734  -14024163.29147 -10785003.93146                  22191930.9144
        24.7504         22.0004
  23729317.6484   16128854.51046  12568461.90345                  23729325.9494
        13.2504         11.7504
  20871205.2974  -16041841.24948 -12456464.31247                  20871210.8874
        30.0004         26.5004
  24973770.6804    -116179.76144    -65759.30745                  24973775.8244
         6.7504          5.2504
  23933905.2974   -3563685.52645  -2611970.26645                  23933914.3364
        11.0004         10.2504
  22293781.3914    1023462.30947    840283.34046                  22293787.3794
        22.5004         19.5004
  24364267.9224   -2042915.91845  -1435213.84545                  24364276.0824
         8.7504          9.2504
  24750187.9774   17811444.27645
        11.5004
  21837022.8054    1483750.66648   1205390.44546                  21837028.8524
        28.5004         25.0004
 98  6 18 20  0  0.0000000  0  9G17G 5G 6G13G26G10G23G24G30
  22187153.3914  -14049236.46247 -10804541.45046                  22187159.7544
        25.0004         22.2504
  23739324.6094   16181438.32846  12609436.23845                  23739332.2544
        13.2504         11.5004
  20867540.8674  -16061098.62648 -12471470.05947                  20867546.3284
        30.7504         26.7504
  24974548.8444    -112093.01045    -62574.71245                  24974551.1294
         7.5004          5.2504
  23926279.0784   -3603761.88845  -2643198.52345                  23926287.7894
        11.2504          9.2504
  22300881.6644    1060775.78547    869358.74946                  22300887.5354
        22.5004         19.7504
  24354428.3284   -2094624.59345  -1475506.25245                  24354436.9804
         9.0004          9.2504
  24757267.4224   17848649.42445
        11.0004
  21844311.7894    1522054.60847   1235237.64346                  21844317.7664
        27.7504         24.5004
 98  6 18 20  0 15.0000000  0  9G17G 5G 6G13G26G10G23G24G30
  22182392.6334  -14074254.56347 -10824036.06146                  22182399.2194
        24.7504         22.5004
  23749336.2894   16234050.06246  12650432.31346                  23749343.9344
        13.7504         12.0004
  20863890.4534  -16080281.23548 -12486417.54547                  20863895.5394
        30.7504         27.0004
  24975352.7344    -107870.63545    -59284.62845                  24975359.4844
         8.0004          5.5004
  23918659.7114   -3643799.53445  -2674396.60345                  23918668.2814
        10.7504          9.2504
  22308001.3834    1098190.37547    898512.96446                  22308007.3364
        23.2504         19.5004
  24344596.9694   -2146291.10045  -1515765.74645                  24344606.5594
         9.2504          9.5004
  24764346.9774   17885850.29446
        12.0004
  21851619.8364    1560459.42548   1265163.44446                  21851625.5434
        28.2504         24.5004
 98  6 18 20  0 30.0000000  0  8G17G 5G 6G13G26G10G23G30
  22177642.0944  -14099219.57447 -10843489.30146                  22177648.9144
        23.7504         22.5004
  23759352.8364   16286688.54546  12691449.22946                  23759359.6684
        13.7504         12.2504
  20860254.6724  -16099387.24748 -12501305.34047                  20860259.6764
        31.2504         27.0004
  24976181.5704    -103513.90045    -55889.66145                  24976189.4844
         7.5004          5.0004
  23911048.9384   -3683795.06045  -2705561.88145                  23911058.5164
        11.0004         10.0004
  22315140.5394    1135706.66547    927746.43346                  22315146.7384
        23.0004         19.5004
  24334773.0084   -2197913.22145  -1555990.67845                  24334781.0864
         8.7504          9.7504
  21858947.4844    1598966.31648   1295168.78646                  21858953.0514
        28.7504         24.7504
 98  6 18 20  0 45.0000000  0  8G17G 5G 6G13G26G10G23G30
  22172900.5314  -14124136.66647 -10862905.20746                  22172907.1174
        23.5004         22.5004
  23769374.0234   16339349.89546  12732483.98245                  23769381.7504
        14.0004         11.5004
  20856633.1174  -16118419.75548 -12516135.85947                  20856638.1334
        30.7504         27.0004
  24977035.7034     -99026.12445    -52392.72045                  24977039.8524
         8.7504          6.5004
  23903446.2114   -3723748.94645  -2736694.71245                  23903455.6134
        11.2504         10.2504
  22322298.9774    1173324.64747    957059.12346                  22322305.1174
        23.2504         19.5004
  24324958.0474   -2249495.09645  -1596184.23745                  24324967.6954
         9.0004          9.2504
  21866294.0554    1637572.61748   1325251.59146                  21866299.8554
        29.0004         24.5004
 98  6 18 20  1  0.0000000  0  8G17G 5G 6G13G26G10G23G30
  22168167.7114  -14149008.40247 -10882285.76446                  22168174.2384
        23.7504         22.7504
  23779399.3364   16392032.15746  12773535.03145                  23779407.9884
        13.0004         11.7504
  20853024.8914  -16137380.71748 -12530910.62547                  20853029.9534
        31.5004         27.0004
  24977913.6884     -94412.49945    -48797.62245                  24977918.9264
         8.7504          5.5004
  23895850.0004   -3763664.24145  -2767797.47445                  23895858.2774
        11.0004         10.0004
  22329476.4924    1211042.30547    986449.50946                  22329482.6334
        23.7504         19.7504
  24315148.1644   -2301042.57545  -1636351.02345                  24315157.9774
         9.5004          9.2504
  21873659.0394    1676274.44348   1355408.83346                  21873664.7934
        29.0004         24.7504
 98  6 18 20  1 15.0000000  0  8G17G 5G 6G13G26G10G23G30
  22163444.2814  -14173829.34747 -10901626.75146                  22163450.9384
        24.2504         23.0004
  23789429.1414   16444740.89546  12814606.68945                  23789437.5004
        13.0004         11.7504
  20849431.7894  -16156261.91548 -12545623.24747                  20849436.6994
        31.2504         27.2504
  24978816.2974     -89668.86445    -45101.27445                  24978819.2624
         8.2504          5.7504
  23888263.1884   -3803533.76345  -2798864.54545                  23888270.9964
        10.7504          9.7504
  22336673.5474    1248861.84847   1015919.26046                  22336679.4184
        24.5004         19.7504
  24305346.3134   -2352553.02345  -1676488.94945                  24305355.1884
         9.5004          9.2504
  21881042.7504    1715076.97648   1385644.54346                  21881048.1294
        29.5004         24.7504
 98  6 18 20  1 30.0000000  0  8G17G 5G 6G13G26G10G23G30
  22158730.2664  -14198602.23147 -10920930.28446                  22158736.8634
        24.5004         22.7504
  23799463.9224   16497472.00946  12855695.77045                  23799473.3364
        12.2504         11.5004
  20845853.8754  -16175065.45048 -12560275.34247                  20845858.8324
        31.5004         27.5004
  24979742.8984     -84800.04145    -41307.42945                  24979749.3324
        10.0004          7.2504
  23880685.3444   -3843358.04445  -2829896.37345                  23880693.3054
        11.7504          9.5004
  22343888.2424    1286776.43047   1045463.08946                  22343894.3134
        23.5004         20.0004
  24295549.5944   -2404031.98245  -1716602.35945                  24295558.1644
        10.0004          9.5004
  21888445.3054    1753977.67648   1415956.74846                  21888450.8244
        28.5004         24.7504
 98  6 18 20  1 45.0000000  0  8G17G 5G 6G13G26G10G23G30
  22154026.2814  -14223322.50447 -10940192.82246                  22154032.5274
        25.5004         22.7504
  23809503.1804   16550229.02545  12896805.05945                  23809512.3014
        11.2504         11.0004
  20842291.4844  -16193785.42348 -12574862.33147                  20842296.4414
        30.7504         27.5004
  24980694.2664     -79802.58345    -37413.26045                  24980700.6644
         9.7504          7.5004
  23873115.8674   -3883134.14446  -2860890.66745                  23873123.5474
        12.2504         10.0004
  22351121.8284    1324789.52147   1075083.65846                  22351128.0864
        23.7504         20.0004
  24285760.3284   -2455475.94245  -1756688.47445                  24285770.5864
         9.5004          9.2504
  21895866.7974    1792976.72948   1446345.59646                  21895872.5044
        29.0004         24.5004
 98  6 18 20  2  0.0000000  0  8G17G 5G 6G13G26G10G23G30
  22149332.5784  -14247987.26747 -10959412.10146                  22149338.8484
        25.5004         22.5004
  23819548.3834   16603014.74646  12937936.70045                  23819557.1054
        12.0004         10.5004
  20838745.0474  -16212421.51548 -12589383.96147                  20838749.9224
        31.0004         27.5004
  24981668.2974     -74679.22945    -33421.05745                  24981673.6764
         9.0004          7.0004
  23865555.5784   -3922862.40145  -2891847.68445                  23865565.1684
        11.0004          9.7504
  22358374.5474    1362903.14747   1104782.57746                  22358380.5824
        23.5004         20.0004
  24275976.9924   -2506884.29845  -1796746.86545                  24275987.1334
         8.7504          9.0004
  21903306.5234    1832073.56848   1476810.64246                  21903312.5824
        28.5004         24.5004
 98  6 18 20  2 15.0000000  0  8G17G 5G 6G13G26G10G23G30
  22144649.9384  -14272595.77947 -10978587.56346                  22144656.0664
        26.0004         22.2504
  23829597.9614   16655829.85745  12979091.26645                  23829607.0124
        11.7504         10.5004
  20835214.3594  -16230974.62648 -12603840.91847                  20835219.2464
        31.2504         27.2504
  24982667.5634     -69433.35645    -29333.40445                  24982674.7734
         9.5004          7.2504
  23858004.0704   -3962545.06045  -2922769.15545                  23858012.3014
        10.5004         10.2504
  22365646.4774    1401116.45847   1134559.16546                  22365652.5124
        23.5004         19.7504
  24266201.4304   -2558255.96645  -1836776.65745                  24266213.2234
         8.2504          8.7504
  21910764.9224    1871267.17148   1507351.08646                  21910770.4774
        28.7504         24.7504
 98  6 18 20  2 30.0000000  0  8G17G 5G 6G13G26G10G23G30
  22139976.9144  -14297150.44147 -10997721.05646                  22139983.0084
        24.5004         22.2504
  23839653.0554   16708667.36945  13020263.25545                  23839661.5554
        11.7504         10.7504
  20831699.0554  -16249448.62048 -12618236.23847                  20831704.1174
        30.0004         27.0004
  24983687.1724     -64070.37545    -25154.47445                  24983692.0004
         8.5004          7.2504
  23850460.9534   -4002187.46045  -2953659.29545                  23850469.5594
        11.2504         10.2504
  22372936.1334    1439423.65547   1164408.91646                  22372942.0744
        23.5004         20.0004
  24256432.3984   -2609594.65145  -1876780.76445                  24256441.5784
         8.2504          9.0004
  21918241.0394    1910554.37848   1537964.46946                  21918246.3244
        29.5004         24.5004
 98  6 18 20  2 45.0000000  0  8G17G 5G 6G13G26G10G23G30
  22135315.5554  -14321647.31247 -11016809.51246                  22135321.8244
        25.0004         22.0004
  23849712.3364   16761527.12446  13061452.60645                  23849720.8954
        12.0004         10.2504
  20828199.4064  -16267839.57548 -12632566.84647                  20828204.7154
        30.2504         26.7504
  24984732.0864     -58585.76745    -20880.76245                  24984738.0164
         8.7504          6.0004
  23842924.5004   -4041789.07846  -2984517.59845                  23842931.6524
        12.0004         10.7504
  22380243.6644    1477825.35047   1194332.30546                  22380249.5474
        23.5004         20.2504
  24246669.1564   -2660898.93645  -1916757.98045                  24246679.9654
         8.7504          8.7504
  21925735.5704    1949937.62648   1568652.68246                  21925740.8324
        29.0004         24.7504
 98  6 18 20  3  0.0000000  0  8G17G 5G 6G13G26G10G23G30
  22130666.1334  -14346079.95847 -11035847.91546                  22130672.4844
        26.0004         22.2504
  23859775.8524   16814412.38545  13102661.83545                  23859784.1054
        11.7504         10.2504
  20824716.3444  -16286143.40548 -12646829.57447                  20824721.5474
        30.2504         27.0004
  24985798.8204     -52973.74445    -16507.75645                  24985800.1334
         8.0004          5.7504
  23835396.4534   -4081347.87645  -3015342.55745                  23835405.1994
        11.2504         10.5004
  22387569.3524    1516322.05847   1224329.72846                  22387575.6334
        23.5004         20.2504
  24236913.1254   -2712166.21345  -1956706.42445                  24236922.2114
         9.2504          9.0004
  21933248.8444    1989420.75948   1599418.73146                  21933254.3524
        28.7504         24.5004
 98  6 18 20  3 15.0000000  0  8G17G 5G 6G13G26G10G23G30
  22126028.6884  -14370449.08347 -11054836.82346                  22126035.0164
        24.7504         22.2504
  23869844.2974   16867322.89045  13143890.72245                  23869852.9384
        11.5004         10.2504
  20821249.7894  -16304359.16848 -12661023.66847                  20821255.0864
        31.2504         27.0004
  24986891.8984     -47234.89445    -12035.90344                  24986895.1454
         8.7504          4.0004
  23827876.3364   -4120866.19745  -3046135.96745                  23827886.0904
        10.7504         10.5004
  22394912.5634    1554909.30747   1254397.69846                  22394919.1844
        23.5004         20.5004
  24227163.6884   -2763397.81545  -1996627.03145                  24227172.8554
         9.7504          9.2504
  21940781.3134    2029003.18048   1630262.15846                  21940787.0784
        28.2504         24.2504
 98  6 18 20  3 30.0000000  0  8G17G 5G 6G13G26G10G23G30
  22121404.0474  -14394752.33747 -11073774.41246                  22121410.3054
        24.5004         22.2504
  23879918.3984   16920262.19145  13185142.04345                  23879925.6914
        11.5004         10.0004
  20817800.5004  -16322484.66048 -12675147.42147                  20817805.6804
        30.7504         27.0004
  24988009.6174     -41363.22645     -7460.63245                  24988012.1724
         8.2504          5.5004
  23820365.2274   -4160341.84045  -3076896.17045                  23820374.3484
        11.5004         11.0004
  22402273.6954    1593592.07447   1284540.09946                  22402280.1174
        23.7504         20.7504
  24217422.9534   -2814587.16245  -2036514.77645                  24217432.2384
         9.7504          9.2504
  21948333.1414    2068689.54348   1661186.57046                  21948338.7544
        28.0004         23.7504
 98  6 18 20  3 45.0000000  0  8G17G 5G 6G13G26G10G23G30
  22116791.1484  -14418993.02547 -11092663.24446                  22116797.2304
        25.2504         22.0004
  23889996.8054   16973223.90945  13226410.85745                  23890005.1884
        11.2504         10.2504
  20814367.6724  -16340524.91648 -12689204.76447                  20814373.0514
        30.7504         26.7504
  24989150.0234     -35362.49545     -2784.72145                  24989156.8324
         7.7504          5.5004
  23812859.8674   -4199780.34346  -3107627.41745                  23812868.8364
        12.5004         10.7504
  22409652.6884    1632369.17747   1314756.01046                  22409658.7114
        23.7504         20.7504
  24207689.9844   -2865734.30145  -2076369.61945                  24207697.5354
        10.0004          9.0004
  21955904.1644    2108474.60248   1692187.88446                  21955909.5904
        28.5004         24.2504
 98  6 18 20  4  0.0000000  0  8G17G 5G 6G13G26G10G23G30
  22112189.2344  -14443175.33547 -11111506.59346                  22112195.3524
        25.5004         21.7504
  23900078.5234   17026204.42245  13267694.30045                  23900086.7894
        10.5004         10.5004
  20810950.3594  -16358483.86548 -12703198.74647                  20810955.5984
        30.5004         27.0004
  24990316.0394     -29236.64445      1988.74845                  24990319.8954
         7.7504          5.0004
  23805361.8674   -4239184.69846  -3138332.00145                  23805370.5314
        12.7504         10.7504
  22417049.4534    1671240.03447   1345044.97446                  22417055.5944
        24.5004         20.7504
  24197965.4614   -2916838.95045  -2116191.36145                  24197973.7274
         9.7504          8.7504
  21963493.5084    2148356.57348   1723264.71046                  21963498.7344
        29.0004         24.2504
 98  6 18 20  4 15.0000000  0  8G17G 5G 6G13G26G10G23G30
  22107599.2504  -14467296.60847 -11130302.38046                  22107605.4734
        25.2504         22.2504
  23910164.9694   17079206.42645  13308994.46245                  23910173.6214
        11.5004         10.2504
  20807548.7974  -16376358.80548 -12717127.26447                  20807554.0234
        31.0004         27.0004
  24991505.6804     -22982.10045      6862.31645                  24991507.4844
         8.0004          5.5004
  23797870.5554   -4278548.55246  -3169005.04245                  23797878.4454
        12.7504         10.7504
  22424464.5164    1710207.21447   1375408.99146                  22424470.8204
        24.2504         20.2504
  24188248.8674   -2967896.12045  -2155976.11345                  24188257.2034
         9.2504          9.2504
  21971102.9694    2188343.26048   1754423.13546                  21971108.2894
        29.2504         24.5004
 98  6 18 20  4 30.0000000  0  8G17G 5G 6G13G26G10G23G30
  22103020.6024  -14491358.58447 -11149051.95346                  22103026.7664
        24.7504         22.5004
  23920254.5784   17132227.37745  13350309.39245                  23920263.9224
        11.2504         10.0004
  20804163.7114  -16394149.21948 -12730989.92247                  20804169.0084
        31.7504         27.2504
  24992721.9614     -16595.05245     11839.31545                  24992721.1644
         8.7504          5.7504
  23790387.9694   -4317868.71245  -3199644.01645                  23790397.7934
        11.7504         11.0004
  22431898.2194    1749270.80247   1405848.13646                  22431904.1724
        24.2504         20.2504
  24178542.2974   -3018905.52245  -2195723.60545                  24178550.6914
         9.7504         10.0004
  21978732.2424    2228436.72448   1785664.76746                  21978737.8794
        28.0004         24.2504
 98  6 18 20  4 45.0000000  0  8G17G 5G 6G13G26G10G23G30
  22098451.4924  -14515367.99847 -11167760.57746                  22098457.9024
        24.7504         23.0004
  23930347.2814   17185264.62145  13391637.05945                  23930355.6764
        11.2504         10.5004
  20800793.1954  -16411860.10148 -12744790.60447                  20800798.3634
        31.7504         27.2504
  24993961.6254     -10076.81345     16918.43645                  24993964.7194
         9.2504          5.2504
  23782912.9924   -4357149.12646  -3230252.08245                  23782922.6414
        12.5004         10.7504
  22439348.4454    1788423.77047   1436356.92946                  22439354.5164
        23.5004         19.7504
  24168843.6644   -3069872.62245  -2235438.12945                  24168853.2894
         9.2504          9.2504
  21986381.3834    2268633.26148   1816986.71946                  21986387.4414
        28.0004         24.0004
 98  6 18 20  5  0.0000000  0  8G17G 5G 6G13G26G10G23G30
  22093892.3364  -14539327.14747 -11186430.04046                  22093898.9344
        25.2504         22.7504
  23940442.9384   17238319.19745  13432978.21445                  23940451.6134
        11.2504         10.0004
  20797438.1954  -16429489.98148 -12758528.16947                  20797443.1524
        31.7504         27.2504
  24995227.4924      -3427.36545     22099.79845                  24995232.0864
         9.2504          6.7504
  23775446.1724   -4396387.99646  -3260827.75345                  23775453.2774
        12.5004         10.5004
  22446816.2504    1827665.13447   1466934.60046                  22446822.4614
        23.5004         20.0004
  24159152.4614   -3120796.78545  -2275119.24745                  24159163.0004
         8.5004          9.2504
  21994050.1954    2308932.61348   1848388.78546                  21994055.9264
        28.5004         24.2504
 98  6 18 20  5 15.0000000  0  8G17G 5G 6G13G26G10G23G30
  22089342.9924  -14563232.78547 -11205057.78546                  22089349.4614
        25.2504         22.7504
  23950543.7274   17291395.66045  13474336.40045                  23950552.8714
        11.2504         10.2504
  20794099.3834  -16447036.85548 -12772201.05847                  20794104.4224
        31.7504         27.5004
  24996517.7114       3352.45845     27382.79345                  24996524.9804
         9.5004          7.0004
  23767988.3284   -4435581.08846  -3291367.72745                  23767996.1024
        12.5004         11.0004
  22454301.3204    1866999.73447   1497584.91946                  22454307.3794
        23.5004         20.0004
  24149471.4224   -3171673.64045  -2314763.49145                  24149480.7774
         8.7504          9.5004
  22001738.6254    2349336.27248   1879872.12646                  22001744.2974
        28.5004         24.2504
 98  6 18 20  5 30.0000000  0  8G17G 5G 6G13G26G10G23G30
  22084803.5314  -14587089.04547 -11223647.05446                  22084809.6254
        25.5004         23.0004
  23960646.7814   17344489.30145  13515707.97745                  23960655.2464
        10.7504         10.2504
  20790775.1414  -16464504.87748 -12785812.50147                  20790780.1214
        31.7504         27.2504
  24997831.8364      10256.79945     32762.81245                  24997837.5204
        10.7504          7.0004
  23760537.7584   -4474731.23946  -3321874.24345                  23760545.5204
        12.0004         10.2504
  22461803.4614    1906424.73447   1528305.69246                  22461809.4384
        23.7504         20.0004
  24139799.3444   -3222502.40345  -2354370.23645                  24139807.5164
         9.2504          9.2504
  22009445.8674    2389836.64448   1911430.82546                  22009451.6334
        28.0004         24.0004
 98  6 18 20  5 45.0000000  0  8G17G 5G 6G13G26G10G23G30
  22080273.7664  -14610893.15047 -11242195.68846                  22080280.0124
        25.5004         23.0004
  23970753.1094   17397599.98945  13557092.86845                  23970761.8444
        10.5004         10.5004
  20787465.7974  -16481896.02448 -12799364.04147                  20787470.7774
        31.0004         27.2504
  24999169.6724      17284.03946     38238.55145                  24999175.6374
        12.2504          7.5004
  23753096.0554   -4513834.42345  -3352344.18845                  23753105.2344
        11.5004         11.0004
  22469323.2894    1945940.99347   1559097.56146                  22469329.5354
        24.2504         19.7504
  24130136.0784   -3273281.92145  -2393938.64445                  24130144.6724
         9.7504         10.0004
  22017170.9924    2430432.40448   1943063.86246                  22017176.9924
        28.0004         23.7504
 98  6 18 20  6  0.0000000  0  8G17G 5G 6G13G26G10G23G30
  22075753.7504  -14634644.56947 -11260703.26946                  22075760.0664
        25.0004         23.0004
  23980863.6644   17450728.67145  13598491.77145                  23980871.7074
        10.5004         10.0004
  20784171.2194  -16499210.00048 -12812855.44447                  20784176.3754
        31.2504         27.2504
  25000529.5864      24433.29145     43809.35245                  25000537.4774
        11.7504          8.5004
  23745664.8834   -4552888.05245  -3382775.51745                  23745673.9574
        11.7504         10.7504
  22476859.9694    1985546.18347   1589958.73046                  22476865.9104
        24.2504         19.7504
  24120481.3754   -3324015.33845  -2433471.12145                  24120489.9104
        10.0004          9.2504
  22024914.0944    2471122.99948   1974770.78646                  22024919.9304
        28.2504         23.7504
 98  6 18 20  6 15.0000000  0  8G17G 5G 6G13G26G10G23G30
  22071244.2344  -14658343.73347 -11279170.13646                  22071250.2234
        25.5004         23.0004
  23990977.2664   17503878.04045  13639906.79745                  23990984.4534
        10.0004          9.5004
  20780891.4064  -16516445.04148 -12826285.34547                  20780896.5864
        31.2504         27.2504
  25001913.6254      31705.99146     49476.39645                  25001919.8834
        12.2504          7.2504
  23738242.6724   -4591888.76045  -3413165.62945                  23738251.2194
        11.7504         10.5004
  22484413.1254    2025237.50247   1620887.01646                  22484419.2544
        24.2504         20.2504
  24110835.7424   -3374704.21745  -2472968.85145                  24110844.6994
        10.0004         10.0004
  22032675.2034    2511908.02948   2006551.29746                  22032680.9344
        28.2504         24.0004
 98  6 18 20  6 30.0000000  0  8G17G 5G 6G13G26G10G23G30
  22066745.0084  -14681987.06647 -11297593.48146                  22066751.1844
        26.0004         23.0004
  24001095.8134   17557049.78945  13681339.23045                  24001104.5124
        10.5004         10.2504
  20777626.8674  -16533599.75748 -12839652.65347                  20777632.0004
        30.5004         27.0004
  25003321.1484      39106.07245     55242.72445                  25003325.6024
        10.7504          6.2504
  23730831.2734   -4630837.35145  -3443515.07345                  23730839.6684
        11.5004         10.7504
  22491982.5004    2065014.77247   1651882.27546                  22491988.3834
        24.5004         19.2504
  24101198.4694   -3425348.56045  -2512431.89745                  24101208.2934
        10.5004         10.0004
  22040453.8364    2552784.77647   2038403.27546                  22040459.4844
        27.7504         24.0004
 98  6 18 20  6 45.0000000  0  8G17G 5G 6G13G26G10G23G30
  22062256.0394  -14705576.93647 -11315975.18646                  22062262.2734
        26.0004         23.0004
  24011218.4064   17610242.58645  13722788.09145                  24011226.8834
        11.2504         10.2504
  20774377.5164  -16550675.32048 -12852958.28347                  20774382.6844
        30.5004         27.0004
  25004754.5634      46633.51245     61108.22445                  25004759.0044
        11.0004          6.5004
  23723429.0164   -4669736.85645  -3473826.27845                  23723436.6024
        11.5004         10.2504
  22499567.4384    2104874.89347   1682942.09146                  22499573.3444
        23.5004         19.2504
  24091568.8594   -3475950.00045  -2551861.56245                  24091578.1684
        10.5004         10.2504
  22048248.5634    2593747.39747   2070322.16946                  22048254.2704
        27.0004         23.7504
 98  6 18 20  7  0.0000000  0  8G17G 5G 6G13G26G10G23G30
  22057777.4144  -14729112.40747 -11334314.50746                  22057783.4964
        25.0004         23.0004
  24021344.2424   17663455.93945  13764252.98945                  24021353.1884
        11.5004         11.0004
  20771143.5314  -16567670.53848 -12866201.30747                  20771148.4304
        31.5004         27.0004
  25006210.8674      54285.89445     67071.14945                  25006213.1764
        11.2504          6.5004
  23716036.0864   -4708585.44445  -3504097.80445                  23716044.4454
        11.2504         10.7504
  22507168.2734    2144817.28847   1714066.00446                  22507174.1804
        23.5004         19.2504
  24081948.4694   -3526506.79645  -2591256.40945                  24081958.4224
        10.0004         10.2504
  22056059.4774    2634793.58347   2102306.18146                  22056065.6994
        26.7504         23.7504
 98  6 18 20  7 15.0000000  0  8G17G 5G 6G13G26G10G23G30
  22053309.0314  -14752593.96047 -11352611.79846                  22053315.3014
        25.2504         23.2504
  24031473.5634   17716685.25945  13805730.29745                  24031481.0204
        11.2504         10.0004
  20767924.0164  -16584587.53448 -12879383.37847                  20767928.8914
        31.2504         27.2504
  25007689.6174      62057.68545     73127.08245                  25007695.9224
        10.7504          6.5004
  23708653.0394   -4747383.95445  -3534330.33545                  23708661.2114
        11.2504          9.7504
  22514784.5394    2184841.69547   1745253.85446                  22514790.6334
        22.7504         19.0004
  24072336.2734   -3577019.00845  -2630616.52545                  24072344.8324
        10.0004         10.7504
  22063885.7034    2675919.87047   2134352.61246                  22063891.7854
        26.7504         23.5004
 98  6 18 20  7 30.0000000  0  8G17G 5G 6G13G26G10G23G30
  22048851.5004  -14776018.21547 -11370864.45546                  22048857.6884
        26.0004         23.2504
  24041606.1334   17769932.64845  13847221.70145                  24041614.8674
        10.7504         10.5004
  20764720.1334  -16601424.89048 -12892503.39547                  20764725.0204
        31.5004         27.0004
  25009191.8594      69954.41745     79280.38145                  25009199.2464
        10.7504          6.2504
  23701280.1644   -4786126.96645  -3564519.57245                  23701289.0984
        10.7504          9.5004
  22522416.9614    2224950.70747   1776507.63446                  22522423.2424
        22.0004         19.5004
  24062734.0314   -3627481.05445  -2669937.54245                  24062743.5394
        10.5004         10.7504
  22071727.3834    2717128.47147   2166463.17146                  22071733.5124
        26.7504         23.5004
 98  6 18 20  7 45.0000000  0  8G17G 5G 6G13G26G10G23G30
  22044403.7894  -14799389.27447 -11389075.65346                  22044410.0124
        24.2504         23.2504
  24051741.3984   17823191.68845  13888722.17245                  24051750.5784
        10.7504         10.5004
  20761531.0634  -16618184.76648 -12905563.03747                  20761535.8324
        31.2504         26.7504
  25010717.8754      77975.38045     85530.56445                  25010722.1294
        10.7504          6.7504
  23693917.7504   -4824816.63945  -3594667.28145                  23693927.5864
        10.2504         10.0004
  22530064.9304    2265140.11947   1807824.02746                  22530071.1994
        22.7504         19.5004
  24053139.2734   -3677898.65245  -2709223.94145                  24053148.0664
        11.0004         10.2504
  22079584.9304    2758419.79347   2198638.19446                  22079591.0354
        26.7504         23.5004
 98  6 18 20  8  0.0000000  0  8G17G 5G 6G13G26G10G23G30
  22039967.2734  -14822704.79347 -11407243.55346                  22039973.5554
        24.7504         23.5004
  24061879.4064   17876465.89345  13930234.41845                  24061889.1724
        11.0004         10.5004
  20758357.5864  -16634860.10248 -12918556.79847                  20758362.6024
        30.7504         26.7504
  25012270.2194      86129.51245     91884.39945                  25012276.3714
        10.0004          6.5004
  23686566.4384   -4863449.38045  -3624770.65145                  23686575.2304
        10.5004         10.2504
  22537728.8834    2305415.64347   1839207.54746                  22537735.2934
        22.5004         19.0004
  24043553.7584   -3728271.41245  -2748475.36945                  24043562.9494
        11.7504         11.0004
  22087458.9694    2799799.36847   2230881.98346                  22087465.4384
        26.5004         23.2504
 98  6 18 20  8 15.0000000  0  8G17G 5G 6G13G26G10G23G30
  22035540.5164  -14845967.90247 -11425370.64546                  22035546.5394
        26.2504         23.2504
  24072018.7734   17929751.46845  13971755.60145                  24072027.7774
        10.7504         10.0004
  20755200.9614  -16651448.74148 -12931483.00747                  20755206.1174
        30.5004         26.7504
  25013846.4694      94418.64845     98343.44445                  25013853.1374
         9.0004          6.5004
  23679224.7734   -4902027.75845  -3654831.64345                  23679232.2304
        11.0004         10.7504
  22545409.5084    2345777.11147   1870658.02446                  22545415.3794
        22.2504         18.7504
  24033976.9844   -3778599.07845  -2787691.65445                  24033985.8714
        11.5004         11.0004
  22095349.6884    2841264.59447   2263192.51346                  22095355.9224
        26.5004         22.7504
 98  6 18 20  8 30.0000000  0  8G17G 5G 6G13G26G10G23G30
  22031123.5944  -14869178.81047 -11443457.06446                  22031129.7814
        27.0004         23.5004
  24082160.5234   17983046.71045  14013284.29645                  24082170.1724
        10.2504         10.0004
  20752061.2424  -16667948.83148 -12944340.22147                  20752066.1644
        31.2504         26.5004
  25015449.5634     102843.95445    104908.59445                  25015456.7504
         8.0004          7.0004
  23671893.4614   -4940552.76545  -3684850.99645                  23671901.1174
        11.2504         10.5004
  22553106.6174    2386226.05747   1902176.66946                  22553112.9694
        22.0004         18.7504
  24024408.7734   -3828879.80045  -2826871.37745                  24024417.0634
        11.0004         11.2504
  22103256.8444    2882815.62547   2295569.90546                  22103262.8914
        26.5004         23.0004
 98  6 18 20  8 45.0000000  0  8G17G 5G 6G13G26G10G23G30
  22026715.8444  -14892340.47747 -11461505.09946                  22026722.3714
        26.5004         23.7504
  24092303.3674   18036345.95645  14054816.10945                  24092313.5204
        10.0004          9.7504
  20748937.4454  -16684364.37948 -12957131.55747                  20748942.3794
        31.0004         26.7504
  25017079.2034     111402.20845    111577.37645                  25017085.0394
         8.0004          7.0004
  23664572.4694   -4979026.93945  -3714830.77945                  23664579.8554
        11.0004         10.2504
  22560820.7114    2426763.48447   1933764.25946                  22560827.0744
        21.7504         18.7504
  24014849.2504   -3879115.17345  -2866015.76145                  24014858.8054
        10.7504         11.5004
  22111179.8284    2924451.17047   2328013.15146                  22111185.4884
        27.2504         23.0004
 98  6 18 20  9  0.0000000  0  8G17G 5G 6G13G26G10G23G30
  22022318.2194  -14915451.19247 -11479513.43746                  22022324.6414
        26.0004         23.5004
  24102446.8754   18089649.42145  14096351.22945                  24102456.9804
         9.7504         10.0004
  20745830.0164  -16700692.80948 -12969855.00747                  20745835.0554
        30.2504         26.7504
  25018732.5474     120090.80745    118347.61745                  25018735.2424
         7.7504          6.7504
  23657261.6174   -5017447.38745  -3744768.72845                  23657269.9064
        11.5004         10.5004
  22568552.5004    2467392.77947   1965423.43546                  22568558.6644
        21.5004         18.7504
  24005298.7894   -3929304.02545  -2905123.91145                  24005308.6844
        11.2504         11.0004
  22119119.8594    2966176.36347   2360526.25846                  22119125.6024
        27.0004         22.7504
 98  6 18 20  9 15.0000000  0  8G17G 5G 6G13G26G10G23G30
  22017931.6724  -14938502.26447 -11497475.30446                  22017937.8014
        26.5004         23.7504
  24112591.4694   18142960.72145  14137892.37645                  24112600.2734
         9.7504         10.0004
  20742740.1564  -16716929.64248 -12982507.07847                  20742745.3134
        30.2504         26.7504
  25020411.1414     128912.43545    125221.62545                  25020414.0944
         7.5004          7.0004
  23649961.1254   -5055810.46645  -3774661.94045                  23649970.2814
        11.2504         10.7504
  22576302.7344    2508120.91847   1997159.62146                  22576308.8984
        21.7504         18.5004
  23995758.0704   -3979440.86345  -2944191.52145                  23995765.9264
        11.2504         11.0004
  22127078.0634    3007997.38147   2393114.03046                  22127084.0274
        26.5004         22.7504
 98  6 18 20  9 30.0000000  0  8G17G 5G 6G13G26G10G23G30
  22013556.4224  -14961495.83347 -11515392.36046                  22013562.5634
        27.0004         23.7504
  24122737.4304   18196276.27045  14179436.89545                  24122747.7704
         9.2504          9.7504
  20739666.9924  -16733079.70548 -12995091.53747                  20739672.1724
        30.2504         26.7504
  25022115.7734     137866.19045    132198.54345                  25022122.6564
         8.2504          6.5004
  23642670.8594   -5094120.03245  -3804513.46145                  23642679.4534
        11.0004         10.0004
  22584071.1804    2548944.68147   2028970.34446                  22584077.2274
        21.7504         18.5004
  23986226.5704   -4029528.47645  -2983220.75345                  23986234.6954
        11.7504         11.0004
  22135053.9614    3049910.17647   2425773.32146                  22135059.7974
        26.7504         22.5004
 98  6 18 20  9 45.0000000  0  8G17G 5G 6G13G26G10G23G30
  22009191.1484  -14984433.56947 -11533265.91846                  22009197.0904
        26.7504         23.5004
  24132883.5084   18249593.83045  14220982.96845                  24132893.2734
         9.5004         10.0004
  20736610.1254  -16749144.07148 -13007609.22247                  20736615.2234
        30.5004         26.7504
  25023843.6644     146950.46945    139277.24945                  25023849.7934
         7.5004          6.7504
  23635389.7894   -5132381.63045  -3834327.56645                  23635398.2304
        10.5004          9.5004
  22591857.2974    2589861.02747   2060853.18346                  22591863.3444
        21.7504         18.7504
  23976703.6954   -4079572.25845  -3022215.88445                  23976711.6684
        11.7504         10.5004
  22143046.8834    3091913.02747   2458502.77946                  22143052.6844
        26.5004         22.5004
 98  6 18 20 10  0.0000000  0  8G17G 5G 6G13G26G10G23G30
  22004837.4844  -15007312.32447 -11551093.49746                  22004843.5314
        26.5004         23.7504
  24143030.7734   18302918.93345  14262534.78645                  24143040.7384
         9.2504          8.7504
  20733570.5084  -16765116.90548 -13020055.58647                  20733575.6414
        30.2504         27.0004
  25025597.0394     156166.06245    146458.23945                  25025604.8714
         8.2504          6.7504
  23628118.3054   -5170594.15145  -3864103.50145                  23628125.4804
        11.0004          9.2504
  22599662.1024    2630873.95047   2092811.29646                  22599668.3714
        21.5004         18.7504
  23967188.8364   -4129570.44745  -3061175.43845                  23967196.1764
        11.7504         10.5004
  22151057.3674    3134008.91447   2491304.75246                  22151063.4734
        27.0004         23.0004
 98  6 18 20 10 15.0000000  0  8G17G 5G 6G13G26G10G23G30
  22000495.7584  -15030127.95047 -11568871.89846                  22000501.7814
        27.0004         23.5004
  24153181.2194   18356258.44045  14304097.99945                  24153190.8674
        10.0004         10.0004
  20730548.9694  -16780995.44748 -13032428.47047                  20730554.2074
        30.2504         27.0004
  25027376.5634     165512.84445    153741.44145                  25027381.6724
         9.5004          7.5004
  23620855.9224   -5208755.44445  -3893839.47545                  23620863.7774
        11.5004         10.0004
  22607485.1644    2671986.15447   2124846.75746                  22607491.4804
        21.0004         18.5004
  23957684.3594   -4179516.64146  -3100094.47645                  23957693.0944
        12.0004         11.0004
  22159085.8754    3176197.82847   2524179.19946                  22159092.2854
        26.7504         23.2504
 98  6 18 20 10 30.0000000  0  8G17G 5G 6G13G26G10G23G30
  21996165.4694  -15052884.06047 -11586603.92646                  21996171.7974
        26.2504         23.5004
  24163333.1564   18409608.74245  14345669.61245                  24163342.3594
        10.2504          9.2504
  20727543.9064  -16796787.64248 -13044734.08047                  20727549.1684
        30.7504         27.0004
  25029177.6724     174982.22245    161120.18045                  25029182.6644
         8.7504          7.7504
  23613602.9844   -5246869.91145  -3923538.98145                  23613611.7544
        10.7504         10.5004
  22615325.8834    2713189.33847   2156953.12846                  22615332.4804
        20.5004         18.2504
  23948189.5234   -4229413.73845  -3138975.26245                  23948197.9884
        11.5004         10.7504
  22167130.7274    3218474.75247   2557122.22046                  22167136.5744
        27.0004         23.0004
 98  6 18 20 10 45.0000000  0  8G17G 5G 6G13G26G10G23G30
  21991846.9224  -15075577.71847 -11604287.29346                  21991853.2154
        26.5004         23.7504
  24173488.2664   18462974.32245  14387253.12045                  24173497.4574
         9.7504          9.7504
  20724555.5004  -16812492.36548 -13056971.52047                  20724560.5984
        31.2504         27.0004
  25031003.7894     184574.49845    168594.66945                  25031008.3134
        10.2504          8.0004
  23606359.4774   -5284935.16545  -3953200.14145                  23606368.8794
        10.7504         11.0004
  22623183.7974    2754483.77947   2189130.59646                  22623189.8554
        21.2504         18.2504
  23938703.9534   -4279257.60245  -3177814.60945                  23938713.3794
        11.2504         10.5004
  22175193.1804    3260843.08547   2590136.47746                  22175198.8634
        27.0004         22.7504
 98  6 18 20 11  0.0000000  0  8G17G 5G 6G13G26G10G23G30
  21987540.3134  -15098209.30747 -11621922.28746                  21987546.4884
        26.7504         23.7504
  24183646.8204   18516354.85645  14428848.26545                  24183656.0354
         9.7504          9.7504
  20721583.5164  -16828109.77648 -13069140.93547                  20721588.6484
        31.2504         27.0004
  25032851.4614     194286.90545    176162.78445                  25032857.4264
        10.0004          7.0004
  23599124.9774   -5322951.34845  -3982823.03045                  23599133.1954
        10.7504         10.7504
  22631058.6334    2795865.36447   2221375.97146                  22631064.7734
        21.5004         18.5004
  23929229.4064   -4329048.50245  -3216612.63445                  23929238.8324
        11.2504         11.0004
  22183272.8364    3303301.50647   2623220.93346                  22183278.7194
        26.7504         22.5004
 98  6 18 20 11 15.0000000  0  8G17G 5G 6G13G26G10G23G30
  21983245.9064  -15120777.63347 -11639507.98746                  21983251.8714
        27.7504         23.5004
  24193808.7274   18569754.66145  14470458.44445                  24193817.6134
         9.5004          9.0004
  20718628.7344  -16843637.07948 -13081240.13147                  20718633.7154
        31.5004         26.7504
  25034722.8444     204120.94645    183825.67045                  25034727.5554
         9.2504          6.5004
  23591899.9774   -5360917.87845  -4012407.25545                  23591907.6914
        11.5004         10.7504
  22638949.2114    2837329.65447   2253685.79446                  22638955.1994
        21.2504         18.5004
  23919764.7344   -4378785.15645  -3255368.43545                  23919773.5164
        11.7504         10.7504
  22191369.4924    3345849.87247   2656375.47146                  22191375.1884
        26.0004         22.5004
 98  6 18 20 11 30.0000000  0  8G17G 5G 6G13G26G10G23G30
  21978962.2274  -15143287.87648 -11657048.42346                  21978968.1684
        28.0004         23.5004
  24203973.2504   18623173.37445  14512083.34145                  24203982.3954
         9.2504          9.0004
  20715690.7814  -16859076.16948 -13093270.58847                  20715695.5864
        30.7504         26.7504
  25036618.0864     214077.16945    191583.68545                  25036622.2234
        10.7504          6.2504
  23584683.9774   -5398837.50045  -4041954.89745                  23584691.1174
        11.0004         10.5004
  22646853.9384    2878870.58547   2286055.34346                  22646860.1374
        20.2504         18.5004
  23910309.8284   -4428470.83846  -3294084.48345                  23910318.5864
        12.2504         11.0004
  22199482.4224    3388484.08147   2689596.91346                  22199488.3754
        26.0004         22.5004
 98  6 18 20 11 45.0000000  0  8G17G 5G 6G13G26G10G23G30
  21974689.5474  -15165741.43048 -11674544.68746                  21974695.5354
        28.5004         23.5004
  24214143.4534   18676614.86545  14553726.00645                  24214152.7974
         9.5004          9.0004
  20712770.6564  -16874421.57048 -13105228.04647                  20712775.6024
        30.5004         26.5004
  25038536.0004     224158.06045    199438.94245                  25038540.0784
         9.5004          5.5004
  23577477.5314   -5436707.38646  -4071463.82845                  23577484.5084
        12.2504         11.5004
  22654774.0164    2920489.88646   2318485.94546                  22654780.0044
        19.7504         18.5004
  23900864.7274   -4478104.79346  -3332760.24945                  23900873.5314
        12.2504         10.7504
  22207612.7274    3431209.16447   2722889.15146                  22207618.8914
        26.2504         22.2504
 98  6 18 20 12  0.0000000  0  8G17G 5G 6G13G26G10G23G30
  21970427.1644  -15188140.74247 -11691998.68746                  21970433.0234
        27.7504         23.7504
  24224317.6484   18730079.52145  14595386.71145                  24224327.5904
        10.5004          9.7504
  20709868.2664  -16889673.44748 -13117112.62647                  20709873.2464
        30.2504         26.5004
  25040477.0704     234363.63545    207391.35145                  25040485.1134
         7.5004          4.7504
  23570280.9774   -5474526.83846  -4100933.43645                  23570288.7974
        13.2504         11.5004
  22662708.1564    2962185.57347   2350976.06746                  22662714.2624
        20.2504         18.2504
  23891429.4844   -4527689.52346  -3371397.66145                  23891437.7974
        12.2504         10.5004
  22215760.1334    3474024.52047   2756251.73146                  22215766.2734
        26.5004         22.0004
 98  6 18 20 12 15.0000000  0  8G17G 5G 6G13G26G10G23G30
  21966174.5164  -15210488.93547 -11709412.86046                  21966180.5634
        27.5004         23.7504
  24234495.2114   18783563.82045  14637062.73345                  24234505.3984
        11.2504          9.5004
  20706982.7584  -16904836.80548 -13128928.22847                  20706988.0084
        30.7504         26.7504
  25042442.4924     244692.49444    215439.91744                  25042447.9534
         7.0004          4.2504
  23563094.0704   -5512295.05246  -4130363.13845                  23563101.0354
        13.7504         11.7504
  22670656.5234    3003954.34846   2383523.14846                  22670662.9454
        19.7504         18.2504
  23882002.9924   -4577225.30445  -3409996.91145                  23882011.4104
        11.7504         11.0004
  22223923.8674    3516925.19247   2789680.79746                  22223930.1254
        26.2504         22.2504
 98  6 18 20 12 30.0000000  0  8G17G 5G 6G13G26G10G23G30
  21961931.1564  -15232786.58847 -11726787.64846                  21961937.2034
        27.0004         23.7504
  24244676.2114   18837063.51745  14678750.74345                  24244685.6024
        11.5004          9.7504
  20704113.3594  -16919914.94248 -13140677.42447                  20704118.4804
        30.5004         26.7504
  25044431.9844     255146.55144    223585.77244                  25044439.2894
         6.7504          3.5004
  23555916.6724   -5550011.07746  -4159752.16545                  23555923.7894
        13.0004         11.7504
  22678619.0084    3045794.86547   2416126.12046                  22678625.3134
        21.0004         18.7504
  23872585.7734   -4626713.13245  -3448558.79345                  23872594.3554
        11.7504         11.2504
  22232104.1484    3559911.41347   2823176.51646                  22232110.2424
        26.0004         22.2504
 98  6 18 20 12 45.0000000  0  8G17G 5G 6G13G26G10G23G30
  21957697.0084  -15255036.70347 -11744125.39646                  21957703.0204
        27.2504         23.7504
  24254858.0634   18890571.46145  14720445.14545                  24254865.4384
        11.0004          9.5004
  20701259.3754  -16934911.98448 -13152363.42847                  20701264.4024
        31.2504         27.0004
  25046445.3834     265723.69144    231827.82244                  25046451.0434
         7.2504          4.2504
  23548749.2894   -5587676.75446  -4189101.97345                  23548757.4494
        12.5004         11.5004
  22686593.9694    3087703.96547   2448782.54346                  22686599.9104
        21.2504         18.7504
  23863176.3134   -4676158.37046  -3487087.48845                  23863185.4454
        12.2504         11.5004
  22240300.0234    3602980.03147   2856736.44646                  22240305.8954
        26.2504         22.2504
 98  6 18 20 13  0.0000000  0  8G17G 5G 6G13G26G10G23G30
  21953473.8444  -15277230.59447 -11761419.32746                  21953479.7854
        27.7504         24.0004
  24265043.2034   18944094.08245  14762151.01745                  24265052.4414
        10.2504          9.5004
  20698423.1094  -16949818.24148 -13163978.69447                  20698428.1374
        31.5004         27.0004
  25048483.4924     276432.79445    240172.56445                  25048490.7274
         8.2504          4.7504
  23541593.1724   -5625284.17146  -4218406.38346                  23541600.7114
        13.2504         12.0004
  22694584.1024    3129692.11547   2481500.57146                  22694590.0554
        21.0004         18.2504
  23853776.1174   -4725556.55146  -3525579.50545                  23853784.8404
        12.5004         11.2504
  22248512.8364    3646138.75947   2890366.59746                  22248518.8244
        26.2504         22.2504
 98  6 18 20 13 15.0000000  0  8G17G 5G 6G13G26G10G23G30
  21949261.2894  -15299367.85148 -11778669.12146                  21949267.1954
        28.2504         24.2504
  24275231.0314   18997630.82645  14803867.85745                  24275239.1684
         9.5004          9.2504
  20695604.1254  -16964632.65648 -13175522.39447                  20695609.1884
        31.2504         27.0004
  25050546.3594     287275.24645    248621.24245                  25050552.8054
         8.2504          6.2504
  23534448.0474   -5662831.81546  -4247664.20746                  23534456.1604
        14.5004         12.0004
  22702589.6414    3171762.84147   2514282.94246                  22702595.9104
        20.5004         18.5004
  23844384.5784   -4774910.04546  -3564036.71845                  23844392.4804
        12.7504         11.2504
  22256742.5084    3689387.60747   2924066.97446                  22256748.4494
        25.7504         22.2504
 98  6 18 20 13 30.0000000  0  8G17G 5G 6G13G26G10G23G30
  21945058.3594  -15321453.67948 -11795878.85646                  21945064.1024
        28.2504         23.7504
  24285420.1804   19051175.33645  14845590.77045                  24285429.1724
         9.5004          9.2504
  20692801.0164  -16979362.84648 -13187000.46147                  20692805.9964
        30.5004         26.7504
  25052634.4384     298245.38745    257169.34345                  25052639.7584
         9.7504          7.2504
  23527313.1094   -5700323.92746  -4276878.74246                  23527320.2504
        14.2504         12.0004
  22710610.7194    3213914.15647   2547128.10346                  22710617.2234
        20.2504         17.5004
  23834999.8444   -4824224.85546  -3602463.79845                  23835008.8834
        12.2504         11.2504
  22264988.1644    3732718.33447   2957831.14546                  22264994.2114
        26.2504         22.2504
 98  6 18 20 13 45.0000000  0  8G17G 5G 6G13G26G10G23G30
  21940865.5394  -15343486.75848 -11813047.48246                  21940871.3164
        28.5004         24.0004
  24295609.9384   19104724.86545  14887317.63845                  24295619.8324
         9.5004          9.5004
  20690013.8134  -16994009.70748 -13198413.60447                  20690018.9344
        30.5004         26.5004
  25054746.4924     309344.57545    265818.09745                  25054752.8094
        10.0004          6.5004
  23520189.3204   -5737758.94746  -4306048.83145                  23520196.1804
        13.2504         11.2504
  22718648.2274    3256151.49447   2580040.29546                  22718654.2384
        20.2504         17.2504
  23825623.1254   -4873498.64046  -3640858.89845                  23825631.9304
        12.2504         10.7504
  22273249.6724    3776131.18947   2991659.31346                  22273255.6374
        26.2504         22.2504
 98  6 18 20 14  0.0000000  0  8G17G 5G 6G13G26G10G23G30
  21936684.0004  -15365462.46748 -11830171.40846                  21936690.0004
        28.0004         24.0004
  24305801.5234   19158278.66645  14929047.74545                  24305810.8794
        10.0004          9.7504
  20687242.4064  -17008572.97148 -13209761.60047                  20687247.5274
        30.5004         26.7504
  25056883.9304     320575.77145    274569.67545                  25056889.1214
        10.0004          7.5004
  23513077.5704   -5775131.88546  -4335170.53845                  23513085.4384
        13.2504         11.7504
  22726703.2114    3298478.86847   2613022.64646                  22726709.2584
        21.0004         17.5004
  23816255.8594   -4922726.03645  -3679217.82345                  23816264.3714
        11.7504         11.2504
  22281526.2814    3819625.12947   3025550.65846                  22281532.3984
        26.5004         22.2504
 98  6 18 20 14 15.0000000  0  8G17G 5G 6G13G26G10G23G30
  21932512.8364  -15387381.62647 -11847251.26646                  21932518.8364
        27.7504         24.0004
  24315992.1094   19211833.82645  14970779.00545                  24316002.3094
        10.0004          9.2504
  20684486.3364  -17023055.55648 -13221046.73547                  20684491.3524
        30.5004         26.5004
  25059045.5554     331935.26945    283421.17545                  25059052.4144
         9.0004          6.5004
  23505977.5784   -5812441.87246  -4364243.21945                  23505985.6804
        13.0004         11.7504
  22734774.2274    3340892.73247   2646072.39846                  22734780.5084
        20.7504         17.2504
  23806896.6414   -4971907.10746  -3717540.70045                  23806905.2934
        12.2504         11.2504
  22289817.6334    3863196.21847   3059502.12346                  22289823.3754
        26.7504         22.0004
 98  6 18 20 14 30.0000000  0  8G17G 5G 6G13G26G10G23G30
  21928352.1644  -15409244.66647 -11864287.39246                  21928358.0944
        27.5004         24.2504
  24326184.0164   19265389.48245  15012510.57345                  24326194.6844
         9.7504          9.2504
  20681746.2974  -17037455.32148 -13232267.32347                  20681751.4534
        30.7504         26.5004
  25061230.5704     343421.35745    292371.36245                  25061235.9734
         7.7504          7.2504
  23498889.2424   -5849689.89446  -4393267.58645                  23498896.7934
        13.0004         11.5004
  22742861.7664    3383392.85947   2679189.37446                  22742867.6484
        20.2504         17.0004
  23797546.9454   -5021041.28045  -3755826.99245                  23797556.5704
        11.7504         11.2504
  22298124.0864    3906846.63647   3093515.40046                  22298129.7584
        26.2504         22.0004
 98  6 18 20 14 45.0000000  0  8G17G 5G 6G13G26G10G23G30
  21924201.9844  -15431053.66147 -11881281.40846                  21924207.9964
        27.0004         24.2504
  24336375.1174   19318944.31745  15054241.50745                  24336384.8834
        10.5004          9.7504
  20679022.0944  -17051771.72448 -13243422.95847                  20679027.2274
        30.2504         26.7504
  25063439.9844     355031.41445    301418.13845                  25063447.3484
         8.0004          5.7504
  23491812.7504   -5886876.65646  -4422244.19645                  23491820.4064
        12.5004         11.2504
  22750964.9064    3425976.79647   2712371.65446                  22750971.5634
        20.2504         17.2504
  23788205.1724   -5070129.18745  -3794077.24545                  23788213.9064
        11.0004         11.2504
  22306445.4304    3950574.91847   3127589.35846                  22306451.3834
        26.2504         21.7504
 98  6 18 20 15  0.0000000  0  8G17G 5G 6G13G26G10G23G30
  21920062.4774  -15452807.16847 -11898232.18246                  21920068.5234
        26.0004         23.7504
  24346567.5784   19372504.33245  15095976.53345                  24346576.6414
        10.2504          9.5004
  20676315.2114  -17065996.12548 -13254506.90647                  20676320.0984
        30.5004         26.5004
  25065673.9614     366768.11345    310563.66845                  25065681.8054
         8.0004          6.5004
  23484749.4144   -5923995.64246  -4451168.01645                  23484755.8364
        13.0004         11.5004
  22759085.2114    3468646.83847   2745621.01246                  22759091.6564
        20.2504         17.5004
  23778874.2034   -5119164.87245  -3832286.79945                  23778882.2704
        11.0004         11.5004
  22314781.6334    3994383.23147   3161725.68246                  22314787.5984
        26.0004         21.5004
 98  6 18 20 15 15.0000000  0  8G17G 5G 6G13G26G10G23G30
  21915933.0474  -15474507.49847 -11915141.52546                  21915939.0944
        26.0004         24.0004
  24356761.2344   19426070.60445  15137716.43545                  24356772.2894
         9.5004          9.0004
  20673626.3364  -17080126.93748 -13265517.92647                  20673631.3634
        30.2504         26.2504
  25067931.0864     378630.63245    319807.11845                  25067936.7704
         8.2504          6.2504
  23477699.1564   -5961045.10646  -4480037.66946                  23477706.7664
        13.5004         12.0004
  22767221.1644    3511401.95147   2778936.66546                  22767227.6914
        20.0004         17.2504
  23769553.2814   -5168147.16346  -3870454.74945                  23769561.8054
        12.5004         11.7504
  22323133.3754    4038271.18247   3195924.05046                  22323139.2704
        25.7504         22.0004
 98  6 18 20 15 30.0000000  0  8G17G 5G 6G13G26G10G23G30
  21911813.5864  -15496155.66547 -11932010.21346                  21911819.5744
        26.5004         24.0004
  24366955.6884   19479642.65945  15179460.78145                  24366965.6884
         9.7504          9.5004
  20670954.9614  -17094164.48748 -13276456.27147                  20670960.0824
        30.7504         26.2504
  25070212.1484     390615.58845    329145.99045                  25070215.5234
         9.0004          6.5004
  23470661.9614   -5998024.48146  -4508852.70746                  23470669.7464
        13.2504         12.0004
  22775372.5004    3554238.35247   2812315.66646                  22775378.6994
        20.2504         17.0004
  23760243.6644   -5217071.33946  -3908577.45245                  23760251.5434
        12.7504         11.7504
  22331499.7344    4082236.25747   3230182.51446                  22331505.7344
        26.2504         22.0004
 98  6 18 20 15 45.0000000  0  8G17G 5G 6G13G26G10G23G30
  21907704.1804  -15517749.86748 -11948836.84846                  21907710.4964
        28.2504         24.2504
  24377150.6254   19533221.26845  15221210.29545                  24377160.1564
         9.7504          9.0004
  20668301.5704  -17108107.01948 -13287320.58247                  20668306.5394
        31.0004         26.5004
  25072517.0944     402725.41745    338582.26745                  25072527.7734
         9.5004          6.2504
  23463638.4224   -6034933.72546  -4537613.10746                  23463646.6294
        13.2504         12.0004
  22783538.7974    3597153.03247   2845755.65846                  22783545.0784
        20.2504         17.2504
  23750944.8834   -5265936.07846  -3946653.82145                  23750952.3404
        13.5004         11.7504
  22339881.0084    4126279.38547   3264501.79946                  22339886.7624
        26.0004         22.0004
 98  6 18 20 16  0.0000000  0  8G17G 5G 6G13G26G10G23G30
  21903605.0164  -15539292.22348 -11965623.09346                  21903611.3444
        28.2504         24.5004
  24387347.5474   19586805.36445  15262964.03445                  24387356.2234
         9.7504          9.0004
  20665666.8914  -17121952.34948 -13298109.15047                  20665671.9184
        30.2504         26.5004
  25074844.5704     414960.90145    348116.39745                  25074850.7934
         9.0004          6.0004
  23456628.8204   -6071772.23046  -4566318.37745                  23456635.9964
        13.0004         11.5004
  22791719.6804    3640143.28547   2879254.53346                  22791725.7034
        21.0004         17.0004
  23741657.5234   -5314739.83146  -3984682.66046                  23741665.1564
        14.0004         12.0004
  22348277.0784    4170401.81247   3298882.88246                  22348283.2544
        26.0004         22.0004
 98  6 18 20 16 15.0000000  0  8G17G 5G 6G13G26G10G23G30
  21899515.0704  -15560785.20348 -11982370.87146                  21899521.4804
        28.0004         24.5004
  24397545.1724   19640395.57245  15304722.55145                  24397554.7034
         9.0004          8.7504
  20663051.1334  -17135698.21348 -13308820.20647                  20663056.1724
        30.5004         26.2504
  25077195.8594     427317.70845    357744.97745                  25077200.8404
         8.5004          5.5004
  23449631.7814   -6108539.65846  -4594968.25345                  23449638.7704
        13.0004         11.7504
  22799913.9774    3683205.02147   2912809.12546                  22799920.7974
        20.5004         17.0004
  23732382.2974   -5363484.71146  -4022665.63346                  23732390.7274
        13.2504         12.5004
  22356688.1414    4214602.36847   3333324.84046                  22356694.1294
        26.0004         22.0004
 98  6 18 20 16 30.0000000  0  8G17G 5G 6G13G26G10G23G30
  21895433.3524  -15582233.82947 -11999084.07746                  21895439.7384
        26.7504         24.5004
  24407743.8594   19693989.76545  15346484.15045                  24407753.4494
         8.2504          8.2504
  20660453.8444  -17149347.53648 -13319456.04647                  20660458.7894
        30.5004         26.2504
  25079569.4224     439792.44645    367465.68545                  25079576.9614
         8.5004          4.5004
  23442647.2814   -6145240.96646  -4623566.59746                  23442655.2894
        12.7504         12.0004
  22808121.2114    3726332.68447   2946415.07046                  22808127.2114
        20.5004         16.2504
  23723116.4534   -5412174.18246  -4060605.44045                  23723124.6484
        13.2504         11.7504
  22365113.8754    4258879.81247   3367826.69946                  22365119.7464
        25.7504         21.5004
 98  6 18 20 16 45.0000000  0  8G17G 5G 6G13G26G10G23G30
  21891361.4384  -15603631.27347 -12015757.39646                  21891367.9304
        26.2504         24.7504
  24417944.4224   19747592.15145  15388252.17645                  24417954.3874
         8.2504          8.7504
  20657875.4224  -17162897.43948 -13330014.41247                  20657880.5204
        30.2504         26.2504
  25081966.1094     452390.41245    377282.22745                  25081971.0784
         7.7504          5.0004
  23435676.5164   -6181873.25946  -4652111.19546                  23435684.9454
        13.0004         12.0004
  22816341.8134    3769532.03047   2980076.89146                  22816347.9304
        20.5004         16.5004
  23713862.8524   -5460802.39846  -4098497.50446                  23713871.3404
        13.0004         12.5004
  22373554.5864    4303235.14747   3402389.26846                  22373560.7974
        25.2504         21.7504
 98  6 18 20 17  0.0000000  0  8G17G 5G 6G13G26G10G23G30
  21887299.6334  -15624978.17347 -12032391.33346                  21887305.8204
        26.7504         24.7504
  24428146.1954   19801201.24645  15430025.41045                  24428157.4734
         8.7504          8.7504
  20655315.2814  -17176350.65148 -13340497.43047                  20655320.4144
        30.2504         26.2504
  25084387.1254     465110.71645    387194.19245                  25084394.7814
         7.5004          4.5004
  23428718.0864   -6218438.26046  -4680603.34846                  23428726.3984
        12.5004         12.0004
  22824575.7664    3812803.92347   3013795.22246                  22824581.9184
        21.0004         16.2504
  23704620.8754   -5509370.46246  -4136342.69946                  23704628.7664
        12.7504         12.0004
  22382009.2734    4347664.75747   3437009.71246                  22382015.3554
        25.5004         21.5004
 98  6 18 20 17 15.0000000  0  7G17G 5G 6G26G10G23G30
  21883247.5314  -15646271.99348 -12048983.90946                  21883253.5084
        28.0004         24.5004
  24438348.4144   19854815.92545  15471802.99645                  24438359.2344
         8.7504          8.5004
  20652773.1094  -17189710.37548 -13350907.60847                  20652778.2304
        30.2504         26.2504
  23421772.0394   -6254939.02946  -4709045.42346                  23421779.2154
        12.5004         12.0004
  22832824.2194    3856148.63347   3047570.31946                  22832830.8054
        20.0004         16.5004
  23695389.0004   -5557880.55346  -4174142.70446                  23695395.7034
        12.7504         12.0004
  22390477.9774    4392168.68247   3471688.06146                  22390484.0704
        26.0004         21.5004
 98  6 18 20 17 30.0000000  0  7G17G 5G 6G26G10G23G30
  21879205.5394  -15667512.06847 -12065534.61346                  21879211.5864
        27.7504         24.5004
  24448552.2974   19908435.70645  15513584.56945                  24448563.2814
         9.0004          8.5004
  20650247.8204  -17202980.35448 -13361247.85247                  20650252.7544
        30.7504         26.5004
  23414837.8284   -6291381.10846  -4737441.79445                  23414845.1914
        12.2504         11.2504
  22841086.3984    3899566.61547   3081402.48946                  22841092.7854
        20.5004         16.0004
  23686168.9534   -5606333.38246  -4211898.09146                  23686176.9964
        13.0004         12.0004
  22398961.1094    4436746.27147   3506423.81446                  22398967.3324
        25.5004         21.5004
 98  6 18 20 17 45.0000000  0  7G17G 5G 6G26G10G23G30
  21875174.6724  -15688693.84647 -12082039.87846                  21875180.8484
        26.7504         24.7504
  24458757.2504   19962064.88345  15555373.45645                  24458766.9344
         9.0004          8.2504
  20647740.0864  -17216158.67748 -13371516.67047                  20647745.0784
        30.7504         26.2504
  23407914.7734   -6327761.38646  -4765790.02245                  23407922.5354
        12.7504         11.7504
  22849363.4534    3943062.35347   3115295.25846                  22849369.8054
        20.0004         16.2504
  23676960.5234   -5654725.27146  -4249606.00646                  23676967.4884
        13.5004         12.2504
  22407458.8134    4481402.64547   3541220.94346                  22407464.6604
        25.2504         21.5004
 98  6 18 20 18  0.0000000  0  7G17G 5G 6G26G10G23G30
  21871153.7274  -15709823.67547 -12098504.68546                  21871159.9964
        27.2504         25.0004
  24468963.7504   20015699.50045  15597166.58245                  24468973.8204
         9.2504          8.2504
  20645248.9924  -17229250.01748 -13381717.71247                  20645254.0204
        30.5004         26.5004
  23401003.3284   -6364080.71046  -4794090.72846                  23401011.3954
        13.5004         12.2504
  22857654.9454    3986634.20946   3149247.33646                  22857661.4264
        19.5004         16.2504
  23667762.1334   -5703062.12446  -4287271.03346                  23667768.9414
        14.0004         12.2504
  22415971.4304    4526137.47247   3576079.21346                  22415977.4414
        25.0004         21.2504
 98  6 18 20 18 15.0000000  0  7G17G 5G 6G26G10G23G30
  21867142.8594  -15730901.09248 -12114928.64546                  21867149.0004
        28.0004         25.0004
  24479171.3524   20069340.08645  15638964.36645                  24479182.2304
         9.0004          8.0004
  20642774.7504  -17242252.96948 -13391849.88347                  20642779.8364
        30.5004         26.5004
  23394103.9844   -6400336.57746  -4822342.00146                  23394112.0864
        12.5004         12.2504
  22865961.1564    4030282.90846   3183259.29246                  22865967.0514
        19.7504         15.5004
  23658574.3284   -5751343.94646  -4324893.17846                  23658582.2304
        13.5004         12.5004
  22424499.6644    4570952.40847   3610999.92346                  22424505.9574
        24.7504         21.5004
 98  6 18 20 18 30.0000000  0  7G17G 5G 6G26G10G23G30
  21863141.8524  -15751928.51448 -12131313.64446                  21863147.8984
        29.2504         25.0004
  24489379.5004   20122984.14945  15680764.83545                  24489388.8444
         9.0004          8.2504
  20640315.9304  -17255172.08948 -13401916.72847                  20640320.9574
        30.7504         27.0004
  23387215.8594   -6436534.98946  -4850548.51646                  23387223.7274
        12.2504         12.0004
  22874280.6724    4074003.54747   3217327.30746                  22874287.2814
        20.0004         15.7504
  23649395.9384   -5799575.55246  -4362476.20146                  23649404.0274
        13.5004         12.2504
  22433042.0784    4615843.09647   3645979.64546                  22433048.5234
        25.2504         21.7504
 98  6 18 20 18 45.0000000  0  7G17G 5G 6G26G10G23G30
  21859151.0004  -15772898.89248 -12147654.19246                  21859156.9414
        29.2504         25.0004
  24499588.9144   20176633.40745  15722569.40345                  24499598.1644
         8.5004          8.2504
  20637874.3594  -17268003.55848 -13411915.26947                  20637879.3164
        30.5004         26.7504
  23380339.5474   -6472671.78346  -4878706.99346                  23380346.8404
        13.5004         12.2504
  22882614.9454    4117801.29746   3251455.42246                  22882621.2384
        19.2504         15.7504
  23640228.1804   -5847753.73746  -4400017.60446                  23640236.2814
        13.0004         12.0004
  22441599.4694    4660812.32147   3681020.56146                  22441605.7974
        26.0004         21.7504
 98  6 18 20 19  0.0000000  0  7G17G 5G 6G26G10G23G30
  21855170.9534  -15793813.50148 -12163951.27546                  21855176.8954
        28.5004         24.5004
  24509797.5234   20230283.13044  15764374.26145                  24509808.3444
         7.2504          8.2504
  20635449.8134  -17280745.36748 -13421843.94847                  20635454.9344
        30.7504         26.7504
  23373474.7894   -6508745.97846  -4906816.68846                  23373481.6844
        13.5004         12.7504
  22890963.9384    4161675.25347   3285642.88946                  22890970.0784
        20.2504         16.0004
  23631069.5234   -5895881.35646  -4437519.58346                  23631077.1804
        13.5004         12.5004
  22450171.5634    4705859.12947   3716121.94746                  22450177.5634
        26.0004         21.5004
 98  6 18 20 19 15.0000000  0  7G17G 5G 6G26G10G23G30
  21851200.8364  -15814677.00148 -12180208.54146                  21851207.0124
        28.0004         24.5004
  24520006.8444   20283929.29745  15806176.37345                  24520017.7584
         7.5004          8.2504
  20633042.3674  -17293396.20848 -13431701.74247                  20633047.3484
        30.7504         26.7504
  23366621.3134   -6544757.77246  -4934877.75346                  23366628.7114
        13.0004         12.5004
  22899326.7584    4205619.93247   3319885.48446                  22899333.2974
        20.0004         15.7504
  23621920.2194   -5943960.80846  -4474984.03546                  23621928.1914
        13.2504         12.0004
  22458758.3754    4750983.12547   3751283.45946                  22458763.9184
        26.0004         21.2504
 98  6 18 20 19 30.0000000  0  7G17G 5G 6G26G10G23G30
  21847240.5314  -15835488.93747 -12196425.62846                  21847246.8954
        27.7504         24.7504
  24530215.7274   20337575.33545  15847978.41945                  24530227.1094
         8.2504          8.2504
  20630653.5944  -17305949.62848 -13441483.62847                  20630658.3054
        31.0004         26.5004
  23359781.3524   -6580700.71446  -4962885.20046                  23359790.2274
        12.5004         12.2504
  22907702.4304    4249636.49946   3354184.09346                  22907708.9224
        19.2504         16.0004
  23612780.6644   -5991988.31146  -4512408.02046                  23612789.0824
        13.2504         12.5004
  22467360.8054    4796188.83047   3786508.65446                  22467366.6884
        25.5004         21.2504
 98  6 18 20 19 45.0000000  0  7G17G 5G 6G26G10G23G30
  21843289.5474  -15856251.91748 -12212604.57146                  21843296.0164
        28.2504         25.0004
  24540424.1334   20391218.92645  15889778.55145                  24540436.0904
         8.5004          7.5004
  20628283.5784  -17318404.81748 -13451188.96447                  20628288.3834
        31.2504         26.5004
  23352955.5314   -6616572.54646  -4990837.25146                  23352962.7194
        13.2504         12.0004
  22916091.8754    4293721.98246   3388536.39546                  22916098.4494
        19.7504         16.0004
  23603651.8444   -6039962.54046  -4549790.48246                  23603660.3674
        13.2504         12.5004
  22475978.5554    4841474.25247   3821795.97246                  22475984.5434
        25.0004         21.2504
 98  6 18 20 20  0.0000000  0  7G17G 5G 6G26G10G23G30
  21839348.6094  -15876961.98348 -12228742.28046                  21839354.7624
        28.5004         25.2504
  24550630.8524   20444859.92245  15931576.63245                  24550641.7424
         8.7504          7.5004
  20625932.9304  -17330755.98048 -13460813.24247                  20625937.7344
        30.7504         26.2504
  23346145.0474   -6652365.96446  -5018728.15246                  23346152.0234
        14.5004         12.2504
  22924494.2424    4337876.32847   3422942.36546                  22924500.2774
        20.0004         15.7504
  23594532.8364   -6087880.95446  -4587129.46346                  23594540.6094
        13.2504         12.0004
  22484611.2274    4886840.46447   3857146.23746                  22484617.0044
        25.2504         21.0004
 98  6 18 20 20 15.0000000  0  7G17G 5G 6G26G10G23G30
  21835418.1174  -15897615.18348 -12244835.66746                  21835424.0944
        28.0004         24.7504
  24560837.7814   20498496.34945  15973371.19545                  24560848.3554
         8.5004          7.5004
  20623603.2344  -17342999.02548 -13470353.28247                  20623608.1334
        30.5004         26.2504
  23339347.7424   -6688081.66646  -5046558.50646                  23339354.7424
        14.7504         12.5004
  22932909.4144    4382098.20446   3457400.95946                  22932915.7074
        19.7504         15.2504
  23585425.2974   -6135741.66446  -4624423.46346                  23585433.4104
        13.5004         12.5004
  22493258.9384    4932283.69047   3892556.50946                  22493264.6914
        25.5004         21.2504
 98  6 18 20 20 30.0000000  0  7G17G 5G 6G26G10G23G30
  21831498.9614  -15918211.17347 -12260884.48446                  21831505.2544
        26.7504         24.5004
  24571042.2814   20552122.67445  16015157.84045                  24571051.9064
         8.0004          7.5004
  20621294.0234  -17355133.73848 -13479808.89647                  20621299.0394
        30.5004         26.2504
  23332565.4304   -6723722.68346  -5074330.66746                  23332571.6994
        14.0004         12.5004
  22941336.7194    4426385.19146   3491910.28446                  22941343.1644
        18.7504         15.2504
  23576329.1414   -6183543.64346  -4661671.70546                  23576337.1844
        13.2504         12.7504
  22501920.0784    4977797.64747   3928021.89246                  22501926.0314
        26.0004         21.5004
 98  6 18 20 20 45.0000000  0  7G17G 5G 6G26G10G23G30
  21827590.8754  -15938747.64047 -12276886.92446                  21827597.0044
        26.0004         24.7504
  24581246.0634   20605741.30545  16056938.49845                  24581255.7814
         8.7504          8.5004
  20619005.9384  -17367158.06648 -13489178.50147                  20619011.1294
        30.5004         26.2504
  23325798.0554   -6759287.04546  -5102043.13346                  23325805.0314
        14.0004         12.2504
  22949777.4844    4470740.98047   3526473.21446                  22949783.1214
        20.0004         15.2504
  23567244.8054   -6231280.38246  -4698869.10146                  23567252.9654
        13.2504         12.2504
  22510594.6024    5023383.28147   3963543.12846                  22510600.3094
        25.5004         21.7504
 98  6 18 20 21  0.0000000  0  7G17G 5G 6G26G10G23G30
  21823694.1174  -15959225.36947 -12292843.58346                  21823700.4804
        26.7504         25.0004
  24591447.5634   20659350.00345  16098711.42945                  24591458.9104
         8.7504          7.7504
  20616738.2974  -17379074.01148 -13498463.65047                  20616743.4304
        30.7504         26.2504
  23319045.1954   -6794772.70846  -5129694.25146                  23319052.4184
        14.7504         12.7504
  22958231.8364    4515168.29546   3561091.89746                  22958238.3874
        19.0004         15.2504
  23558173.0704   -6278951.83446  -4736015.64746                  23558181.8054
        13.5004         12.0004
  22519282.8594    5069040.82947   3999120.41146                  22519288.9884
        25.0004         21.5004
 98  6 18 20 21 15.0000000  0  7G17G 5G 6G26G10G23G30
  21819807.3284  -15979650.78248 -12308759.47946                  21819813.5274
        28.2504         25.2504
  24601646.1564   20712945.68645  16140474.25345                  24601654.6094
         8.5004          7.2504
  20614490.1644  -17390888.16448 -13507669.47647                  20614495.5084
        31.0004         26.7504
  23312307.0784   -6830184.54046  -5157287.84446                  23312314.4184
        14.5004         12.7504
  22966698.7664    4559663.33646   3595763.32746                  22966705.0004
        18.0004         15.5004
  23549113.5164   -6326562.06846  -4773114.50446                  23549121.4534
        13.5004         12.5004
  22527984.0314    5114765.66147   4034750.12046                  22527990.1134
        24.7504         21.0004
 98  6 18 20 21 30.0000000  0  7G17G 5G 6G26G10G23G30
  21815931.9454  -16000017.28648 -12324629.47846                  21815938.0514
        28.7504         25.2504
  24611844.9064   20766538.49845  16182234.78345                  24611857.6024
         8.5004          7.5004
  20612262.0864  -17402597.80948 -13516793.87647                  20612267.1374
        30.5004         26.7504
  23305582.3054   -6865518.00846  -5184820.34846                  23305589.3984
        13.7504         12.7504
  22975180.1484    4604232.91246   3630492.84246                  22975186.2194
        18.5004         15.0004
  23540066.3754   -6374104.70546  -4810160.66746                  23540074.4654
        13.7504         12.2504
  22536699.0394    5160562.86747   4070436.21146                  22536705.1684
        24.2504         20.7504
 98  6 18 20 21 45.0000000  0  7G17G 5G 6G26G10G23G30
  21812067.6644  -16020323.04548 -12340452.13646                  21812073.7344
        28.5004         25.0004
  24622041.6414   20820127.28945  16223992.23145                  24622056.6094
         7.5004          7.0004
  20610052.7974  -17414207.40548 -13525840.31147                  20610057.7544
        31.2504         26.7504
  23298873.5474   -6900775.40346  -5212293.57646                  23298879.1484
        13.5004         12.2504
  22983675.7344    4648876.50146   3665280.02346                  22983681.6884
        19.7504         15.2504
  23531032.3444   -6421578.99746  -4847153.57846                  23531040.7854
        14.0004         12.5004
  22545427.0314    5206429.39847   4106176.34946                  22545433.2664
        24.2504         20.7504
 98  6 18 20 22  0.0000000  0  7G17G 5G 6G26G10G23G30
  21808216.7034  -16040560.39547 -12356221.49546                  21808222.6804
        27.7504         24.7504
  24632239.5314   20873714.66745  16265748.55845                  24632250.1294
         8.0004          7.0004
  20607863.3594  -17425713.18248 -13534805.85147                  20607868.4224
        31.2504         26.5004
  23292179.2344   -6935952.25046  -5239704.06946                  23292186.3754
        14.5004         13.5004
  22992186.1414    4693599.80646   3700129.34746                  22992192.1644
        19.7504         15.2504
  23522012.1484   -6468979.77646  -4884089.21046                  23522019.8874
        14.0004         12.7504
  22554168.7424    5252368.60547   4141973.11246                  22554174.9654
        24.2504         21.0004
 98  6 18 20 22 15.0000000  0  7G17G 5G 6G26G10G23G30
  21804377.0864  -16060737.46747 -12371943.87946                  21804383.1094
        27.0004         24.7504
  24642435.8674   20927294.07745  16307498.64245                  24642443.1484
         8.0004          7.2504
  20605692.6564  -17437119.79348 -13543694.11647                  20605697.5434
        31.2504         26.7504
  23285499.0164   -6971057.08046  -5267058.41946                  23285506.6604
        14.7504         13.2504
  23000711.5554    4738400.18646   3735038.71346                  23000717.1454
        19.7504         15.2504
  23513004.7584   -6516313.72046  -4920972.76246                  23513012.8244
        13.0004         12.5004
  22562923.5004    5298374.27547   4177821.64846                  22562930.0634
        24.0004         21.0004
 98  6 18 20 22 30.0000000  0  7G17G 5G 6G26G10G23G30
  21800548.3834  -16080858.61848 -12387622.69446                  21800554.5474
        28.2504         25.0004
  24652629.5864   20980863.93345  16349241.32945                  24652641.2274
         7.5004          7.0004
  20603539.8984  -17448433.16148 -13552509.72947                  20603544.7384
        31.7504         26.5004
  23278831.8204   -7006093.51846  -5294359.48346                  23278840.5084
        14.2504         13.7504
  23009250.9924    4783275.96546   3770006.83846                  23009257.2274
        19.2504         15.2504
  23504009.7504   -6563581.06546  -4957804.40546                  23504017.9694
        13.5004         13.0004
  22571691.1254    5344446.15547   4213721.78946                  22571697.7934
        23.5004         21.0004
 98  6 18 20 22 45.0000000  0  7G17G 5G 6G26G10G23G30
  21796729.3594  -16100926.85748 -12403260.26146                  21796735.3484
        29.0004         25.5004
  24662822.3914   21034427.63944  16390979.22445                  24662833.1644
         6.7504          6.0004
  20601404.1804  -17459656.22748 -13561254.97447                  20601408.8674
        31.5004         26.5004
  23272176.9454   -7041063.54546  -5321608.80846                  23272185.3404
        13.5004         13.2504
  23017804.7344    4828227.40446   3805033.92146                  23017810.9924
        18.2504         14.7504
  23495027.5944   -6610782.66446  -4994584.83446                  23495036.3984
        13.5004         12.5004
  22580471.4384    5390587.97447   4249676.42346                  22580478.0594
        23.2504         20.5004
 98  6 18 20 23  0.0000000  0  7G17G 5G 6G26G10G23G30
  21792920.7114  -16120940.48448 -12418855.30046                  21792926.7234
        28.5004         25.2504
  24673014.8754   21087988.41144  16432714.76045                  24673025.9774
         7.0004          6.7504
  20599285.1954  -17470791.55648 -13569931.85847                  20599290.0234
        31.5004         26.5004
  23265535.0394   -7075966.29946  -5348805.70246                  23265544.0204
        14.0004         13.7504
  23026373.1724    4873254.82546   3840120.20046                  23026379.0204
        18.2504         15.0004
  23486057.1644   -6657921.02046  -5031315.97446                  23486065.9694
        14.2504         13.0004
  22589265.3594    5436799.67647   4285685.51646                  22589271.7814
        24.2504         20.7504
 98  6 18 20 23 15.0000000  0  7G17G 5G 6G26G10G23G30
  21789122.4144  -16140901.51248 -12434409.34046                  21789128.5084
        28.0004         25.2504
  24683206.3754   21141543.51144  16474445.99645                  24683217.5234
         7.2504          6.5004
  20597182.7974  -17481839.43848 -13578540.59247                  20597187.6374
        31.2504         26.5004
  23258906.0314   -7110804.11246  -5375952.00046                  23258914.0394
        14.7504         13.5004
  23034955.4844    4918353.34046   3875261.87346                  23034961.4964
        19.2504         15.5004
  23477098.6954   -6705001.00146  -5068001.63346                  23477106.8674
        14.2504         13.5004
  22598071.9064    5483078.40947   4321746.83346                  22598077.9304
        24.5004         20.2504
 98  6 18 20 23 30.0000000  0  7G17G 5G 6G26G10G23G30
  21785334.8524  -16160805.17147 -12449918.67746                  21785340.8634
        26.7504         25.0004
  24693397.4064   21195100.05344  16516178.20445                  24693409.3754
         7.2504          7.5004
  20595098.4844  -17492792.44748 -13587075.40247                  20595103.6994
        31.2504         26.2504
  23252289.8594   -7145571.72446  -5403043.59646                  23252297.4924
        14.7504         13.7504
  23043551.1334    4963523.57247   3910459.44446                  23043557.2384
        20.0004         15.7504
  23468151.6254   -6752016.04246  -5104636.66546                  23468159.8554
        13.2504         13.5004
  22606891.8914    5529427.50547   4357862.97346                  22606897.9144
        24.2504         20.2504
 98  6 18 20 23 45.0000000  0  7G17G 5G 6G26G10G23G30
  21781557.3914  -16180655.40748 -12465386.39446                  21781563.4494
        28.2504         25.0004
  24703589.3364   21248654.72945  16557909.11045                  24703598.2234
         7.5004          8.0004
  20593032.3284  -17503649.87148 -13595535.73247                  20593037.6024
        30.5004         26.5004
  23245686.7194   -7180271.64446  -5430082.45946                  23245693.9064
        14.5004         13.5004
  23052159.7034    5008761.87846   3945710.05246                  23052166.3134
        19.0004         16.0004
  23459217.2664   -6798967.11046  -5141221.87546                  23459226.0354
        13.5004         13.0004
  22615724.7734    5575844.27847   4394031.86546                  22615730.7504
        24.0004         20.2504
 98  6 18 20 24  0.0000000  0  7G17G 5G 6G26G10G23G30
  21777789.4064  -16200456.03948 -12480815.44846                  21777795.3834
        28.2504         25.0004
  24713778.6954   21302202.94744  16599634.89945                  24713789.8794
         7.0004          8.0004
  20590984.4304  -17514412.67848 -13603922.33047                  20590989.6214
        30.7504         26.5004
  23239095.7814   -7214907.86946  -5457071.66246                  23239103.1214
        14.5004         13.0004
  23060780.2034    5054063.86546   3981010.27646                  23060786.4614
        19.2504         15.5004
  23450293.8054   -6845857.16446  -5177759.53246                  23450302.7384
        13.5004         13.0004
  22624569.6804    5622325.26647   4430250.78646                  22624576.1134
        23.7504         20.2504
 98  6 18 20 24 15.0000000  0  7G17G 5G 6G26G10G23G30
  21774030.8134  -16220206.60748 -12496205.49146                  21774036.8594
        28.5004         25.0004
  24723967.7584   21355748.40144  16641358.54545                  24723978.2274
         7.2504          7.2504
  20588955.0394  -17525076.41148 -13612231.73047                  20588960.2894
        30.7504         26.5004
  23232516.8444   -7249478.47746  -5484009.76146                  23232524.7344
        14.5004         13.0004
  23069413.9304    5099432.36547   4016362.32746                  23069420.1054
        20.0004         16.0004
  23441383.1174   -6892684.85146  -5214248.58746                  23441391.2774
        14.0004         13.0004
  22633427.3524    5668871.79547   4466520.77746                  22633433.5984
        22.7504         20.0004
 98  6 18 20 24 30.0000000  0  7G17G 5G 6G26G10G23G30
  21770282.0234  -16239907.40347 -12511556.75846                  21770288.4224
        27.7504         24.7504
  24734157.0944   21409292.40445  16683081.03545                  24734168.5594
         8.0004          8.2504
  20586943.5784  -17535645.77648 -13620467.59747                  20586948.8754
        30.5004         26.5004
  23225950.1724   -7283985.02746  -5510897.94146                  23225957.6994
        14.0004         12.7504
  23078059.3754    5144864.13046   4051763.70046                  23078065.4924
        19.7504         15.5004
  23432483.9304   -6939451.89646  -5250690.39446                  23432492.0434
        14.2504         13.0004
  22642296.8524    5715482.92447   4502841.11146                  22642303.0514
        22.2504         19.7504
 98  6 18 20 24 45.0000000  0  7G17G 5G 6G26G10G23G30
  21766542.2664  -16259560.39547 -12526870.77946                  21766549.0274
        27.0004         24.7504
  24744345.4534   21462832.66145  16724800.64545                  24744355.6174
         8.5004          8.2504
  20584949.5084  -17546125.59648 -13628633.68847                  20584954.5944
        30.7504         26.2504
  23219396.0084   -7318427.95046  -5537736.51046                  23219402.5944
        14.0004         13.0004
  23086715.0784    5190353.00346   4087209.55446                  23086721.7464
        19.5004         15.5004
  23423594.6644   -6986164.57946  -5287089.82846                  23423602.6604
        13.5004         13.0004
  22651178.1724    5762153.79147   4539207.98546                  22651184.9104
        22.2504         20.0004
 98  6 18 20 25  0.0000000  0  7G17G 5G 6G26G10G23G30
  21762812.2584  -16279160.47048 -12542143.55746                  21762818.5634
        28.0004         24.7504
  24754534.7274   21516374.71645  16766521.63945                  24754545.1724
         8.2504          8.0004
  20582973.7424  -17556508.04148 -13636723.90947                  20582978.7704
        30.2504         26.0004
  23212855.4384   -7352799.10746  -5564519.19446                  23212862.7774
        13.7504         13.0004
  23095383.2504    5235903.20446   4122703.19246                  23095389.4384
        19.5004         15.7504
  23414715.7344   -7032820.57546  -5323445.09846                  23414724.1054
        13.7504         13.2504
  22660070.8524    5808885.35447   4575622.14246                  22660077.3324
        23.0004         19.7504
 98  6 18 20 25 15.0000000  0  7G17G 5G 6G26G10G23G30
  21759091.8914  -16298711.74448 -12557378.30146                  21759098.0784
        28.5004         25.0004
  24764723.4064   21569915.94345  16808241.98845                  24764732.4104
         8.2504          8.5004
  20581016.7194  -17566791.97348 -13644737.36347                  20581021.7704
        30.5004         26.0004
  23206329.0234   -7387094.39346  -5591242.72346                  23206336.8204
        14.2504         13.5004
  23104062.5084    5281512.39046   4158242.80446                  23104068.8954
        19.5004         16.0004
  23405848.5234   -7079421.57446  -5359757.53746                  23405857.3754
        14.0004         13.5004
  22668974.9774    5855676.12047   4612082.44746                  22668981.0824
        23.2504         19.7504
 98  6 18 20 25 30.0000000  0  7G17G 5G 6G26G10G23G30
  21755379.7584  -16318218.53847 -12572578.40146                  21755385.8404
        27.2504         25.0004
  24774911.4844   21623454.68945  16849960.45045                  24774922.0124
         8.0004          8.2504
  20579078.4534  -17576976.88448 -13652673.66347                  20579083.3634
        30.7504         26.0004
  23199817.5864   -7421314.50246  -5617907.69546                  23199825.4304
        14.7504         13.5004
  23112752.2664    5327177.06747   4193825.64246                  23112758.0204
        21.0004         16.0004
  23396990.9144   -7125967.16546  -5396026.78946                  23396998.9574
        14.0004         13.2504
  22677890.0234    5902526.69547   4648589.35446                  22677896.6914
        22.7504         19.5004
 98  6 18 20 25 45.0000000  0  7G17G 5G 6G26G10G23G30
  21751676.3914  -16337679.84547 -12587743.05046                  21751682.4844
        27.0004         24.7504
  24785100.3134   21676994.07345  16891679.35045                  24785111.9184
         8.2504          8.2504
  20577159.1254  -17587062.28248 -13660532.41747                  20577164.1294
        30.7504         26.0004
  23193320.6564   -7455455.35046  -5644510.90846                  23193328.3594
        15.2504         13.7504
  23121453.6724    5372902.64647   4229455.94346                  23121459.8244
        20.5004         16.2504
  23388144.7194   -7172452.33446  -5432248.92846                  23388152.4224
        14.2504         13.5004
  22686817.5394    5949439.67847   4685144.88546                  22686824.0784
        22.0004         19.2504
 98  6 18 20 26  0.0000000  0  7G17G 5G 6G26G10G23G30
  21747982.0864  -16357095.20047 -12602871.90546                  21747987.9804
        27.7504         24.7504
  24795287.7274   21730531.28245  16933396.55845                  24795299.4494
         8.2504          8.5004
  20575258.9224  -17597049.98448 -13668315.04947                  20575263.9614
        30.7504         26.2504
  23186839.7344   -7489513.77246  -5671049.87746                  23186847.2734
        15.7504         13.7504
  23130166.8054    5418691.59647   4265135.62146                  23130173.3794
        20.2504         16.2504
  23379310.9224   -7218875.85946  -5468423.06146                  23379317.5554
        14.7504         13.0004
  22695756.8134    5996416.49947   4721750.15746                  22695763.3754
        22.2504         19.2504
 98  6 18 20 26 15.0000000  0  7G17G 5G 6G26G10G23G30
  21744296.0084  -16376465.60348 -12617965.72346                  21744301.9384
        29.0004         24.7504
  24805474.5704   21784063.10445  16975109.59645                  24805485.3444
         8.7504          8.2504
  20573376.3914  -17606941.55748 -13676022.76947                  20573381.3484
        30.2504         26.0004
  23180374.6884   -7523487.69446  -5697523.02646                  23180381.5474
        16.0004         14.2504
  23138891.8134    5464541.54747   4300862.82746                  23138898.0944
        20.5004         16.2504
  23370488.3914   -7265239.43746  -5504550.46246                  23370495.0704
        15.0004         13.2504
  22704708.7584    6043456.32347   4758404.53446                  22704714.9574
        23.0004         18.7504
 98  6 18 20 26 30.0000000  0  7G17G 5G 6G26G10G23G30
  21740618.7814  -16395790.53148 -12633024.10046                  21740624.5234
        30.5004         24.7504
  24815660.3524   21837587.07145  17016816.49845                  24815672.4844
         9.2504          8.0004
  20571512.3284  -17616738.47848 -13683656.73847                  20571517.4144
        30.5004         26.0004
  23173926.2114   -7557374.12846  -5723927.98346                  23173932.7734
        16.0004         13.7504
  23147628.2274    5510451.66846   4336636.93646                  23147634.4844
        19.5004         15.7504
  23361676.9384   -7311544.16446  -5540632.01646                  23361684.3364
        14.5004         13.2504
  22713672.1334    6090560.72447   4795109.22746                  22713677.8754
        23.0004         19.0004
 98  6 18 20 26 45.0000000  0  7G17G 5G 6G26G10G23G30
  21736949.9454  -16415069.52648 -12648046.68646                  21736955.8984
        29.0004         25.2504
  24825844.4224   21891104.81345  17058518.59945                  24825854.0704
         9.0004          8.2504
  20569666.6334  -17626437.39448 -13691214.33947                  20569671.7544
        30.0004         26.0004
  23167495.2734   -7591169.20546  -5750261.74746                  23167501.9774
        15.2504         14.0004
  23156376.3984    5556423.05947   4372458.77746                  23156382.3874
        20.2504         15.5004
  23352876.7974   -7357788.09746  -5576666.20646                  23352884.4414
        14.7504         13.2504
  22722648.1954    6137730.92347   4831865.18846                  22722654.4064
        22.0004         18.7504
 98  6 18 20 27  0.0000000  0  7G17G 5G 6G26G10G23G30
  21733289.4534  -16434305.90748 -12663036.06346                  21733295.6414
        28.0004         25.2504
  24836026.5084   21944614.17245  17100214.12545                  24836036.5204
         8.5004          7.0004
  20567840.3834  -17636034.58648 -13698692.67147                  20567845.4574
        30.5004         26.2504
  23161081.2274   -7624874.17346  -5776525.33246                  23161088.7424
        15.0004         13.7504
  23165136.3204    5602457.67146   4408329.89546                  23165142.5084
        19.5004         15.5004
  23344088.5554   -7403970.87046  -5612652.72146                  23344095.7304
        14.5004         13.7504
  22731636.5474    6184966.16947   4868671.83446                  22731642.8754
        21.2504         19.0004
 98  6 18 20 27 15.0000000  0  7G17G 5G 6G26G10G23G30
  21729636.8364  -16453499.99748 -12677992.48946                  21729642.7894
        28.2504         24.7504
  24846206.6884   21998111.71745  17141900.45645                  24846218.2704
         9.0004          6.7504
  20566033.2734  -17645530.84748 -13706092.35647                  20566038.3594
        31.0004         26.2504
  23154683.9064   -7658490.05646  -5802719.45646                  23154691.8794
        15.0004         14.0004
  23173909.1724    5648556.97147   4444251.39946                  23173915.2424
        20.0004         15.7504
  23335312.2894   -7450090.52046  -5648590.07446                  23335320.8014
        14.7504         13.7504
  22740638.1484    6232267.54647   4905530.02046                  22740644.6994
        20.7504         19.0004
 98  6 18 20 27 30.0000000  0  7G17G 5G 6G26G10G23G30
  21725993.2114  -16472647.08148 -12692912.29646                  21725999.2934
        28.2504         25.2504
  24856384.5164   22051597.51245  17183577.64145                  24856396.7544
         8.2504          7.2504
  20564245.4454  -17654926.86948 -13713413.93247                  20564250.3794
        31.0004         26.5004
  23148303.7734   -7692017.66146  -5828844.80246                  23148311.6994
        15.7504         13.7504
  23182694.0634    5694723.33246   4480225.17146                  23182700.3324
        19.0004         15.7504
  23326548.1884   -7496144.22246  -5684476.01546                  23326556.3484
        14.7504         13.7504
  22749651.9694    6279636.35847   4942440.75246                  22749658.0744
        21.5004         18.7504
 98  6 18 20 27 45.0000000  0  7G17G 5G 6G26G10G23G30
  21722359.3204  -16491741.80148 -12707791.28446                  21722365.1564
        28.7504         25.0004
  24866561.0164   22105072.16745  17225246.11845                  24866570.6884
         8.5004          6.5004
  20562477.3594  -17664219.15848 -13720654.68347                  20562482.1764
        31.5004         26.2504
  23141940.8754   -7725455.37246  -5854900.10746                  23141947.8874
        15.7504         13.5004
  23191492.3984    5740959.56046   4516253.36646                  23191499.0204
        18.7504         15.7504
  23317797.9064   -7542128.04346  -5720307.51846                  23317805.0594
        14.5004         14.2504
  22758678.7504    6327071.59347   4979403.22646                  22758685.1604
        21.2504         18.7504
 98  6 18 20 28  0.0000000  0  7G17G 5G 6G26G10G23G30
  21718736.1484  -16510782.76148 -12722628.39246                  21718742.0554
        28.7504         25.0004
  24876734.0634   22158531.36045  17266902.61045                  24876746.6294
         8.2504          7.5004
  20560728.3524  -17673408.78848 -13727815.42847                  20560733.0274
        31.5004         26.5004
  23135594.7664   -7758804.57346  -5880886.44946                  23135601.9304
        14.7504         13.2504
  23200303.9774    5787264.63746   4552335.20246                  23200310.2934
        18.5004         15.7504
  23309060.2974   -7588044.29646  -5756086.36946                  23309068.4104
        14.5004         13.7504
  22767717.9844    6374571.32347   5016415.95946                  22767724.3594
        21.7504         18.7504
 98  6 18 20 28 15.0000000  0  7G17G 5G 6G26G10G23G30
  21715123.4224  -16529767.52947 -12737421.71646                  21715129.4694
        27.5004         25.0004
  24886903.8054   22211973.65945  17308545.80245                  24886913.8984
         7.5004          7.0004
  20558999.5944  -17682493.46248 -13734894.39347                  20559004.3284
        31.7504         26.2504
  23129264.9384   -7792066.73746  -5906804.95546                  23129272.1954
        15.0004         13.2504
  23209127.6954    5833633.51346   4588466.78846                  23209133.8244
        19.0004         15.7504
  23300334.6024   -7633895.98346  -5791814.89246                  23300342.0124
        14.5004         14.0004
  22776768.4774    6422133.90847   5053477.68146                  22776775.0394
        21.2504         18.5004
 98  6 18 20 28 30.0000000  0  7G17G 5G 6G26G10G23G30
  21711522.3914  -16548691.50547 -12752167.66446                  21711528.5664
        26.7504         25.0004
  24897070.4144   22265403.19944  17350179.17645                  24897077.8834
         7.2504          6.5004
  20557291.1564  -17691471.07548 -13741889.93547                  20557295.9384
        31.7504         26.2504
  23122952.2814   -7825243.18746  -5932656.69046                  23122958.9964
        16.2504         13.7504
  23217963.8594    5880067.15746   4624648.83046                  23217970.4694
        18.7504         15.7504
  23291621.7034   -7679681.93846  -5827492.21346                  23291629.7934
        14.2504         13.7504
  22785831.1724    6469757.92947   5090587.27046                  22785837.4884
        21.5004         18.5004
 98  6 18 20 28 45.0000000  0  7G17G 5G 6G26G10G23G30
  21707932.2584  -16567556.92147 -12766867.97446                  21707938.3404
        27.0004         25.0004
  24907236.7814   22318820.74944  17391803.10545                  24907244.2624
         7.2504          5.7504
  20555602.3204  -17700345.77348 -13748805.29147                  20555607.0204
        31.2504         26.2504
  23116654.9774   -7858336.40546  -5958443.57046                  23116661.4694
        17.0004         14.0004
  23226811.8594    5926562.51846   4660878.95046                  23226818.4694
        18.2504         15.5004
  23282921.6024   -7725402.94446  -5863118.92146                  23282929.5744
        14.2504         13.7504
  22794904.8984    6517439.56547   5127741.76046                  22794911.2274
        21.5004         18.2504
 98  6 18 20 29  0.0000000  0  7G17G 5G 6G26G10G23G30
  21704353.5234  -16586364.01748 -12781522.83846                  21704359.6294
        29.2504         25.2504
  24917399.4144   22372227.07144  17433418.38045                  24917409.3914
         7.2504          7.0004
  20553933.1414  -17709117.06948 -13755640.06447                  20553937.9104
        31.0004         26.0004
  23110373.0634   -7891347.95346  -5984166.80746                  23110379.8714
        16.7504         14.0004
  23235671.0864    5973117.95146   4697155.87646                  23235677.6134
        18.7504         15.7504
  23274233.5554   -7771058.42046  -5898694.54346                  23274241.9144
        14.5004         14.0004
  22803989.1884    6565178.59047   5164940.95646                  22803995.5634
        21.2504         18.2504
 98  6 18 20 29 15.0000000  0  7G17G 5G 6G26G10G23G30
  21700785.9304  -16605111.38148 -12796131.16846                  21700791.9884
        29.5004         24.7504
  24927559.1024   22425618.66044  17475022.07945                  24927570.3204
         7.0004          6.7504
  20552282.6884  -17717789.61348 -13762397.89147                  20552287.6564
        31.0004         26.2504
  23104106.0084   -7924278.56646  -6009826.96846                  23104112.7344
        16.0004         13.7504
  23244540.9144    6019727.70546   4733475.13746                  23244546.8204
        19.0004         15.2504
  23265557.7194   -7816650.70446  -5934220.95046                  23265565.2814
        15.7504         14.5004
  22813084.5704    6612973.96547   5202184.05546                  22813090.6414
        21.5004         18.0004
 98  6 18 20 29 30.0000000  0  7G17G 5G 6G26G10G23G30
  21697229.7814  -16623798.18548 -12810692.32246                  21697235.8874
        28.2504         24.7504
  24937717.3444   22478996.51844  17516615.16645                  24937730.4844
         7.2504          7.0004
  20550651.2114  -17726363.70848 -13769079.00147                  20550656.1564
        31.0004         26.0004
  23097854.9384   -7957127.14246  -6035423.20946                  23097861.6414
        15.2504         13.5004
  23253419.8984    6066387.53246   4769833.43046                  23253425.9694
        19.5004         15.7504
  23256893.9614   -7862179.32046  -5969697.74946                  23256902.1684
        16.2504         14.7504
  22822190.0084    6660823.83347   5239469.64146                  22822195.9384
        22.2504         18.0004
 98  6 18 20 29 45.0000000  0  7G17G 5G 6G26G10G23G30
  21693685.4224  -16642424.83047 -12825206.58146                  21693691.4804
        27.7504         25.0004
  24947872.5554   22532363.07144  17558199.42145                  24947884.8984
         6.7504          6.7504
  20549039.4224  -17734833.94248 -13775679.18847                  20549044.4144
        31.0004         26.0004
  23091620.2894   -7989891.25446  -6060953.63446                  23091627.2194
        15.7504         13.2504
  23262307.6094    6113093.83646   4806227.92146                  23262313.5634
        19.5004         15.7504
  23248242.3984   -7907642.63246  -6005123.65446                  23248250.7704
        16.0004         14.7504
  22831306.6414    6708730.33147   5276799.35246                  22831312.7814
        22.2504         18.2504
 98  6 18 20 30  0.0000000  0  6G17G 6G26G10G23G30
  21690151.3914  -16660996.10548 -12839677.69946                  21690157.4264
        29.0004         25.0004
  20547446.6804  -17743204.22648 -13782201.49047                  20547451.6024
        30.7504         26.2504
  23085401.0394   -8022574.44346  -6086420.98446                  23085408.5904
        16.0004         14.0004
  23271203.5084    6159842.40246   4842655.35546                  23271209.8134
        19.7504         16.2504
  23239602.9614   -7953043.45246  -6040500.85446                  23239610.0204
        16.0004         14.7504
  22840433.3444    6756691.80247   5314171.89846                  22840439.7894
        22.2504         18.5004
 98  6 18 20 30 15.0000000  0  6G17G 6G26G10G23G30
  21686628.8364  -16679507.78048 -12854102.38046                  21686634.9064
        28.7504         25.0004
  20545873.7344  -17751470.75148 -13788642.94147                  20545878.8204
        31.2504         26.2504
  23079197.7194   -8055172.62346  -6111822.13546                  23079205.1884
        16.2504         14.0004
  23280108.9224    6206639.31146   4879120.44746                  23280114.6644
        19.0004         15.7504
  23230976.3834   -7998377.19646  -6075825.81146                  23230983.7114
        16.2504         15.0004
  22849571.6174    6804714.74647   5351592.34046                  22849578.4024
        21.7504         18.5004
 98  6 18 20 30 30.0000000  0  6G17G 6G26G10G23G30
  21683116.5944  -16697964.35748 -12868484.11546                  21683122.6294
        28.5004         25.0004
  20544319.8134  -17759635.56348 -13795005.13247                  20544324.7814
        31.2504         26.2504
  23073010.0784   -8087688.39446  -6137159.04846                  23073016.8984
        16.0004         14.0004
  23289023.0864    6253484.22646   4915622.96046                  23289029.2384
        19.2504         15.5004
  23222361.8984   -8043644.92746  -6111099.30446                  23222369.4144
        16.0004         14.7504
  22858721.5864    6852797.49547   5389059.37346                  22858728.3244
        21.5004         18.5004
 98  6 18 20 30 45.0000000  0  6G17G 6G26G10G23G30
  21679613.2274  -16716374.94448 -12882830.02346                  21679619.2624
        29.5004         25.0004
  20542784.0554  -17767705.62848 -13801293.50047                  20542789.2704
        31.2504         26.2504
  23066837.5554   -8120126.12046  -6162435.13846                  23066844.2704
        16.2504         14.5004
  23297946.8284    6300377.28046   4952162.97446                  23297952.9924
        19.7504         15.7504
  23213759.8134   -8088849.58446  -6146323.67446                  23213767.6454
        16.2504         14.5004
  22867881.8134    6900935.48647   5426569.44346                  22867888.1054
        21.2504         18.5004
 98  6 18 20 31  0.0000000  0  6G17G 6G26G10G23G30
  21676118.2194  -16734741.38148 -12897141.52046                  21676124.2894
        28.5004         24.7504
  20541267.0944  -17775677.25748 -13807505.16147                  20541272.1214
        30.5004         26.2504
  23060680.0314   -8152484.20146  -6187649.17746                  23060686.7234
        16.5004         14.0004
  23306879.2664    6347319.23646   4988741.09746                  23306885.0664
        18.2504         15.2504
  23205169.2034   -8133992.01346  -6181499.51346                  23205176.7544
        16.0004         14.7504
  22877053.4614    6949131.56147   5464124.79146                  22877060.1294
        21.2504         18.2504
 98  6 18 20 31 15.0000000  0  6G17G 6G26G10G23G30
  21672632.2894  -16753059.24848 -12911415.17946                  21672638.2664
        28.0004         24.7504
  20539769.8364  -17783546.35648 -13813636.92347                  20539775.0164
        30.5004         26.2504
  23054538.3204   -8184760.48346  -6212799.46846                  23054544.4734
        17.5004         14.0004
  23315822.3134    6394315.33346   5025361.40346                  23315829.0394
        18.7504         15.5004
  23196591.0234   -8179070.58046  -6216625.62546                  23196598.7854
        16.0004         14.5004
  22886236.0314    6997386.97747   5501726.36846                  22886242.3134
        21.2504         18.0004
 98  6 18 20 31 30.0000000  0  6G17G 6G26G10G23G30
  21669155.4924  -16771330.29948 -12925652.34746                  21669161.5634
        28.0004         25.0004
  20538292.1724  -17791310.90848 -13819687.23247                  20538297.3984
        30.7504         26.5004
  23048411.9694   -8216952.91246  -6237884.43146                  23048417.5234
        17.5004         14.0004
  23324776.8594    6441371.04146   5062028.16046                  23324783.1414
        18.0004         15.7504
  23188025.8754   -8224082.99746  -6251700.18646                  23188033.9884
        15.7504         14.7504
  22895429.9924    7045700.42747   5539373.17946                  22895436.2974
        21.2504         18.0004
 98  6 18 20 31 45.0000000  0  6G17G 6G26G10G23G30
  21665687.5704  -16789554.20747 -12939852.78546                  21665693.5354
        27.7504         25.5004
  20536835.6414  -17798966.39148 -13825652.54547                  20536840.9734
        31.0004         26.2504
  23042302.0314   -8249058.90046  -6262902.04046                  23042308.3484
        16.5004         14.0004
  23333743.9774    6488492.75146   5098746.34046                  23333750.4924
        19.0004         16.0004
  23179473.1484   -8269025.56746  -6286720.31046                  23179480.3594
        16.0004         14.7504
  22904635.0474    7094074.15447   5577066.96046                  22904641.6914
        21.2504         18.0004
 98  6 18 20 32  0.0000000  0  6G17G 6G26G10G23G30
  21662228.8284  -16807730.41948 -12954016.05446                  21662234.8524
        28.5004         25.5004
  20535398.9614  -17806516.03448 -13831535.38847                  20535404.2464
        31.5004         26.5004
  23036208.4224   -8281081.08046  -6287854.32946                  23036214.3754
        16.5004         13.5004
  23342723.7814    6535683.65646   5135518.44946                  23342730.3204
        17.0004         15.7504
  23170933.7424   -8313899.51346  -6321687.00346                  23170941.2114
        14.7504         13.2504
  22913851.2734    7142505.71347   5614805.79746                  22913858.0594
        20.0004         18.2504
 98  6 18 20 32 15.0000000  0  6G17G 6G26G10G23G30
  21658780.0084  -16825854.55548 -12968138.76046                  21658785.9614
        30.5004         25.2504
  20533982.4144  -17813959.18648 -13837335.25447                  20533987.4654
        31.5004         26.7504
  23030130.8754   -8313017.90046  -6312740.10346                  23030137.5084
        16.7504         14.0004
  23351718.3364    6582949.89346   5172349.25746                  23351724.3954
        18.0004         15.5004
  23162408.0944   -8358701.80446  -6356597.80346                  23162415.4694
        16.0004         14.5004
  22923078.0864    7190993.24147   5652588.23746                  22923085.1804
        20.5004         18.0004
 98  6 18 20 32 30.0000000  0  6G17G 6G26G10G23G30
  21655340.2584  -16843930.60648 -12982223.99146                  21655346.2814
        29.0004         25.0004
  20532586.1804  -17821296.85048 -13843052.92047                  20532591.0314
        31.7504         26.5004
  23024069.4534   -8344870.66246  -6337560.37946                  23024075.6414
        16.7504         14.0004
  23360726.4304    6630286.15246   5209234.62146                  23360733.0864
        17.0004         15.2504
  23153895.5864   -8403435.93046  -6391455.49146                  23153902.9964
        15.5004         14.7504
  22932315.0554    7239533.90147   5690412.08246                  22932321.9734
        20.0004         18.0004
 98  6 18 20 32 45.0000000  0  6G17G 6G26G10G23G30
  21651909.7274  -16861957.07847 -12996270.58046                  21651915.6804
        27.5004         25.0004
  20531210.2424  -17828528.28548 -13848687.81047                  20531215.2464
        31.7504         26.7504
  23018025.0164   -8376635.14446  -6362311.87046                  23018031.1334
        17.7504         14.7504
  23369746.9064    6677690.89046   5246173.36346                  23369753.1174
        17.0004         15.0004
  23145396.7894   -8448098.43146  -6426257.38846                  23145403.5044
        15.5004         14.5004
  22941562.3524    7288126.82247   5728276.65146                  22941569.0664
        21.0004         17.7504
 98  6 18 20 33  0.0000000  0  6G17G 6G26G10G23G30
  21648488.9694  -16879932.85548 -13010277.64546                  21648495.0514
        28.2504         25.5004
  20529854.5474  -17835651.59548 -13854238.44547                  20529859.5164
        31.2504         26.5004
  23011997.7894   -8408308.13046  -6386992.07946                  23012004.2814
        17.0004         14.5004
  23378779.5164    6725158.15346   5283160.80946                  23378786.3484
        16.7504         15.2504
  23136911.0704   -8492690.34646  -6461004.30846                  23136917.4574
        15.2504         14.2504
  22950818.8134    7336770.87747   5766181.06446                  22950825.2234
        20.7504         18.2504
 98  6 18 20 33 15.0000000  0  6G17G 6G26G10G23G30
  21645078.6254  -16897854.37648 -13024242.46447                  21645084.7664
        30.0004         25.7504
  20528519.8284  -17842665.26148 -13859703.64547                  20528524.9144
        31.2504         26.2504
  23005988.4144   -8439887.43246  -6411599.25946                  23005994.6604
        17.0004         14.7504
  23387823.8054    6772685.32346   5320194.93046                  23387830.8164
        16.2504         14.5004
  23128438.6174   -8537211.58746  -6495696.14146                  23128445.3094
        15.5004         14.5004
  22960085.5164    7385467.35547   5804126.32646                  22960091.7504
        20.2504         17.7504
 98  6 18 20 33 30.0000000  0  6G17G 6G26G10G23G30
  21641678.5164  -16915722.74648 -13038165.87346                  21641684.5634
        28.0004         25.2504
  20527206.1094  -17849569.47048 -13865083.55347                  20527211.1254
        31.7504         26.5004
  22999997.0164   -8471373.60446  -6436133.89646                  23000003.7544
        16.7504         14.5004
  23396879.1804    6820270.15946   5357273.98146                  23396886.3914
        16.7504         14.7504
  23119980.9534   -8581658.50846  -6530330.04546                  23119987.6804
        16.2504         14.2504
  22969361.7114    7434214.62747   5842111.18246                  22969368.2274
        20.5004         17.7504
 98  6 18 20 33 45.0000000  0  6G17G 6G26G10G23G30
  21638287.2504  -16933543.65047 -13052052.26846                  21638293.2624
        27.7504         25.0004
  20525912.2734  -17856369.07948 -13870381.95047                  20525917.2774
        32.2504         26.5004
  22994021.8444   -8502770.36746  -6460598.84146                  22994028.2544
        16.2504         14.5004
  23405943.0234    6867902.11146   5394389.76646                  23405949.1174
        16.7504         14.2504
  23111536.0314   -8626035.72046  -6564909.62946                  23111542.9614
        16.2504         15.0004
  22978647.1804    7483009.87747   5880133.41446                  22978654.1564
        20.2504         18.0004
 98  6 18 20 34  0.0000000  0  6G17G 6G26G10G23G30
  21634906.0634  -16951312.65548 -13065898.23946                  21634912.1094
        30.2504         25.2504
  20524638.6804  -17863062.72448 -13875597.78247                  20524643.5434
        32.2504         26.5004
  22988064.0234   -8534077.41646  -6484993.88346                  22988071.5274
        15.7504         15.0004
  23415015.1804    6915577.41146   5431539.33546                  23415021.9184
        17.2504         14.2504
  23103104.9534   -8670340.71146  -6599432.94446                  23103112.8794
        16.0004         14.7504
  22987942.3054    7531854.96847   5918194.48246                  22987948.9844
        20.2504         17.7504
 98  6 18 20 34 15.0000000  0  6G17G 6G26G10G23G30
  21631534.2814  -16969031.50248 -13079705.13546                  21631540.1884
        29.5004         25.2504
  20523384.6884  -17869651.57548 -13880731.95347                  20523389.5514
        32.5004         26.7504
  22982124.1884   -8565291.75346  -6509316.69846                  22982131.9384
        16.0004         14.5004
  23424094.9774    6963292.71946   5468720.07146                  23424102.0234
        15.7504         14.0004
  23094687.5944   -8714574.43146  -6633900.72646                  23094695.2624
        16.0004         15.2504
  22997246.6954    7580749.53047   5956294.08346                  22997253.0354
        20.7504         17.2504
 98  6 18 20 34 30.0000000  0  6G17G 6G26G10G23G30
  21628171.3364  -16986703.58147 -13093475.57246                  21628177.4884
        27.5004         25.0004
  20522150.9844  -17876135.00948 -13885783.98547                  20522155.8594
        32.2504         26.7504
  22976202.1884   -8596412.41546  -6533566.50146                  22976209.8914
        16.2504         14.2504
  23433181.5704    7011042.24746   5505927.45046                  23433188.8634
        17.2504         14.7504
  23086283.4694   -8758737.69046  -6668313.60546                  23086291.5004
        16.5004         15.0004
  23006560.9534    7629695.79047   5994433.96946                  23006567.3404
        20.2504         17.2504
 98  6 18 20 34 45.0000000  0  6G17G 6G26G10G23G30
  21624817.4454  -17004327.79648 -13107208.71446                  21624823.5744
        29.2504         25.2504
  20520937.4384  -17882510.96648 -13890752.26447                  20520942.3134
        31.7504         26.7504
  22970298.9694   -8627435.51546  -6557740.28546                  22970305.7544
        16.5004         13.7504
  23442274.8524    7058826.21746   5543161.67746                  23442282.0984
        16.7504         14.2504
  23077893.4224   -8802828.50146  -6702670.04546                  23077901.1484
        16.5004         15.0004
  23015885.1094    7678696.04047   6032615.93846                  23015891.0634
        20.5004         17.0004
 98  6 18 20 35  0.0000000  0  6G17G 6G26G10G23G30
  21621472.5314  -17021905.12148 -13120905.33046                  21621478.6254
        30.0004         25.5004
  20519744.0784  -17888782.51948 -13895639.19047                  20519749.3164
        31.2504         26.2504
  22964413.3054   -8658363.54446  -6581839.99946                  22964419.3164
        16.5004         14.0004
  23451373.8134    7106642.86246   5580421.37546                  23451380.4454
        18.0004         14.5004
  23069516.1174   -8846851.35046  -6736973.50046                  23069523.6334
        17.0004         15.0004
  23025218.9064    7727745.33846   6070836.11146                  23025225.2344
        19.5004         16.7504
 98  6 18 20 35 15.0000000  0  6G17G 6G26G10G23G30
  21618136.9224  -17039434.81948 -13134564.83946                  21618142.9344
        28.5004         25.5004
  20518570.3914  -17894950.03348 -13900445.04847                  20518575.6644
        31.5004         26.2504
  22958545.5234   -8689199.53946  -6605868.00646                  22958552.0864
        16.7504         14.7504
  23460480.2194    7154495.51046   5617709.13846                  23460486.8874
        18.5004         14.7504
  23061151.7114   -8890807.80346  -6771225.23646                  23061158.4614
        17.5004         15.0004
  23034562.5004    7776844.59546   6109095.22446                  23034569.2384
        19.7504         17.2504
 98  6 18 20 35 30.0000000  0  6G17G 6G26G10G23G30
  21614809.8284  -17056917.75748 -13148187.88347                  21614815.9104
        28.5004         26.0004
  20517416.5394  -17901013.94048 -13905170.17447                  20517421.3674
        31.7504         26.5004
  22952694.3754   -8719946.69346  -6629826.76946                  22952701.6334
        16.2504         14.7504
  23469594.0784    7202388.10446   5655028.02546                  23469600.2194
        18.7504         14.7504
  23052799.8444   -8934697.06846  -6805424.61246                  23052807.0084
        17.0004         15.7504
  23043915.2664    7825992.21046   6147392.02546                  23043922.4654
        19.5004         16.7504
 98  6 18 20 35 45.0000000  0  6G17G 6G26G10G23G30
  21611491.8754  -17074354.21148 -13161774.71347                  21611497.8754
        30.7504         25.7504
  20516282.1334  -17906974.85448 -13909815.04347                  20516287.0204
        32.0004         26.5004
  22946860.5474   -8750603.57146  -6653715.19846                  22946867.3554
        16.2504         14.5004
  23478714.9064    7250322.19146   5692379.25846                  23478721.7504
        17.0004         14.5004
  23044460.5474   -8978519.03646  -6839571.56246                  23044467.8524
        16.5004         15.5004
  23053276.6484    7875188.62446   6185726.84246                  23053283.0474
        19.2504         16.7504
 98  6 18 20 36  0.0000000  0  6G17G 6G26G10G23G30
  21608183.0634  -17091742.22848 -13175323.82447                  21608189.1564
        30.0004         25.7504
  20515167.5164  -17912833.16448 -13914379.96447                  20515172.6024
        32.0004         26.7504
  22941044.2424   -8781168.20346  -6677531.74246                  22941051.0394
        16.5004         14.7504
  23487845.3444    7298301.59246   5729765.74446                  23487852.1764
        17.7504         15.2504
  23036134.3524   -9022273.96046  -6873666.26546                  23036141.8554
        16.2504         15.5004
  23062647.7034    7924433.45846   6224099.41046                  23062654.3594
        19.5004         16.7504
 98  6 18 20 36 15.0000000  0  6G17G 6G26G10G23G30
  21604883.1644  -17109082.45348 -13188835.67746                  21604889.2234
        28.5004         25.5004
  20514072.3674  -17918587.40948 -13918863.79547                  20514077.2894
        32.2504         26.5004
  22935245.7194   -8811638.11146  -6701274.46246                  22935252.8484
        16.5004         14.5004
  23496985.6954    7346332.64346   5767192.51346                  23496992.4454
        18.0004         14.7504
  23027820.5004   -9065961.96146  -6907708.80146                  23027827.7234
        16.5004         15.2504
  23072027.4924    7973724.57946   6262508.03246                  23072034.4104
        19.7504         15.7504
 98  6 18 20 36 30.0000000  0  6G17G 6G26G10G23G30
  21601591.9614  -17126377.96948 -13202312.70146                  21601597.8914
        29.5004         25.5004
  20512996.5784  -17924240.33148 -13923268.67447                  20513001.4304
        31.7504         26.2504
  22929465.1174   -8842016.12346  -6724945.58546                  22929472.2464
        16.2504         14.7504
  23506135.2814    7394415.35846   5804659.52646                  23506142.1024
        18.5004         15.7504
  23019518.9924   -9109586.95246  -6941702.26446                  23019526.2624
        17.0004         15.5004
  23081415.5164    8023057.84946   6300949.49246                  23081421.9384
        19.0004         16.2504
 98  6 18 20 36 45.0000000  0  6G17G 6G26G10G23G30
  21598309.8284  -17143626.53648 -13215753.14247                  21598315.8284
        30.2504         25.7504
  20511940.6644  -17929790.66048 -13927593.60747                  20511945.4344
        31.7504         26.2504
  22923701.4304   -8872303.68746  -6748546.24246                  22923708.5124
        16.0004         14.5004
  23515296.0164    7442553.71746   5842169.91346                  23515302.7544
        18.5004         15.5004
  23011230.0084   -9153145.59646  -6975644.01146                  23011237.2304
        17.0004         15.2504
  23090811.2734    8072433.29146   6339423.81346                  23090817.5904
        18.5004         16.5004
 98  6 18 20 37  0.0000000  0  6G17G 6G26G10G23G30
  21595037.2814  -17160823.10248 -13229153.04547                  21595043.2934
        29.2504         25.7504
  20510904.4614  -17935235.10048 -13931836.02947                  20510909.5124
        31.2504         26.0004
  22917955.6644   -8902496.48446  -6772073.03646                  22917963.1804
        15.5004         14.5004
  23524467.9924    7490753.54246   5879728.19646                  23524474.5554
        17.2504         14.5004
  23002954.8524   -9196632.32346  -7009529.72046                  23002962.2034
        16.2504         15.7504
  23100215.5084    8121852.10346   6377931.93746                  23100221.9534
        19.0004         16.5004
 98  6 18 20 37 15.0000000  0  6G17G 6G26G10G23G30
  21591774.3134  -17177970.56848 -13242514.70446                  21591780.4184
        28.7504         25.5004
  20509888.0234  -17940576.48148 -13935998.14347                  20509893.2854
        31.5004         26.5004
  22912227.4064   -8932599.39446  -6795529.79146                  22912234.2504
        16.5004         15.0004
  23533651.5704    7539013.73246   5917333.50346                  23533657.5704
        17.5004         14.5004
  22994692.7974   -9240048.61146  -7043360.54146                  22994699.9734
        16.5004         15.2504
  23109627.9064    8171313.82846   6416473.50646                  23109634.4804
        19.5004         16.5004
 98  6 18 20 37 30.0000000  0  6G17G 6G26G10G23G30
  21588521.0554  -17195066.11847 -13255835.91246                  21588527.1024
        27.7504         25.5004
  20508892.6564  -17945808.31548 -13940074.89647                  20508897.8484
        31.7504         26.2504
  22906517.0004   -8962607.64446  -6818912.79146                  22906524.0124
        16.0004         15.0004
  23542847.4614    7587337.32546   5954988.25146                  23542853.5314
        17.0004         14.7504
  22986445.7664   -9283387.14546  -7077130.79546                  22986451.9064
        17.7504         15.2504
  23119049.2664    8220823.46146   6455052.39246                  23119055.7464
        19.5004         16.7504
 98  6 18 20 37 45.0000000  0  6G17G 6G26G10G23G30
  21585277.5474  -17212110.31848 -13269117.09847                  21585283.6294
        29.0004         25.7504
  20507917.8444  -17950930.71848 -13944066.38247                  20507923.1174
        32.0004         27.0004
  22900825.1884   -8992518.85746  -6842220.18946                  22900832.3524
        15.7504         14.5004
  23552054.7274    7635722.15946   5992690.67946                  23552061.7974
        16.7504         14.7504
  22978213.5864   -9326647.59246  -7110840.20046                  22978220.3364
        17.5004         15.5004
  23128479.1804    8270379.00546   6493667.05146                  23128485.5434
        19.7504         16.2504
 98  6 18 20 38  0.0000000  0  6G17G 6G26G10G23G30
  21582044.4534  -17229101.65948 -13282357.09947                  21582050.4414
        30.0004         25.7504
  20506963.8364  -17955943.36848 -13947972.34347                  20506969.0744
        32.0004         27.0004
  22895152.2664   -9022330.69446  -6865450.16246                  22895159.8634
        16.0004         15.0004
  23561273.3754    7684166.61646   6030439.57346                  23561280.3874
        16.5004         14.7504
  22969996.5084   -9369827.29046  -7144486.67646                  22970003.9304
        17.5004         15.7504
  23137918.3284    8319979.46746   6532316.72246                  23137924.9494
        19.7504         16.5004
 98  6 18 20 38 15.0000000  0  6G17G 6G26G10G23G30
  21578820.3674  -17246043.36148 -13295558.41947                  21578826.3794
        29.7504         25.7504
  20506030.6094  -17960848.86148 -13951794.80547                  20506035.6604
        32.2504         27.0004
  22889497.3754   -9052047.20846  -6888605.84246                  22889503.9144
        16.0004         14.7504
  23570502.5634    7732665.75046   6068231.06746                  23570509.5864
        17.0004         15.0004
  22961793.9844   -9412931.47646  -7178074.31946                  22961801.2774
        17.5004         16.0004
  23147363.8444    8369617.53246   6570995.68146                  23147370.1954
        19.5004         16.5004
 98  6 18 20 38 30.0000000  0  6G17G 6G26G10G23G30
  21575606.5634  -17262931.73048 -13308718.17546                  21575612.5744
        30.5004         25.5004
  20505117.5234  -17965645.61148 -13955532.53447                  20505122.5634
        32.5004         27.0004
  22883861.1254   -9081666.13946  -6911685.49146                  22883867.0904
        17.0004         14.7504
  23579741.3524    7781217.15646   6106063.30946                  23579748.3634
        16.7504         14.5004
  22953606.0784   -9455959.35646  -7211602.52746                  22953613.3594
        16.7504         15.7504
  23156817.1414    8419294.20546   6609704.72446                  23156823.9024
        19.0004         16.7504
 98  6 18 20 38 45.0000000  0  6G17G 6G26G10G23G30
  21572403.0944  -17279767.03647 -13321836.60046                  21572409.1294
        27.0004         25.5004
  20504225.4694  -17970335.22648 -13959186.77947                  20504230.4614
        32.7504         27.0004
  22878242.0234   -9111193.47046  -6934693.75446                  22878248.5864
        16.5004         15.0004
  23588989.3134    7829813.25346   6143930.37546                  23588996.0394
        16.5004         14.7504
  22945432.7584   -9498911.99746  -7245072.08246                  22945440.4144
        17.2504         16.0004
  23166277.1804    8469008.10146   6648442.77946                  23166283.8834
        18.5004         16.7504
 98  6 18 20 39  0.0000000  0  6G17G 6G26G10G23G30
  21569210.3754  -17296544.90348 -13334910.24247                  21569216.3524
        28.7504         26.0004
  20503354.3524  -17974912.18948 -13962753.24247                  20503359.1214
        32.7504         27.0004
  22872641.5474   -9140623.37346  -6957626.10246                  22872648.8164
        16.0004         15.0004
  23598245.2734    7878455.43646   6181833.34746                  23598252.0004
        16.2504         14.0004
  22937274.0634   -9541785.17546  -7278479.69446                  22937280.9804
        18.2504         16.5004
  23175745.4064    8518763.86946   6687213.45946                  23175751.8874
        19.2504         16.7504
 98  6 18 20 39 15.0000000  0  6G17G 6G26G10G23G30
  21566028.6094  -17313266.42448 -13347940.00847                  21566034.5864
        30.5004         26.2504
  20502504.7664  -17979377.00148 -13966232.31147                  20502509.3364
        32.7504         27.0004
  22867059.7274   -9169956.93046  -6980483.38646                  22867067.1374
        16.5004         15.5004
  23607509.3674    7927138.47846   6219768.14146                  23607515.6254
        15.7504         13.2504
  22929129.7814   -9584583.07246  -7311828.66146                  22929136.7234
        18.0004         16.5004
  23185221.3834    8568560.25746   6726015.77546                  23185227.9924
        18.7504         16.7504
 98  6 18 20 39 30.0000000  0  6G17G 6G26G10G23G30
  21562857.1954  -17329931.32048 -13360925.63747                  21562863.1484
        29.5004         26.2504
  20501677.0084  -17983726.56248 -13969621.58247                  20501681.6954
        32.7504         27.0004
  22861496.3134   -9199193.01046  -7003264.70946                  22861502.9804
        16.2504         15.0004
  23616780.9304    7975861.67146   6257734.28346                  23616786.3794
        14.5004         12.7504
  22921000.1564   -9627304.92646  -7345118.37046                  22921007.6134
        17.5004         16.2504
  23194705.0864    8618397.14746   6764849.66146                  23194711.5084
        18.7504         16.2504
 98  6 18 20 39 45.0000000  0  6G17G 6G26G10G23G30
  21559697.3284  -17346537.02448 -13373865.12947                  21559703.4224
        32.5004         26.0004
  20500871.9064  -17987958.42048 -13972919.13347                  20500876.6174
        33.0004         27.2504
  22855952.5234   -9228325.41346  -7025965.24046                  22855959.0274
        16.5004         14.7504
  23626060.5234    8024626.74046   6295732.97146                  23626067.2974
        14.2504         12.7504
  22912885.0394   -9669949.89546  -7378348.19346                  22912892.6024
        17.7504         16.5004
  23204197.2034    8668276.83846   6803716.90146                  23204204.1094
        18.7504         16.2504
 98  6 18 20 40  0.0000000  0  6G17G 6G26G10G23G30
  21556548.0164  -17363086.55048 -13386760.88347                  21556554.1334
        30.2504         26.0004
  20500088.4144  -17992075.89748 -13976127.55247                  20500093.1374
        32.5004         27.2504
  22850427.5634   -9257357.79946  -7048587.85346                  22850433.5744
        17.0004         14.5004
  23635347.9384    8073431.97846   6333763.02146                  23635354.3484
        14.2504         12.5004
  22904784.2194   -9712519.03346  -7411518.91446                  22904791.6174
        18.2504         17.2504
  23213696.7194    8718197.41146   6842615.99046                  23213703.8834
        18.2504         16.2504
 98  6 18 20 40 15.0000000  0  6G17G 6G26G10G23G30
  21553408.7504  -17379583.10248 -13399615.32847                  21553414.8914
        31.5004         26.2504
  20499326.3134  -17996080.80248 -13979248.26147                  20499331.2934
        32.7504         27.0004
  22844921.2974   -9286292.99546  -7071134.73146                  22844927.1684
        16.7504         14.5004
  23644641.7814    8122270.53746   6371819.01546                  23644648.4024
        14.0004         12.5004
  22896697.4534   -9755016.07046  -7444633.44346                  22896704.7704
        18.5004         16.7504
  23223203.6954    8768156.53346   6881545.13946                  23223210.8954
        18.2504         16.0004
 98  6 18 20 40 30.0000000  0  6G17G 6G26G10G23G30
  21550279.1484  -17396029.30548 -13412430.54947                  21550285.1724
        30.7504         26.7504
  20498585.3754  -17999973.96148 -13982281.88547                  20498590.3914
        32.5004         27.0004
  22839433.3524   -9315132.70046  -7093607.20046                  22839440.1484
        16.7504         15.0004
  23653941.4774    8171140.67046   6409899.60246                  23653947.5704
        14.5004         12.7504
  22888623.6564   -9797442.92546  -7477693.31046                  22888630.8204
        18.5004         16.7504
  23232718.5704    8818156.44846   6920506.05046                  23232725.8284
        18.2504         16.0004
 98  6 18 20 40 45.0000000  0  6G17G 6G26G10G23G30
  21547159.7504  -17412422.41548 -13425204.38347                  21547165.8914
        30.5004         26.7504
  20497866.4694  -18003750.93648 -13985224.97847                  20497871.4964
        32.5004         26.7504
  22833964.1094   -9343874.56146  -7116003.43046                  22833970.9064
        16.5004         15.0004
  23663247.9064    8220046.32146   6448007.88546                  23663254.3634
        14.0004         12.0004
  22880564.9614   -9839790.76446  -7510691.58946                  22880572.6294
        17.7504         17.0004
  23242242.3984    8868204.78746   6959504.71046                  23242249.5514
        18.7504         16.2504
 98  6 18 20 41  0.0000000  0  6G17G 6G26G10G23G30
  21544049.5944  -17428766.47148 -13437940.00547                  21544055.7934
        30.7504         27.0004
  20497169.7894  -18007412.65648 -13988078.26647                  20497174.6054
        32.5004         26.5004
  22828513.2344   -9372518.59046  -7138323.42346                  22828519.8324
        16.7504         15.2504
  23672561.5234    8268989.56046   6486145.44946                  23672568.6294
        15.0004         12.7504
  22872522.1644   -9882058.76946  -7543627.66046                  22872529.7504
        17.0004         16.7504
  23251775.7194    8918303.48446   6998542.59746                  23251783.3874
        18.0004         15.5004
 98  6 18 20 41 15.0000000  0  6G17G 6G26G10G23G30
  21540947.7274  -17445064.74148 -13450639.96247                  21540953.8094
        30.0004         26.7504
  20496494.3054  -18010962.62948 -13990844.47747                  20496499.0864
        32.5004         26.5004
  22823081.3834   -9401063.68446  -7160566.31046                  22823087.6174
        16.7504         15.0004
  23681882.9774    8317972.45546   6524313.89546                  23681889.4924
        14.2504         12.2504
  22864493.6414   -9924248.03146  -7576502.37846                  22864501.6484
        16.7504         16.7504
  23261318.5004    8968450.91946   7037618.45446                  23261325.7344
        17.2504         16.0004
 98  6 18 20 41 30.0000000  0  6G17G 6G26G10G23G30
  21537855.1174  -17461318.49248 -13463305.21547                  21537861.2464
        31.5004         26.7504
  20495839.3444  -18014403.56948 -13993525.73447                  20495844.2664
        32.0004         26.2504
  22817668.0394   -9429510.18446  -7182732.38946                  22817674.4844
        17.0004         15.5004
  23691211.6484    8366996.55146   6562514.49046                  23691218.4224
        14.2504         12.2504
  22856480.1334   -9966358.10046  -7609315.38546                  22856488.0234
        16.7504         16.7504
  23270869.8444    9018645.24846   7076730.86546                  23270877.4064
        17.2504         15.7504
 98  6 18 20 41 45.0000000  0  6G17G 6G26G10G23G30
  21534770.2034  -17477529.43148 -13475937.11747                  21534776.1454
        31.7504         26.7504
  20495205.1254  -18017736.20648 -13996122.59247                  20495210.1294
        32.0004         26.5004
  22812273.6334   -9457857.85046  -7204821.44446                  22812280.7734
        17.7504         15.7504
  23700548.5554    8416064.25946   6600749.01646                  23700555.8364
        13.5004         12.2504
  22848481.8134  -10008389.18946  -7642066.83146                  22848489.6094
        17.2504         17.0004
  23280430.0084    9068884.89446   7115878.59046                  23280437.8284
        16.5004         15.5004
 98  6 18 20 42  0.0000000  0  6G17G 6G26G10G23G30
  21531693.5394  -17493696.79948 -13488535.06547                  21531699.4574
        30.0004         26.5004
  20494591.3054  -18020961.92248 -13998636.13347                  20494596.1454
        32.2504         26.7504
  22806897.7814   -9486107.57546  -7226834.19946                  22806904.8524
        16.7504         15.5004
  23709894.8524    8465176.35446   6639018.15945                  23709901.0394
        16.2504         11.7504
  22840498.6334  -10050340.89846  -7674756.43746                  22840507.1804
        17.5004         16.7504
  23289999.2424    9119169.62746   7155061.43646                  23290006.7814
        16.2504         15.2504
 98  6 18 20 42 15.0000000  0  6G17G 6G26G10G23G30
  21528626.0394  -17509816.94348 -13501096.19047                  21528632.1334
        31.0004         26.0004
  20493998.1254  -18024079.08848 -14001065.09347                  20494003.0004
        32.5004         26.7504
  22801541.3054   -9514257.16246  -7248768.90946                  22801548.5274
        17.2504         16.2504
  23719249.6254    8514335.60446   6677324.05946                  23719256.8244
        14.7504         12.7504
  22832531.5314  -10092208.74946  -7707380.70246                  22832539.4344
        18.0004         17.0004
  23299576.5554    9169497.70946   7194278.07346                  23299584.2934
        16.2504         15.2504
 98  6 18 20 42 30.0000000  0  6G17G 6G26G10G23G30
  21525566.9614  -17525891.20348 -13513621.59447                  21525572.9964
        30.2504         26.2504
  20493425.5554  -18027088.48748 -14003410.07947                  20493430.3244
        32.5004         27.0004
  22796204.4384   -9542303.65946  -7270623.31246                  22796210.8834
        18.0004         15.7504
  23728613.6414    8563543.97146   6715668.19846                  23728620.3794
        16.0004         12.5004
  22824579.6094  -10133996.46146  -7739942.51946                  22824587.5004
        18.5004         17.2504
  23309161.9224    9219869.19546   7233528.52846                  23309169.3094
        17.0004         15.2504
 98  6 18 20 42 45.0000000  0  6G17G 6G26G10G23G30
  21522516.7194  -17541921.62648 -13526112.83247                  21522522.7894
        28.5004         26.2504
  20492873.2814  -18029990.35748 -14005671.27947                  20492878.0044
        32.5004         27.2504
  22790886.6174   -9570247.60846  -7292397.78246                  22790892.7704
        18.0004         15.2504
  23737988.0634    8612807.05846   6754055.01946                  23737994.9454
        15.2504         12.5004
  22816643.2974  -10175703.33946  -7772441.35246                  22816650.3914
        19.2504         17.5004
  23318755.6484    9270283.89446   7272812.64646                  23318762.9414
        17.5004         15.0004
 98  6 18 20 43  0.0000000  0  6G17G 6G26G10G23G30
  21519473.8674  -17557911.79348 -13538572.68847                  21519479.9264
        30.2504         26.5004
  20492341.1724  -18032786.84448 -14007850.36047                  20492345.8134
        32.7504         27.0004
  22785588.0864   -9598090.88446  -7314093.80946                  22785594.3554
        17.0004         15.5004
  23747373.1804    8662123.47946   6792483.34746                  23747379.5084
        16.7504         13.0004
  22808721.4774  -10217332.32046  -7804879.48046                  22808728.2854
        19.2504         17.7504
  23328355.9454    9320735.36546   7312125.42546                  23328363.1804
        17.0004         15.2504
 98  6 18 20 43 15.0000000  0  6G17G 6G26G10G23G30
  21516438.9534  -17573861.01848 -13551000.65147                  21516444.9884
        30.7504         26.5004
  20491829.5474  -18035475.94948 -14009945.77247                  20491834.4574
        32.5004         26.7504
  22780309.6414   -9625828.29746  -7335707.35046                  22780316.0514
        16.0004         15.2504
  23756767.8204    8711496.48946   6830955.82346                  23756775.4184
        15.2504         12.7504
  22800814.2504  -10258885.18546  -7837258.30146                  22800820.6724
        19.2504         17.2504
  23337963.3834    9371221.20746   7351464.98246                  23337970.3364
        16.2504         15.2504
 98  6 18 20 43 30.0000000  0  6G17G 6G26G10G23G30
  21513411.6414  -17589768.88548 -13563396.38747                  21513417.6644
        29.5004         26.2504
  20491338.0634  -18038057.31648 -14011957.23347                  20491343.0784
        32.0004         26.5004
  22775051.5314   -9653461.50146  -7357239.69646                  22775058.2584
        16.5004         15.2504
  23766173.9144    8760923.27946   6869470.16546                  23766179.8444
        16.7504         12.7504
  22792920.6954  -10300365.38446  -7869580.51346                  22792927.7424
        19.0004         17.0004
  23347576.3134    9421736.78246   7390827.71346                  23347583.1954
        16.2504         15.5004
 98  6 18 20 43 45.0000000  0  6G17G 6G26G10G23G30
  21510392.4844  -17605635.04148 -13575759.60947                  21510398.5204
        31.5004         26.2504
  20490868.3594  -18040526.38548 -14013881.18047                  20490873.3054
        32.2504         26.2504
  22769813.3914   -9680987.89446  -7378688.80746                  22769819.6724
        17.0004         15.5004
  23775589.3444    8810402.12246   6908025.10546                  23775595.9884
        16.2504         12.5004
  22785041.3444  -10341772.54546  -7901845.80346                  22785048.6954
        19.5004         17.2504
  23357195.5394    9472284.67646   7430215.64946                  23357203.0204
        17.2504         15.2504
 98  6 18 20 44  0.0000000  0  6G17G 6G26G10G23G30
  21507380.0314  -17621464.55448 -13588094.30247                  21507386.0554
        28.0004         26.5004
  20490419.3754  -18042886.13248 -14015719.94747                  20490424.4964
        32.0004         26.5004
  22764594.3914   -9708413.64346  -7400059.48846                  22764601.2734
        16.7504         15.5004
  23785013.4534    8859925.53646   6946614.74946                  23785020.1094
        16.2504         12.7504
  22777174.3444  -10383112.98746  -7934059.10546                  22777181.6374
        19.2504         17.2504
  23366819.2974    9522859.24046   7469624.34546                  23366826.6844
        17.5004         15.7504
 98  6 18 20 44 15.0000000  0  6G17G 6G26G10G23G30
  21504375.8984  -17637251.60848 -13600395.86747                  21504381.9924
        30.2504         26.5004
  20489992.2114  -18045129.91948 -14017468.35147                  20489997.2274
        32.2504         26.5004
  22759395.5084   -9735731.93546  -7421346.45146                  22759401.8014
        16.7504         15.0004
  23794446.7584    8909496.58846   6985241.50746                  23794454.0394
        17.0004         12.7504
  22769321.4384  -10424381.55246  -7966216.40446                  22769328.3914
        19.5004         17.2504
  23376449.8834    9573466.65346   7509058.62446                  23376457.2704
        18.2504         15.5004
 98  6 18 20 44 30.0000000  0  6G17G 6G26G10G23G30
  21501380.3524  -17652993.92148 -13612662.61047                  21501386.3284
        32.2504         26.7504
  20489588.1174  -18047252.64348 -14019122.42347                  20489593.2504
        32.0004         26.5004
  22754218.6334   -9762937.77346  -7442545.76546                  22754224.6914
        17.0004         15.0004
  23803888.0084    8959114.27046   7023904.62746                  23803894.1374
        15.2504         12.5004
  22761481.4144  -10465577.90846  -7998317.43446                  22761488.4264
        18.5004         17.2504
  23386087.3444    9624112.22846   7548522.66046                  23386094.3914
        18.0004         15.0004
 98  6 18 20 44 45.0000000  0  6G17G 6G26G10G23G30
  21498392.3594  -17668695.05548 -13624897.26447                  21498398.3594
        29.7504         26.7504
  20489207.2814  -18049255.80748 -14020683.33447                  20489212.3794
        32.5004         27.0004
  22749062.0474   -9790037.33746  -7463662.28846                  22749067.7424
        18.0004         15.7504
  23813338.5004    9008772.08746   7062598.98946                  23813345.1564
        18.2504         12.7504
  22753654.9844  -10506707.30546  -8030366.27846                  22753662.0084
        18.5004         17.2504
  23395731.4924    9674795.03746   7588015.70546                  23395738.5164
        16.5004         15.2504
 98  6 18 20 45  0.0000000  0  6G17G 6G26G10G23G30
  21495413.4384  -17684350.51948 -13637096.30547                  21495419.5084
        30.0004         26.7504
  20488849.0554  -18051138.26648 -14022150.18747                  20488854.3164
        32.5004         26.7504
  22743925.4694   -9817029.21746  -7484694.89646                  22743931.2704
        18.5004         15.5004
  23822794.1414    9058466.27646   7101321.74946                  23822801.2584
        15.7504         13.0004
  22745841.8674  -10547764.67246  -8062359.00646                  22745849.4534
        18.7504         17.7504
  23405383.0084    9725514.63446   7627537.39546                  23405389.9264
        15.7504         15.0004
 98  6 18 20 45 15.0000000  0  6G17G 6G26G10G23G30
  21492443.0634  -17699959.02748 -13649258.77547                  21492449.2504
        30.0004         26.7504
  20488513.5944  -18052901.44948 -14023524.09447                  20488518.8794
        32.2504         27.0004
  22738809.6724   -9843912.22946  -7505642.67046                  22738816.2704
        18.0004         16.0004
  23832257.4224    9108191.51146   7140068.62446                  23832263.1644
        17.7504         13.0004
  22738042.1954  -10588753.50446  -8094298.32046                  22738049.7114
        18.5004         17.5004
  23415041.6174    9776268.71246   7667085.96446                  23415048.6644
        15.5004         14.5004
 98  6 18 20 45 30.0000000  0  6G17G 6G26G10G23G30
  21489482.8674  -17715514.97448 -13661380.29347                  21489489.0314
        29.2504         26.7504
  20488200.6094  -18054545.25148 -14024804.97947                  20488205.7544
        32.0004         26.7504
  22733714.9774   -9870686.46546  -7526505.69646                  22733721.7034
        17.0004         16.0004
  23841724.4384    9157945.28346   7178837.79646                  23841731.0704
        16.2504         13.2504
  22730255.5554  -10629672.12846  -8126182.93146                  22730263.1994
        19.2504         18.2504
  23424707.1024    9827061.32946   7706664.57346                  23424714.0434
        15.5004         14.2504
 98  6 18 20 45 45.0000000  0  6G17G 6G26G10G23G30
  21486533.6724  -17731013.39048 -13673456.97147                  21486539.9064
        30.7504         27.0004
  20487911.1644  -18056066.78848 -14025990.59647                  20487916.4024
        32.2504         26.5004
  22728640.8524   -9897350.39346  -7547282.75746                  22728647.3444
        17.7504         16.0004
  23851197.9384    9207725.42346   7217627.44546                  23851205.0204
        17.0004         13.5004
  22722483.4454  -10670515.24446  -8158008.70846                  22722491.0904
        19.2504         17.7504
  23434381.2664    9877898.36746   7746277.77746                  23434388.2664
        16.5004         14.7504
 98  6 18 20 46  0.0000000  0  7G17G 6G22G26G10G23G30
  21483594.9454  -17746456.50848 -13685490.57047                  21483601.0744
        28.7504         27.0004
  20487644.1334  -18057468.61348 -14027082.93247                  20487649.1374
        32.0004         26.5004
  24261752.8204     -11213.58752
         4.0004
  22723587.6724   -9923905.66246  -7567975.15246                  22723593.8134
        18.2504         15.7504
  23860675.1724    9257529.22946   7256435.59246                  23860681.6644
        17.0004         13.7504
  22714725.2344  -10711282.70546  -8189775.52746                  22714732.4224
        19.5004         18.2504
  23444062.4844    9928773.89446   7785921.00146                  23444069.2114
        16.5004         14.5004
 98  6 18 20 46 15.0000000  0  7G17G 6G22G26G10G23G30
  21480666.3914  -17761845.94348 -13697482.32547                  21480672.5084
        32.5004         26.7504
  20487398.7274  -18058758.73548 -14028088.21647                  20487403.7074
        32.0004         26.2504
  24257194.7814     -35161.78442
         4.0004
  22718553.5314   -9950357.59346  -7588587.01946                  22718559.7304
        18.0004         16.0004
  23870156.4064    9307353.45846   7295259.63546                  23870163.7344
        17.5004         14.0004
  22706981.4694  -10751977.27346  -8221485.56146                  22706988.8554
        19.0004         18.0004
  23453749.5784    9979680.64146   7825588.53746                  23453756.2464
        16.0004         14.2504
 98  6 18 20 46 30.0000000  0  7G17G 6G22G26G10G23G30
  21477748.4614  -17777179.46148 -13709430.53847                  21477754.6604
        29.0004         26.7504
  20487174.4224  -18059936.86048 -14029006.24547                  20487179.5784
        32.0004         26.5004
  24252659.2274     -58994.33842
         4.0004
  22713540.2894   -9976701.78146  -7609114.93046                  22713547.0514
        17.0004         16.0004
  23879642.0234    9357199.75246   7334100.86646                  23879649.4804
        16.2504         13.2504
  22699252.1804  -10792595.40446  -8253136.03246                  22699259.2384
        19.5004         17.7504
  23463443.2734   10030620.01546   7865281.49346                  23463450.9304
        15.2504         14.2504
 98  6 18 20 46 45.0000000  0  7G17G 6G22G26G10G23G30
  21474840.9384  -17792458.34948 -13721336.13847                  21474847.0784
        30.2504         26.7504
  20486971.5634  -18061005.16248 -14029838.68547                  20486976.7304
        32.0004         26.5004
  24248145.3914     -82712.24242
         4.2504
  22708547.6804  -10002939.14946  -7629559.61046                  22708554.3244
        17.7504         16.2504
  23889131.8444    9407069.62346   7372960.49046                  23889137.4344
        16.2504         12.5004
  22691537.7664  -10833135.32946  -8284725.55246                  22691544.8594
        19.7504         18.0004
  23473142.3754   10081588.12446   7904996.83246                  23473149.8794
        16.0004         14.0004
 98  6 18 20 47  0.0000000  0  7G17G 6G22G26G10G23G30
  21471943.8524  -17807683.51348 -13733199.91847                  21471949.7934
        28.5004         27.0004
  20486788.8834  -18061964.29948 -14030586.05647                  20486794.2034
        32.5004         26.7504
  24243653.4454    -106313.48342
         4.5004
  22703575.4534  -10029067.82446  -7649919.59546                  22703582.8984
        18.0004         16.2504
  23898626.5944    9456967.00546   7411841.54646                  23898633.8874
        14.7504         12.5004
  22683838.8914  -10873591.78846  -8316250.05146                  22683845.8324
        19.7504         17.7504
  23482846.0234   10132581.46346   7944731.85946                  23482852.8954
        16.2504         14.0004
 98  6 18 20 47 15.0000000  0  7G17G 6G22G26G10G23G30
  21469056.6884  -17822854.66448 -13745021.57347                  21469062.8874
        30.7504         26.7504
  20486627.4534  -18062813.30248 -14031247.61847                  20486632.4344
        32.5004         26.7504
  24239184.5864    -129801.04142
         4.7504
  22698624.5784  -10055086.35146  -7670193.74946                  22698630.9534
        18.2504         16.0004
  23908127.7034    9506894.32046   7450745.88846                  23908134.7624
        14.5004         13.2504
  22676156.6334  -10913963.15646  -8347708.23646                  22676163.6564
        19.7504         18.0004
  23492554.2034   10183597.05246   7984484.17446                  23492561.5434
        15.7504         14.5004
 98  6 18 20 47 30.0000000  0  7G17G 6G22G26G10G23G30
  21466180.3984  -17837969.31448 -13756799.23147                  21466186.4924
        29.0004         27.0004
  20486487.5394  -18063548.89048 -14031820.80147                  20486492.4844
        32.5004         26.7504
  24234737.8754    -153170.57943
         5.5004
  22693694.5634  -10080994.17046  -7690381.64246                  22693700.7384
        18.2504         16.0004
  23917634.9694    9556857.30046   7489678.05946                  23917642.9654
        13.7504         12.7504
  22668490.4844  -10954247.87347  -8379098.90046                  22668497.1054
        20.0004         18.0004
  23502266.3524   10234636.34646   8024255.00246                  23502273.8094
        16.0004         14.0004
 98  6 18 20 47 45.0000000  0  7G17G 6G22G26G10G23G30
  21463314.3834  -17853032.21848 -13768536.54947                  21463320.4304
        32.0004         27.2504
  20486368.8594  -18064171.88948 -14032306.25547                  20486373.7344
        32.5004         26.7504
  24230313.7194    -176421.98644
         6.2504
  22688785.0084  -10106791.82746  -7710483.69446                  22688791.2664
        17.7504         15.7504
  23927149.6414    9606854.56546   7528636.92446                  23927156.9804
        14.5004         12.7504
  22660841.2894  -10994445.85146  -8410421.97646                  22660848.0394
        19.5004         18.2504
  23511983.1414   10285696.29346   8064041.91246                  23511990.4574
        15.7504         14.0004
 98  6 18 20 48  0.0000000  0  7G17G 6G22G26G10G23G30
  21460457.1094  -17868047.32648 -13780236.64347                  21460463.1564
        31.2504         27.2504
  20486271.5864  -18064682.52448 -14032704.15447                  20486276.2974
        32.2504         26.7504
  24225911.1724    -199554.19844
         7.2504
  22683896.8984  -10132478.22246  -7730499.03146                  22683903.2384
        17.5004         15.7504
  23936671.1024    9656889.44846   7567625.11646                  23936677.9964
        14.7504         13.0004
  22653208.1334  -11034557.24347  -8441677.58846                  22653215.0744
        20.2504         18.2504
  23521702.3134   10336771.15846   8103840.43946                  23521709.5704
        16.0004         14.2504
 98  6 18 20 48 15.0000000  0  7G17G 6G22G26G10G23G30
  21457608.7274  -17883015.32748 -13791900.01447                  21457614.7154
        30.5004         27.2504
  20486196.0554  -18065080.50248 -14033014.27147                  20486200.7074
        31.7504         26.5004
  24221532.9384    -222567.76845    -15535.51155                  24221539.6174
         7.7504          7.0004
  22679031.3984  -10158050.16346  -7750425.18746                  22679037.9494
        18.0004         16.0004
  23946200.2664    9706966.05546   7606645.82946                  23946207.4184
        14.0004         12.7504
  22645592.1254  -11074581.41447  -8472865.23146                  22645599.1844
        20.5004         18.5004
  23531424.7344   10387862.85246   8143652.08146                  23531432.1334
        17.0004         14.2504
 98  6 18 20 48 30.0000000  0  7G17G 6G22G26G10G23G30
  21454768.3204  -17897942.04348 -13803531.20947                  21454774.3674
        31.7504         27.0004
  20486140.7344  -18065370.49548 -14033240.24047                  20486145.5514
        32.2504         26.7504
  24217174.6414    -245469.04745    -33380.69945                  24217182.3674
         8.0004          7.2504
  22674186.1954  -10183509.54546  -7770263.64746                  22674192.8164
        18.2504         16.2504
  23955736.6334    9757079.00546   7645694.82946                  23955744.0204
        14.0004         12.5004
  22637991.1644  -11114523.21447  -8503988.69046                  22637998.1994
        21.0004         18.7504
  23541150.7424   10438971.99246   8183477.33946                  23541158.2344
        17.0004         14.2504
 98  6 18 20 48 45.0000000  0  7G17G 6G22G26G10G23G30
  21451935.7344  -17912827.36948 -13815130.17147                  21451941.7934
        30.7504         27.0004
  20486106.8054  -18065548.61448 -14033379.03747                  20486111.6804
        32.5004         26.5004
  24212838.3984    -268254.65845    -51135.65545                  24212845.4924
         8.2504          7.0004
  22669363.2734  -10208854.72346  -7790013.12646                  22669370.0124
        18.0004         16.2504
  23965280.2504    9807231.53146   7684774.69445                  23965287.0594
        13.7504         11.7504
  22630406.2194  -11154382.13147  -8535047.56846                  22630413.4884
        20.7504         18.7504
  23550880.1804   10490101.44246   8223318.39946                  23550887.0864
        16.5004         14.2504
 98  6 18 20 49  0.0000000  0  7G17G 6G22G26G10G23G30
  21449110.8834  -17927671.14248 -13826696.72847                  21449116.9414
        30.0004         27.2504
  20486094.8914  -18065611.26648 -14033427.85447                  20486099.8954
        32.0004         26.5004
  24208524.2814    -290923.88545    -68800.02245                  24208533.3444
         8.7504          7.2504
  22664561.4774  -10234088.14846  -7809675.51446                  22664568.2624
        18.5004         16.2504
  23974830.9924    9857423.60246   7723885.37145                  23974839.4224
        12.5004         11.2504
  22622837.5394  -11194156.33847  -8566040.42646                  22622844.5744
        20.2504         18.5004
  23560614.1254   10541253.49546   8263177.07746                  23560621.1844
        15.7504         13.7504
 98  6 18 20 49 15.0000000  0  7G17G 6G22G26G10G23G30
  21446295.8524  -17942464.74748 -13838224.21047                  21446301.8054
        31.2504         27.2504
  20486106.2114  -18065551.66448 -14033381.41347                  20486110.9694
        32.5004         26.5004
  24204233.8444    -313471.43445    -86369.54345                  24204240.2194
         9.2504          7.7504
  22659781.7504  -10259203.80846  -7829246.13146                  22659788.3594
        18.7504         16.2504
  23984390.6564    9907659.18246   7763029.95145                  23984397.6094
        13.5004         11.2504
  22615285.0864  -11233843.65547  -8596965.58946                  22615292.2154
        20.7504         19.0004
  23570354.3754   10592437.28946   8303060.50346                  23570361.4694
        15.7504         13.7504
 98  6 18 20 49 30.0000000  0  7G17G 6G22G26G10G23G30
  21443489.5004  -17957211.68448 -13849715.32447                  21443495.4884
        30.5004         27.7504
  20486139.6174  -18065375.93748 -14033244.47747                  20486144.4344
        32.2504         26.5004
  24199965.6094    -335900.18445   -103846.46745                  24199972.6214
         9.7504          8.7504
  22655024.4534  -10284206.50146  -7848728.71946                  22655030.3244
        19.0004         15.5004
  23993957.0704    9957931.98145   7802203.54845                  23993965.0314
        11.5004         10.5004
  22607748.3204  -11273450.73247  -8627828.22446                  22607755.3674
        20.7504         18.7504
  23580100.0314   10643652.04646   8342968.05746                  23580107.0434
        16.0004         13.0004
 98  6 18 20 49 45.0000000  0  7G17G 6G22G26G10G23G30
  21440691.8834  -17971912.11448 -13861170.19447                  21440697.9774
        30.7504         27.5004
  20486195.4224  -18065083.04948 -14033016.25147                  20486200.0634
        32.0004         26.7504
  24195721.2034    -358203.72245   -121225.85645                  24195727.5084
        10.5004          8.7504
  22650288.4064  -10309093.67246  -7868121.29846                  22650293.7734
        19.2504         16.2504
  24003530.8524   10008239.58046   7841404.21045                  24003538.6024
        13.0004         11.0004
  22600227.0084  -11312976.01347  -8658627.12346                  22600233.9844
        21.0004         19.2504
  23589852.4224   10694902.83146   8382903.66246                  23589859.5044
        15.0004         13.0004
 98  6 18 20 50  0.0000000  0  7G17G 6G22G26G10G23G30
  21437902.8444  -17986569.46648 -13872591.51147                  21437908.9614
        31.2504         27.2504
  20486272.8594  -18064675.60348 -14032698.76447                  20486277.6994
        32.5004         26.5004
  24191500.5394    -380384.23245   -138509.34945                  24191507.9024
        11.2504          9.7504
  22645574.1334  -10333867.20346  -7887425.31246                  22645580.3324
        19.2504         16.2504
  24013109.8444   10058578.32346   7880629.16845                  24013117.8874
        12.2504         11.2504
  22592720.7504  -11352421.74547  -8689364.04146                  22592727.4064
        21.0004         19.0004
  23599611.9454   10746187.16346   8422865.41946                  23599618.3674
        15.0004         13.2504
 98  6 18 20 50 15.0000000  0  7G17G 6G22G26G10G23G30
  21435122.3834  -18001180.39148 -13883976.63647                  21435128.3834
        30.2504         27.2504
  20486372.2894  -18064153.88348 -14032292.23047                  20486377.1174
        32.5004         26.5004
  24187303.4454    -402441.04246   -155696.48845                  24187310.3524
        12.0004         10.5004
  22640881.1484  -10358528.85946  -7906642.16746                  22640887.5004
        18.5004         16.5004
  24022695.2504   10108948.24046   7919878.44045                  24022702.2034
        12.7504         11.2504
  22585229.0944  -11391787.99947  -8720039.01946                  22585236.0004
        20.5004         18.7504
  23609378.0004   10797508.74446   8462856.19646                  23609385.0124
        15.0004         13.5004
 98  6 18 20 50 30.0000000  0  7G17G 6G22G26G10G23G30
  21432351.3284  -18015741.88248 -13895323.25147                  21432357.6564
        30.2504         27.2504
  20486493.7894  -18063514.48148 -14031793.99647                  20486498.7814
        32.2504         26.5004
  24183129.6334    -424373.20446   -172786.49145                  24183136.9844
        12.0004         10.5004
  22636209.4924  -10383077.95046  -7925771.31446                  22636216.3524
        18.5004         16.5004
  24032285.9614   10159346.71346   7959149.94245                  24032292.9964
        13.2504         11.7504
  22577753.7664  -11431073.80147  -8750651.31946                  22577760.8594
        20.7504         19.5004
  23619152.0234   10848870.71246   8502878.45546                  23619159.5274
        14.5004         14.0004
 98  6 18 20 50 45.0000000  0  7G17G 6G22G26G10G23G30
  21429590.9144  -18030247.98848 -13906626.70647                  21429597.0784
        29.0004         27.5004
  20486638.5944  -18062753.91348 -14031201.34447                  20486643.3984
        32.5004         26.5004
  24178980.5234    -446177.08046   -189776.50545                  24178988.1564
        12.2504         10.7504
  22631559.1954  -10407513.75446  -7944812.16946                  22631565.3134
        18.2504         16.5004
  24041882.4384   10209777.96946   7998446.98345                  24041889.5784
        13.5004         11.0004
  22570293.4454  -11470275.96147  -8781198.42246                  22570300.7034
        21.0004         19.5004
  23628933.6024   10900273.75746   8542932.69646                  23628940.7424
        14.7504         13.2504
 98  6 18 20 51  0.0000000  0  7G17G 6G22G26G10G23G30
  21426841.1174  -18044699.49348 -13917887.61547                  21426847.5044
        30.7504         27.2504
  20486806.0474  -18061874.12848 -14030515.79847                  20486810.7934
        32.0004         26.2504
  24174855.2814    -467854.66946   -206668.14545                  24174863.8874
        12.2504         11.2504
  22626930.2894  -10431840.18546  -7963767.81246                  22626936.5474
        18.5004         16.0004
  24051485.1484   10260238.26146   8037766.68345                  24051491.4654
        14.0004         11.0004
  22562849.1334  -11509395.46047  -8811681.13346                  22562856.5434
        21.0004         19.2504
  23638722.4694   10951713.56546   8583015.60446                  23638729.4344
        14.5004         13.0004
 98  6 18 20 51 15.0000000  0  7G17G 6G22G26G10G23G30
  21424100.5704  -18059100.35248 -13929109.06847                  21424106.8984
        29.5004         27.5004
  20486994.9844  -18060880.67648 -14029741.67747                  20486999.9304
        32.0004         26.0004
  24170753.6954    -489411.12346   -223465.39345                  24170761.7974
        12.5004         11.7504
  22622321.5164  -10456058.97246  -7982639.57446                  22622327.8204
        18.7504         16.0004
  24061091.1954   10310721.52746   8077104.25245                  24061098.6764
        13.2504         11.2504
  22555420.4534  -11548435.26547  -8842101.73046                  22555427.7344
        21.2504         19.5004
  23648516.8524   11003184.17946   8623122.51846                  23648524.5314
        14.7504         13.2504
 98  6 18 20 51 30.0000000  0  7G17G 6G22G26G10G23G30
  21421369.9924  -18073450.74248 -13940291.17947                  21421376.2274
        31.5004         27.2504
  20487204.7274  -18059778.03848 -14028882.46947                  20487209.6484
        32.0004         26.2504
  24166673.7584    -510849.04746   -240170.25045                  24166681.7774
        12.2504         11.2504
  22617733.5394  -10480169.22646  -8001426.75746                  22617739.9024
        18.7504         16.5004
  24070702.6024   10361227.66346   8116459.63245                  24070710.4804
        14.2504         11.2504
  22548006.1484  -11587396.65247  -8872461.21946                  22548013.4184
        21.0004         19.7504
  23658316.9384   11054683.13846   8663251.49546                  23658324.7934
        14.7504         13.7504
 98  6 18 20 51 45.0000000  0  7G17G 6G22G26G10G23G30
  21418649.1094  -18087748.16748 -13951432.04547                  21418655.0744
        29.2504         27.0004
  20487436.8444  -18058559.12748 -14027932.66547                  20487441.6134
        32.5004         26.2504
  24162618.0474    -532162.48946   -256778.14645                  24162626.4414
        12.2504         11.7504
  22613166.6094  -10504167.85146  -8020126.96246                  22613173.0434
        19.0004         16.7504
  24080318.5394   10411760.93846   8155836.20645                  24080325.7974
        13.2504         11.2504
  22540608.3984  -11626271.93647  -8902753.63146                  22540615.5864
        21.0004         19.2504
  23668122.2974   11106210.42446   8703402.55646                  23668130.0704
        14.5004         13.5004
 98  6 18 20 52  0.0000000  0  7G17G 6G22G26G10G23G30
  21415938.5944  -18101992.50148 -13962531.49847                  21415944.6054
        31.2504         27.0004
  20487690.9694  -18057223.20148 -14026891.68347                  20487695.5044
        32.2504         26.2504
  24158585.5314    -553353.56245   -273290.65645                  24158593.4804
        11.7504         11.5004
  22608621.1884  -10528054.88946  -8038740.22646                  22608627.7624
        19.2504         17.0004
  24089940.2114   10462322.03246   8195234.41045                  24089946.9614
        14.0004         11.5004
  22533226.9774  -11665062.58847  -8932980.08746                  22533233.6564
        20.7504         19.2504
  23677932.4144   11157760.85946   8743571.65746                  23677940.4454
        13.5004         13.7504
 98  6 18 20 52 15.0000000  0  7G17G 6G22G26G10G23G30
  21413237.8674  -18116184.30448 -13973590.05847                  21413243.9384
        29.5004         26.7504
  20487967.2194  -18055772.30748 -14025761.11847                  20487971.7304
        32.5004         26.0004
  24154575.4534    -574425.48146   -289710.32145                  24154582.6764
        12.2504         11.7504
  22604096.7274  -10551832.56846  -8057268.26746                  22604103.4304
        19.7504         17.0004
  24099566.9924   10512912.51746   8234655.55045                  24099572.6054
        14.0004         11.0004
  22525861.6954  -11703768.35047  -8963140.39246                  22525868.2584
        21.2504         19.0004
  23687745.6414   11209330.96246   8783756.08746                  23687754.0354
        13.5004         13.7504
 98  6 18 20 52 30.0000000  0  7G17G 6G22G26G10G23G30
  21410546.4454  -18130328.34148 -13984611.35747                  21410552.5044
        29.7504         27.0004
  20488265.0784  -18054206.67148 -14024541.14647                  20488269.9414
        32.0004         26.2504
  24150588.0704    -595380.40845   -306038.85845                  24150596.0904
        11.5004         11.5004
  22599592.5004  -10575501.20746  -8075711.33446                  22599598.5944
        19.7504         17.0004
  24109199.5784   10563530.71546   8274098.26545                  24109206.2934
        14.5004         11.5004
  22518511.7504  -11742389.24147  -8993234.56246                  22518518.3954
        21.0004         19.0004
  23697562.1414   11260917.92146   8823953.65346                  23697569.8554
        13.5004         13.5004
 98  6 18 20 52 45.0000000  0  7G17G 6G22G26G10G23G30
  21407864.3754  -18144421.99048 -13995593.42747                  21407870.5744
        30.2504         27.2504
  20488585.6804  -18052522.24348 -14023228.60447                  20488590.6604
        31.2504         25.7504
  24146623.9384    -616213.72545   -322272.58745                  24146630.6414
        11.2504         11.0004
  22595110.4844  -10599052.83646  -8094063.23246                  22595116.0274
        19.7504         16.5004
  24118838.2344   10614183.51646   8313567.96645                  24118845.7274
        13.5004         11.0004
  22511180.0394  -11780917.82147  -9023256.81646                  22511186.8984
        21.0004         19.0004
  23707383.0944   11312524.59946   8864166.57946                  23707391.2664
        13.5004         13.5004
 98  6 18 20 53  0.0000000  0  7G17G 6G22G26G10G23G30
  21405191.3364  -18158468.17048 -14006538.49947                  21405197.4774
        30.2504         27.2504
  20488928.0864  -18050721.85048 -14021825.69947                  20488933.2544
        31.0004         25.7504
  24142681.8984    -636927.71645   -338413.36245                  24142689.6254
        10.7504         10.7504
  22590650.8284  -10622489.52046  -8112325.56746                  22590656.5124
        19.5004         17.0004
  24128483.6564   10664868.51946   8353062.74845                  24128490.5744
        13.5004         11.2504
  22503865.1804  -11819358.83247  -9053210.81746                  22503872.2504
        21.2504         19.2504
  23717206.1644   11364147.51946   8904392.16146                  23717214.2774
        14.2504         13.7504
 98  6 18 20 53 15.0000000  0  7G17G 6G22G26G10G23G30
  21402527.4534  -18172468.40148 -14017447.76347                  21402533.5124
        29.2504         27.2504
  20489293.4774  -18048801.61448 -14020329.41247                  20489298.7034
        31.2504         25.7504
  24138763.6174    -657520.42845   -354459.61945                  24138771.2504
        10.5004         10.2504
  22586213.0864  -10645810.11846  -8130497.43746                  22586219.1914
        19.7504         16.7504
  24138134.4534   10715584.04646   8392581.31145                  24138140.1844
        13.5004         10.5004
  22496566.8204  -11857712.50047  -9083096.76546                  22496573.1954
        21.2504         19.0004
  23727032.8594   11415785.07146   8944629.14646                  23727040.9384
        14.0004         13.7504
 98  6 18 20 53 30.0000000  0  7G17G 6G22G26G10G23G30
  21399872.3834  -18186420.81348 -14028319.76147                  21399878.4064
        30.7504         27.2504
  20489682.8594  -18046756.42348 -14018735.75547                  20489688.0514
        31.7504         26.0004
  24134868.8984    -677987.60145   -370408.05945                  24134875.8524
        10.0004          9.2504
  22581797.9774  -10669011.01046  -8148576.03646                  22581804.0594
        19.5004         17.0004
  24147792.1564   10766334.58546   8432127.16945                  24147799.1684
        13.5004         10.7504
  22489285.0704  -11895977.50147  -9112913.62246                  22489291.4224
        22.0004         19.5004
  23736862.5394   11467440.00446   8984879.66746                  23736870.5594
        14.7504         14.0004
 98  6 18 20 53 45.0000000  0  7G17G 6G22G26G10G23G30
  21397226.0394  -18200327.19548 -14039155.90147                  21397232.0634
        30.0004         27.0004
  20490095.9844  -18044585.84848 -14017044.40447                  20490101.0234
        32.2504         26.5004
  24130998.0234    -698327.34645   -386257.21745                  24131004.9304
        10.0004          9.7504
  22577404.9384  -10692095.56646  -8166563.98646                  22577410.7154
        19.2504         16.5004
  24157455.5164   10817116.19746   8471697.22545                  24157461.5634
        14.0004         10.5004
  22482020.1024  -11934154.91747  -9142662.22546                  22482026.6884
        21.7504         19.5004
  23746695.3594   11519110.22046   9025142.10646                  23746703.2274
        14.5004         13.5004
 98  6 18 20 54  0.0000000  0  7G17G 6G22G26G10G23G30
  21394588.1954  -18214188.81348 -14049957.14747                  21394594.2074
        31.2504         27.0004
  20490533.2664  -18042287.42648 -14015253.42847                  20490538.2704
        32.2504         26.2504
  24127152.0314    -718537.27945   -402005.18745                  24127157.5274
         9.0004          9.5004
  22573034.7114  -10715060.95746  -8184459.07646                  22573041.1454
        18.5004         16.7504
  24167124.4844   10867929.93946   8511292.34545                  24167130.8714
        13.2504         11.2504
  22474771.7664  -11972244.63647  -9172342.49146                  22474778.4224
        21.5004         19.5004
  23756530.9064   11570795.25546   9065416.09046                  23756538.5164
        15.5004         14.0004
 98  6 18 20 54 15.0000000  0  7G17G 6G22G26G10G23G30
  21391958.0164  -18228010.65348 -14060727.40447                  21391964.0514
        29.5004         27.0004
  20490993.6644  -18039868.07248 -14013368.22047                  20490998.6804
        32.0004         26.0004
  24123329.1254    -738624.36145   -417657.43745                  24123335.5474
         9.2504          8.7504
  22568687.0164  -10737909.59046  -8202263.18646                  22568693.2384
        19.2504         16.5004
  24176799.5394   10918773.11246   8550910.37545                  24176806.9964
        12.0004         11.2504
  22467539.7664  -12010249.51347  -9201956.65846                  22467546.6374
        21.2504         19.5004
  23766368.3754   11622493.76346   9105700.56546                  23766375.4574
        15.7504         14.0004
 98  6 18 20 54 30.0000000  0  7G17G 6G22G26G10G23G30
  21389336.4534  -18241786.34548 -14071461.70747                  21389342.6764
        30.2504         27.0004
  20491477.8754  -18037322.52448 -14011384.68047                  20491482.7504
        31.5004         26.0004
  24119532.3984    -758581.15945   -433208.19845                  24119539.4344
         9.7504          9.2504
  22564363.1484  -10760632.87847  -8219969.62446                  22564368.8204
        20.2504         17.0004
  24186481.6954   10969649.84246   8590554.53845                  24186488.1764
        13.0004         11.2504
  22460325.0704  -12048163.68447  -9231500.13146                  22460332.2234
        21.5004         20.0004
  23776210.9304   11674213.99946   9146001.98546                  23776218.6804
        15.2504         14.2504
 98  6 18 20 54 45.0000000  0  7G17G 6G22G26G10G23G30
  21386723.1414  -18255519.80648 -14082163.10047                  21386729.1174
        29.7504         27.0004
  20491985.4144  -18034655.58348 -14009306.55447                  20491990.5594
        31.2504         25.7504
  24115758.0234    -778412.71845   -448661.36545                  24115765.7854
        10.5004          9.5004
  22560062.4694  -10783233.35647  -8237580.37346                  22560068.3984
        20.5004         17.5004
  24196167.8594   11020553.37245   8630219.60045                  24196174.3054
        11.7504         10.5004
  22453126.1334  -12085992.81447  -9260977.33746                  22453133.1914
        21.2504         19.5004
  23786056.7344   11725951.84946   9186317.12746                  23786064.4614
        15.7504         14.0004
 98  6 18 20 55  0.0000000  0  7G17G 6G22G26G10G23G30
  21384118.3524  -18269207.24348 -14092828.62447                  21384124.4694
        30.0004         27.2504
  20492515.5784  -18031869.80648 -14007135.81547                  20492520.7344
        31.0004         25.7504
  24112008.1644    -798119.71945   -464017.46245                  24112016.2664
        11.5004          8.7504
  22555784.0554  -10805714.95147  -8255098.47346                  22555790.0784
        20.2504         17.2504
  24205859.5474   11071480.69346   8669903.15345                  24205867.8594
        12.5004         11.0004
  22445942.5784  -12123742.08447  -9290392.32246                  22445949.3634
        21.7504         19.7504
  23795905.3984   11777706.97846   9226645.74146                  23795913.1954
        15.7504         13.7504
 98  6 18 20 55 15.0000000  0  7G17G 6G22G26G10G23G30
  21381522.8284  -18282847.03348 -14103457.03147                  21381529.0984
        29.0004         27.2504
  20493068.7194  -18028962.60548 -14004870.46747                  20493073.8524
        31.5004         25.7504
  24108282.3444    -817698.70746   -479273.87545                  24108288.7544
        12.7504          9.5004
  22551529.0864  -10828075.42646  -8272522.19346                  22551535.7894
        19.7504         17.5004
  24215554.8444   11122432.12946   8709605.56445                  24215561.7974
        12.2504         11.0004
  22438774.6954  -12161409.65147  -9319743.64746                  22438781.1054
        22.2504         19.5004
  23805757.3984   11829480.71646   9266988.83046                  23805764.8914
        15.5004         14.0004
 98  6 18 20 55 30.0000000  0  7G17G 6G22G26G10G23G30
  21378936.2344  -18296440.45048 -14114049.28747                  21378942.6334
        30.2504         27.2504
  20493644.9614  -18025935.46448 -14002511.66147                  20493649.6254
        32.2504         26.2504
  24104580.8984    -837149.83246   -494430.59945                  24104588.3674
        13.0004          9.0004
  22547297.3594  -10850312.45546  -8289849.73546                  22547303.5234
        19.5004         17.7504
  24225256.0234   11173408.28746   8749327.21745                  24225261.8594
        12.7504         10.7504
  22431623.1254  -12198992.09847  -9349028.64546                  22431629.4534
        22.0004         19.7504
  23815613.0084   11881274.64546   9307347.68046                  23815620.3134
        15.5004         13.7504
 98  6 18 20 55 45.0000000  0  7G17G 6G22G26G10G23G30
  21376357.5004  -18309990.39448 -14124607.68747                  21376363.5234
        28.5004         27.2504
  20494242.1954  -18022797.57948 -14000066.55547                  20494246.9304
        32.2504         26.5004
  24100903.4304    -856477.58346   -509491.22445                  24100909.8874
        14.0004         10.2504
  22543089.1484  -10872428.23547  -8307082.79346                  22543095.5824
        20.0004         17.5004
  24234959.9694   11224403.22646   8789063.49345                  24234966.5204
        13.2504         11.2504
  22424487.0164  -12236491.75647  -9378249.12346                  22424493.6484
        22.0004         19.7504
  23825472.7974   11933086.30746   9347720.32546                  23825480.1844
        15.2504         13.2504
 98  6 18 20 56  0.0000000  0  7G17G 6G22G26G10G23G30
  21373788.1884  -18323493.44048 -14135129.53647                  21373794.2464
        29.5004         27.2504
  20494860.2504  -18019549.18448 -13997535.34247                  20494865.0784
        32.2504         26.2504
  24097248.6644    -875681.29646   -524455.14445                  24097254.9104
        13.7504         10.7504
  22538904.3134  -10894419.50947  -8324218.82746                  22538910.4884
        20.5004         17.5004
  24244668.6174   11275420.77646   8828817.40745                  24244674.8164
        15.2504         10.7504
  22417367.6954  -12273904.62147  -9407401.97546                  22417374.5554
        22.0004         19.7504
  23835335.9384   11984917.51846   9388108.22346                  23835343.1604
        15.0004         13.5004
 98  6 18 20 56 15.0000000  0  7G17G 6G22G26G10G23G30
  21371228.0474  -18336947.99748 -14145613.59947                  21371234.2344
        31.5004         27.2504
  20495499.1024  -18016191.97448 -13994919.34147                  20495503.9414
        32.0004         26.5004
  24093617.5164    -894764.43546   -539325.10445                  24093624.0084
        13.0004         10.5004
  22534743.6024  -10916284.94547  -8341256.81146                  22534749.7894
        21.0004         17.5004
  24254380.3914   11326460.93646   8868588.95545                  24254387.7544
        12.7504         10.5004
  22410264.8444  -12311231.26347  -9436487.64446                  22410271.3594
        22.2504         20.2504
  23845203.0084   12036769.10846   9428511.98646                  23845210.4654
        14.7504         13.0004
 98  6 18 20 56 30.0000000  0  7G17G 6G22G26G10G23G30
  21368677.0634  -18350352.43748 -14156058.62247                  21368683.2154
        29.5004         27.5004
  20496158.2504  -18012728.05848 -13992220.19647                  20496163.1254
        31.7504         26.2504
  24090009.0004    -913726.21246   -554100.52845                  24090015.9534
        12.2504         10.2504
  22530606.0474  -10938026.63147  -8358198.35946                  22530611.9774
        21.0004         17.7504
  24264096.6954   11377520.88045   8908375.85945                  24264104.2704
        11.7504          9.5004
  22403177.8984  -12348473.25147  -9465507.34546                  22403184.6024
        22.2504         20.2504
  23855074.1414   12088642.16646   9468932.48146                  23855081.9144
        14.5004         12.7504
 98  6 18 20 56 45.0000000  0  7G17G 6G22G26G10G23G30
  21366136.8054  -18363702.54348 -14166461.29247                  21366142.8874
        31.0004         27.5004
  20496838.7974  -18009151.00948 -13989432.88347                  20496843.9774
        31.5004         26.2504
  24086424.5084    -932561.30945   -568777.23345                  24086431.6254
        11.2504         10.7504
  22526492.6174  -10959642.28447  -8375041.70146                  22526498.3714
        20.5004         17.5004
  24273817.6954   11428603.21046   8948180.19645                  24273824.9654
        12.7504         10.5004
  22396107.2894  -12385628.11947  -9494459.15046                  22396113.7584
        22.2504         20.0004
  23864949.7974   12140539.00246   9509371.49246                  23864957.9224
        14.0004         12.2504
 98  6 18 20 57  0.0000000  0  7G17G 6G22G26G10G23G30
  21363606.0234  -18377000.69348 -14176823.47647                  21363612.0354
        31.7504         27.2504
  20497540.8134  -18005461.77648 -13986558.15947                  20497545.8054
        31.7504         26.5004
  24082864.4694    -951270.49745   -583355.78645                  24082872.1024
        11.0004         10.2504
  22522402.2424  -10981136.10947  -8391790.12146                  22522408.0314
        20.2504         17.7504
  24283542.4534   11479707.80045   8988001.95545                  24283548.4064
        11.7504          9.7504
  22389053.1174  -12422698.53647  -9523345.15446                  22389059.4454
        22.5004         20.0004
  23874828.7974   12192456.13446   9549826.34246                  23874837.2154
        13.5004         12.2504
 98  6 18 20 57 15.0000000  0  7G17G 6G22G26G10G23G30
  21361085.9614  -18390245.14248 -14187143.82747                  21361092.0084
        29.7504         27.0004
  20498264.8914  -18001657.34448 -13983593.67147                  20498269.9064
        32.0004         26.5004
  24079328.8834    -969849.80945   -597833.16145                  24079335.9414
        11.2504         10.7504
  22518335.9534  -11002506.22647  -8408442.14246                  22518342.1764
        20.7504         18.2504
  24293271.9224   11530836.24245   9027842.26145                  24293279.0394
        11.5004          9.5004
  22382015.2894  -12459681.22647  -9552162.80746                  22382021.8054
        22.0004         19.7504
  23884712.4534   12244392.74446   9590296.35946                  23884720.0744
        13.2504         12.0004
 98  6 18 20 57 30.0000000  0  7G17G 6G22G26G10G23G30
  21358575.3674  -18403438.26948 -14197424.16847                  21358581.3554
        32.5004         27.2504
  20499011.2194  -17997735.31448 -13980537.55147                  20499015.9654
        32.7504         26.7504
  24075818.5474    -988298.23945   -612208.57545                  24075825.5004
        11.2504         10.2504
  22514293.4694  -11023751.13347  -8424996.59246                  22514299.7624
        20.2504         17.7504
  24303006.5004   11581990.21746   9067702.42545                  24303014.1914
        12.5004          9.5004
  22374995.6174  -12496569.95947  -9580907.24646                  22375002.4384
        21.7504         20.0004
  23894599.3984   12296347.89846   9630780.83545                  23894607.3364
        12.7504         11.7504
 98  6 18 20 57 45.0000000  0  7G17G 6G22G26G10G23G30
  21356075.3204  -18416575.86148 -14207661.25447                  21356081.1804
        31.2504         27.2504
  20499780.3444  -17993695.14848 -13977389.37547                  20499784.9384
        33.0004         27.0004
  24072332.9614   -1006615.40646   -626481.69945                  24072341.0274
        12.0004         10.7504
  22510273.8364  -11044873.01247  -8441455.18746                  22510279.5664
        20.7504         17.7504
  24312745.5864   11633170.11446   9107582.85045                  24312752.3954
        12.2504          9.2504
  22367993.5314  -12533365.18347  -9609578.81546                  22368000.1994
        21.5004         20.0004
  23904489.5164   12348321.68846   9671279.81345                  23904497.3134
        12.7504         11.0004
 98  6 18 20 58  0.0000000  0  7G17G 6G22G26G10G23G30
  21353584.7194  -18429663.67048 -14217859.53347                  21353590.6604
        30.5004         27.7504
  20500571.0474  -17989539.47448 -13974151.19447                  20500575.8524
        32.5004         27.0004
  24068871.8914   -1024805.98846   -640656.16845                  24068878.6294
        12.5004         10.7504
  22506276.2194  -11065881.14547  -8457825.14446                  22506282.2074
        21.5004         17.7504
  24322488.6254   11684370.29345   9147479.09545                  24322495.1414
        11.7504          9.0004
  22361008.1094  -12570074.12647  -9638183.15946                  22361014.5084
        22.0004         19.7504
  23914382.2034   12400306.90246   9711787.72045                  23914390.3164
        12.2504         11.5004
 98  6 18 20 58 15.0000000  0  7G17G 6G22G26G10G23G30
  21351104.7974  -18442695.40148 -14228014.12547                  21351110.7384
        31.5004         27.5004
  20501385.8754  -17985256.09148 -13970813.50147                  20501390.6684
        32.5004         27.0004
  24065435.2274   -1042863.97746   -654727.36345                  24065442.7074
        13.0004         10.7504
  22502301.0164  -11086770.75947  -8474102.74746                  22502306.6884
        20.7504         18.0004
  24332237.5004   11735599.91246   9187398.24745                  24332243.6524
        12.5004          9.2504
  22354039.6334  -12606692.84047  -9666717.19246                  22354046.0434
        21.7504         19.5004
  23924278.0004   12452310.80146   9752310.16445                  23924285.6564
        12.5004         11.0004
 98  6 18 20 58 30.0000000  0  7G17G 6G22G26G10G23G30
  21348635.3134  -18455672.81048 -14238126.37447                  21348641.3014
        32.0004         27.2504
  20502225.5944  -17980843.77748 -13967375.34147                  20502230.3754
        32.2504         26.7504
  24062024.7344   -1060787.48446   -668693.74745                  24062032.0744
        13.5004         11.0004
  22498348.2504  -11107542.31447  -8490288.34546                  22498354.1914
        21.0004         17.5004
  24341991.3054   11786857.35445   9227339.08045                  24341996.4264
        11.2504          8.7504
  22347088.3054  -12643222.90947  -9695182.14846                  22347094.8674
        21.7504         19.7504
  23934177.5394   12504334.33946   9792847.91545                  23934185.0314
        12.5004         11.0004
 98  6 18 20 58 45.0000000  0  7G17G 6G22G26G10G23G30
  21346174.9304  -18468602.13148 -14248201.18147                  21346181.0004
        29.0004         27.5004
  20503089.1954  -17976305.24548 -13963838.82347                  20503094.2114
        32.2504         26.7504
  24058639.0634   -1078579.26346   -682557.48545                  24058645.9694
        13.7504         10.2504
  22494417.8204  -11128198.95047  -8506384.41546                  22494423.5984
        21.0004         18.0004
  24351749.6484   11838138.24745   9267298.16445                  24351756.2584
        10.7504          8.5004
  22340152.8134  -12679669.85547  -9723582.33746                  22340158.9414
        21.7504         20.0004
  23944081.0474   12556372.65146   9833397.17645                  23944088.3874
        12.7504         11.5004
 98  6 18 20 59  0.0000000  0  7G17G 6G22G26G10G23G30
  21343722.6564  -18481488.10048 -14258242.17947                  21343728.6914
        30.5004         27.5004
  20503976.7034  -17971642.27648 -13960205.34247                  20503981.5554
        32.5004         26.7504
  24055276.7274   -1096244.69246   -696322.77945                  24055283.4064
        12.5004         10.2504
  22490508.2114  -11148741.94247  -8522391.93346                  22490513.8364
        21.2504         18.2504
  24361511.5004   11889435.48246   9307270.02145                  24361518.8984
        12.2504          9.5004
  22333232.4224  -12716035.93147  -9751919.50446                  22333239.4224
        21.5004         20.2504
  23953984.6094   12608418.80346   9873952.55845                  23953992.2424
        13.2504         11.7504
 98  6 18 20 59 15.0000000  0  7G17G 6G22G26G10G23G30
  21341279.7974  -18494325.86648 -14268245.62147                  21341285.8914
        31.0004         27.2504
  20504888.6724  -17966850.05148 -13956471.14347                  20504893.2544
        32.2504         26.7504
  24051940.5234   -1113778.85345   -709985.76745                  24051946.3364
        11.0004          9.2504
  22486621.7114  -11169165.33147  -8538306.23046                  22486627.4654
        21.0004         18.0004
  24371276.7274   11940752.99045   9347257.65845                  24371283.5704
        11.7504          9.7504
  22326329.5164  -12752312.38347  -9780186.84046                  22326336.2774
        21.5004         20.2504
  23963891.3284   12660478.01246   9914518.11546                  23963898.8324
        13.2504         12.0004
 98  6 18 20 59 30.0000000  0  7G17G 6G22G26G10G23G30
  21338844.8834  -18507121.39548 -14278216.16947                  21338850.8244
        31.2504         27.2504
  20505824.6174  -17961931.73948 -13952638.69947                  20505829.0474
        32.0004         27.0004
  24048626.8914   -1131188.70245   -723551.92145                  24048632.9734
        10.0004          9.2504
  22482757.4774  -11189472.25947  -8554129.79146                  22482763.6174
        20.5004         17.5004
  24381045.2344   11992085.75545   9387257.16645                  24381053.1954
        11.2504          9.0004
  22319442.5474  -12788501.62547  -9808386.22046                  22319449.3794
        21.7504         20.2504
  23973799.7344   12712547.12946   9955091.36545                  23973807.9774
        12.7504         11.7504
 98  6 18 20 59 45.0000000  0  7G17G 6G22G26G10G23G30
  21336418.0784  -18519874.98448 -14288154.03347                  21336423.9964
        29.0004         27.2504
  20506784.8134  -17956885.99748 -13948706.96047                  20506789.3484
        32.5004         26.7504
  24045337.2974   -1148475.60245   -737022.22045                  24045342.6884
        10.0004          9.5004
  22478915.2664  -11209660.54046  -8569860.89446                  22478921.2774
        19.7504         17.5004
  24390817.1954   12043435.42346   9427269.89345                  24390823.8404
        12.5004          9.0004
  22312572.3364  -12824605.81747  -9836519.31546                  22312578.9574
        22.5004         20.5004
  23983710.7584   12764628.56246   9995674.24245                  23983718.8954
        13.5004         11.5004
 98  6 18 21  0  0.0000000  0  7G17G 6G22G26G10G23G30
  21333998.5084  -18532588.72548 -14298060.82747                  21334004.5664
        31.2504         27.2504
  20507768.4774  -17951716.85248 -13944679.06247                  20507772.9184
        32.5004         26.5004
  24042070.5474   -1165642.20245   -750398.76245                  24042077.5824
        11.0004         10.5004
  22475096.2734  -11229729.44346  -8585498.99046                  22475102.3324
        19.5004         17.5004
  24400590.9774   12094800.40645   9467294.55745                  24400599.8054
        11.7504          9.2504
  22305717.0084  -12860631.00647  -9864590.85046                  22305723.5944
        22.0004         20.5004
  23993623.6174   12816721.58546  10036266.15746                  23993631.7894
        13.5004         12.2504
 98  6 18 21  0 15.0000000  0  7G17G 6G22G26G10G23G30
  21331586.7114  -18545264.03848 -14307937.69247                  21331592.6884
        31.5004         27.2504
  20508775.2974  -17946423.92148 -13940554.70647                  20508779.8794
        32.2504         26.5004
  24038827.3284   -1182689.59745   -763682.46945                  24038834.2234
        11.2504         10.5004
  22471301.1954  -11249673.96547  -8601040.15646                  22471307.3714
        20.2504         17.7504
  24410368.4144   12146181.33645   9507331.58645                  24410376.9964
        11.7504          9.2504
  22298876.9534  -12896574.08247  -9892598.40546                  22298883.6454
        22.0004         20.5004
  24003539.1094   12868827.57146  10076868.13946                  24003547.4694
        13.2504         12.2504
 98  6 18 21  0 30.0000000  0  7G17G 6G22G26G10G23G30
  21329182.6644  -18557897.50148 -14317781.95147                  21329188.6524
        30.5004         27.2504
  20509806.1484  -17941008.71448 -13936335.06847                  20509811.0594
        32.5004         26.5004
  24035606.4614   -1199615.19946   -776871.24845                  24035614.7854
        12.2504         10.7504
  22467530.9774  -11269486.46547  -8616478.44946                  22467536.7774
        21.0004         17.7504
  24420149.6094   12197580.57946   9547382.93045                  24420157.9694
        12.7504         10.5004
  22292053.6564  -12932430.47047  -9920538.41946                  22292060.1844
        22.2504         20.5004
  24013457.1414   12920948.21346  10117481.55645                  24013465.5234
        13.2504         11.5004
 98  6 18 21  0 45.0000000  0  7G17G 6G22G26G10G23G30
  21326786.0474  -18570492.07148 -14327595.90547                  21326792.0234
        30.0004         27.2504
  20510859.2664  -17935474.49648 -13932022.69447                  20510863.9184
        32.7504         26.7504
  24032409.1804   -1216418.39246   -789964.66945                  24032415.6484
        12.0004         10.5004
  22463786.3134  -11289163.75847  -8631811.38746                  22463792.8984
        20.0004         17.7504
  24429933.5084   12248995.07846   9587446.15045                  24429941.8094
        12.5004         10.7504
  22285247.6174  -12968197.50247  -9948408.80646                  22285253.8754
        22.5004         20.5004
  24023377.7734   12973080.06246  10158103.69445                  24023386.2384
        13.0004         11.5004
 98  6 18 21  1  0.0000000  0  7G17G 6G22G26G10G23G30
  21324396.2034  -18583050.58348 -14337381.73947                  21324402.2384
        32.0004         27.5004
  20511934.8834  -17929821.70448 -13927617.93347                  20511939.7464
        32.7504         27.2504
  24029233.5634   -1233103.66145   -802966.16045                  24029242.3674
        11.7504         10.5004
  22460067.5314  -11308708.29447  -8647040.88246                  22460073.6954
        20.2504         17.7504
  24439719.3834   12300421.62545   9627518.71745                  24439727.5784
        11.5004         10.5004
  22278457.8364  -13003877.48447  -9976211.35446                  22278464.2114
        22.5004         20.7504
  24033299.5704   13025218.18346  10198730.74046                  24033307.7424
        12.7504         12.0004
 98  6 18 21  1 15.0000000  0  7G17G 6G22G26G10G23G30
  21322013.6954  -18595570.87148 -14347137.80847                  21322019.7074
        30.5004         27.5004
  20513033.5234  -17924048.42648 -13923119.28147                  20513038.3054
        32.5004         26.7504
  24026081.0164   -1249669.03045   -815874.27745                  24026089.8554
        11.5004         10.0004
  22456372.5004  -11328122.31746  -8662168.67446                  22456378.6294
        19.7504         17.2504
  24449509.7734   12351868.66046   9667607.25545                  24449518.4384
        12.0004          9.5004
  22271685.2034  -13039468.54147 -10003944.61946                  22271691.6134
        22.7504         20.5004
  24043222.4614   13077362.73146  10239362.78045                  24043230.2234
        13.0004         11.7504
 98  6 18 21  1 30.0000000  0  7G17G 6G22G26G10G23G30
  21319638.4454  -18608052.89548 -14356864.04847                  21319644.3524
        32.7504         27.5004
  20514154.5234  -17918157.76348 -13918529.16047                  20514159.3634
        32.5004         26.7504
  24022951.9304   -1266114.38345   -828688.85245                  24022959.7854
        10.7504          9.7504
  22452702.7114  -11347408.60347  -8677196.92246                  22452708.6414
        20.5004         17.2504
  24459304.1804   12403337.78245   9707713.06345                  24459312.3164
        11.7504         10.0004
  22264928.4064  -13074974.37547 -10031611.47046                  22264935.3244
        22.7504         20.5004
  24053146.5704   13129513.81746  10279999.92546                  24053154.1094
        13.2504         12.2504
 98  6 18 21  1 45.0000000  0  7G17G 6G22G26G10G23G30
  21317271.7344  -18620490.12448 -14366555.39747                  21317277.6294
        31.2504         27.7504
  20515298.6804  -17912145.10748 -13913843.97347                  20515303.4384
        32.2504         26.7504
  24019846.2504   -1282433.34845   -841404.95845                  24019852.8834
        10.5004          9.0004
  22449058.4064  -11366560.81347  -8692120.69946                  22449064.0084
        20.5004         17.5004
  24469103.5864   12454834.70246   9747840.46645                  24469111.6884
        12.2504         10.2504
  22258188.5704  -13110392.09647 -10059209.66446                  22258195.2504
        22.0004         20.5004
  24063072.6414   13181675.99346  10320645.70046                  24063080.9534
        13.5004         12.5004
 98  6 18 21  2  0.0000000  0  7G17G 6G22G26G10G23G30
  21314913.3134  -18632883.00848 -14376212.16647                  21314919.2544
        32.2504         27.5004
  20516464.6724  -17906016.20948 -13909068.21147                  20516469.4534
        32.2504         26.2504
  24016764.6024   -1298627.24345   -854023.54745                  24016770.9064
         9.5004          8.7504
  22445438.8364  -11385581.12647  -8706941.70346                  22445444.8014
        20.2504         17.5004
  24478907.7664   12506356.17246   9787986.99845                  24478915.6334
        12.5004         10.2504
  22251465.3834  -13145724.36147 -10086741.26346                  22251472.1334
        22.0004         20.5004
  24073000.5314   13233846.25946  10361297.78446                  24073008.7624
        14.2504         12.5004
 98  6 18 21  2 15.0000000  0  7G17G 6G22G26G10G23G30
  21312563.7034  -18645230.36948 -14385833.49647                  21312569.7034
        30.5004         27.7504
  20517653.5554  -17899769.57348 -13904200.70947                  20517658.3484
        32.5004         26.7504
  24013706.9144   -1314694.79545   -866543.71045                  24013712.5864
        11.0004          9.5004
  22441844.2974  -11404469.96646  -8721660.26246                  22441851.0474
        19.2504         17.7504
  24488716.9694   12557902.06646   9828152.60145                  24488725.0124
        12.0004          9.0004
  22244758.2344  -13180968.57947 -10114204.25646                  22244765.1174
        22.0004         20.5004
  24082929.7034   13286024.69346  10401956.23846                  24082938.3914
        13.7504         12.5004
 98  6 18 21  2 30.0000000  0  7G17G 6G22G26G10G23G30
  21310223.1644  -18657530.30648 -14395417.86147                  21310229.0704
        31.5004         27.7504
  20518865.2504  -17893401.77948 -13899238.80747                  20518870.0434
        32.2504         26.7504
  24010674.2584   -1330632.96545   -878963.08245                  24010681.4804
        11.7504         10.2504
  22438275.0864  -11423226.94746  -8736276.07646                  22438281.5904
        19.5004         17.2504
  24498530.2114   12609471.16745   9868336.28245                  24498538.3244
        11.7504          9.0004
  22238069.2274  -13216120.21947 -10141595.11446                  22238075.9884
        22.0004         20.7504
  24092860.2504   13338210.74746  10442620.60746                  24092868.1294
        13.2504         13.0004
